GFSSGP_850_thetae_003.txt.gz
Theta_e
311 312 316 325 329 333 333 337 332 335 334 326 325 326 328 329 336 331 328 331 333 331 330 328 327 324 323 320 320 320 320 319 317 317 316 315 312 309 309 311 316 314 313 317 321 321 320 318 315
311 315 325 331 334 340 341 337 338 335 333 330 325 324 325 328 326 327 329 331 331 329 326 327 326 325 323 321 322 321 321 318 317 318 318 318 315 311 314 317 316 314 313 313 322 326 325 323 322
315 325 334 338 341 343 341 336 336 335 330 326 327 324 325 328 328 328 330 331 329 328 326 325 325 325 324 323 322 321 319 317 317 318 318 320 318 316 321 326 324 321 318 315 325 328 328 327 326
326 330 333 338 342 340 338 337 336 334 327 324 324 327 325 326 326 327 329 330 329 327 327 325 325 324 323 323 322 320 317 317 316 316 316 317 317 324 328 327 330 325 322 322 326 326 327 330 329
329 334 332 338 338 337 336 336 334 332 328 325 324 327 327 326 327 327 328 330 329 326 325 324 324 324 324 323 323 321 318 318 317 316 315 315 323 328 328 327 327 325 328 328 326 320 326 326 326
330 332 334 331 330 331 331 331 330 329 327 327 325 325 327 326 327 327 327 330 328 324 322 322 322 324 324 323 322 321 319 319 320 318 317 319 326 326 324 325 326 327 328 327 327 327 324 326 325
330 333 329 330 328 328 329 329 329 328 328 329 326 327 327 326 326 326 327 329 327 323 321 321 322 324 325 324 322 320 320 320 321 319 318 325 323 324 324 325 324 323 324 325 327 327 324 325 326
328 330 330 330 328 328 327 326 325 327 329 328 325 328 328 327 325 326 327 329 327 322 321 320 321 323 325 325 323 320 321 321 322 319 319 320 322 323 323 321 320 320 319 319 321 322 324 325 324
329 330 329 328 327 328 326 328 326 326 327 326 325 327 327 326 326 326 326 328 327 323 322 322 322 323 325 325 323 321 322 322 322 320 320 321 322 323 322 320 317 317 318 318 319 320 323 323 325
328 330 329 328 327 327 327 327 328 328 328 328 327 327 326 328 327 326 326 327 327 324 321 322 322 323 324 325 323 322 322 322 321 318 321 323 323 323 323 320 321 320 318 323 324 327 326 326 327
327 330 328 328 327 326 327 327 327 327 328 327 328 327 327 327 328 327 325 325 326 326 322 322 322 324 325 326 323 323 323 322 318 319 324 324 324 325 325 322 322 319 320 322 324 325 325 325 328
327 327 327 327 327 326 327 327 327 328 328 328 327 327 327 329 328 327 325 325 326 326 324 323 322 324 326 327 323 323 323 322 317 321 325 325 325 325 325 323 324 319 321 323 322 323 322 323 324
327 327 327 327 327 327 327 327 328 327 326 326 327 328 328 328 328 327 325 324 325 327 325 323 323 323 325 327 323 323 323 319 319 324 326 326 326 325 325 325 325 323 320 321 323 323 322 321 323
324 325 326 326 327 327 327 327 327 327 327 327 327 327 326 327 328 326 325 325 324 325 326 324 324 324 326 327 324 324 322 318 324 327 327 328 328 326 326 326 325 325 324 321 320 322 320 322 322
324 327 327 326 326 327 324 324 324 324 325 325 325 326 326 326 325 325 326 326 325 325 326 326 324 324 326 326 325 323 319 321 325 326 327 328 329 329 328 327 326 326 326 324 322 321 320 321 322
319 320 321 321 321 321 321 323 324 324 325 325 326 325 324 324 325 325 325 326 325 324 325 325 325 324 325 326 325 322 317 323 325 327 327 328 328 329 329 327 327 327 327 326 322 322 320 320 322
319 320 320 321 321 322 323 324 323 323 323 323 324 324 324 324 323 323 325 325 325 324 324 324 324 324 324 327 323 319 319 323 326 327 328 327 328 328 328 327 327 326 326 324 322 323 321 321 323
320 319 319 320 321 320 321 322 322 322 322 323 323 324 324 323 322 325 325 325 325 325 324 323 324 323 325 324 321 317 322 324 326 328 327 327 328 328 327 327 326 324 324 322 322 323 321 321 322
319 320 321 322 320 318 320 320 321 322 322 323 323 322 322 323 324 325 326 326 326 325 324 324 323 324 324 323 320 318 322 325 327 327 328 327 328 327 328 328 326 323 322 322 322 322 321 321 322
318 319 319 318 317 318 319 320 322 322 322 322 323 323 324 325 324 326 326 326 326 324 324 323 323 323 323 322 318 321 325 326 326 328 327 327 327 327 326 327 325 321 321 322 322 321 321 320 322
317 317 318 318 318 318 319 320 320 322 323 322 322 322 323 323 324 326 326 325 322 322 323 323 323 324 323 319 321 323 325 327 325 324 325 327 327 325 323 324 323 322 321 321 321 320 320 322 321
317 317 317 317 318 318 321 322 322 322 323 323 322 323 324 323 323 325 326 325 322 321 322 323 324 323 320 319 322 324 327 326 323 322 323 325 325 323 323 324 322 321 320 320 319 318 320 320 321
317 317 318 318 320 321 321 322 321 322 322 323 324 322 325 323 323 322 324 324 322 321 323 324 324 320 320 321 324 327 326 326 324 321 323 324 325 322 321 321 320 319 320 320 319 319 319 320 322
317 318 319 320 320 320 320 321 321 322 322 322 324 325 324 323 324 322 324 324 322 323 323 324 321 321 322 323 325 329 328 326 324 322 322 324 325 322 320 319 320 321 320 321 321 320 320 321 322
319 320 319 318 319 320 320 321 322 321 321 322 324 326 324 322 323 323 324 323 323 323 324 322 321 322 323 324 327 328 328 325 325 323 324 324 323 321 320 321 321 323 324 323 323 322 322 322 322
320 319 320 322 322 321 321 321 321 324 323 321 322 324 323 324 324 325 325 323 323 324 323 323 323 322 323 326 328 327 327 325 323 322 322 322 322 320 320 321 321 322 322 323 323 323 323 323 322
318 319 319 318 321 322 324 324 324 325 325 326 325 323 325 326 325 325 325 324 324 324 324 323 324 322 324 328 327 328 328 324 322 321 321 321 321 319 319 321 321 321 321 321 322 322 323 323 321
315 317 318 318 317 318 318 322 325 327 326 326 327 326 326 326 325 325 325 324 324 324 324 325 322 323 324 327 327 327 328 326 324 324 320 320 320 319 318 319 321 322 321 321 322 323 323 323 322
314 317 318 319 318 318 318 319 325 328 328 328 327 326 326 327 326 325 325 325 325 325 324 323 322 325 325 326 327 326 328 326 324 324 324 319 319 319 318 319 322 320 321 322 323 324 324 322 322
316 317 318 317 319 318 323 323 325 327 327 325 325 325 326 327 326 325 326 325 325 324 324 321 323 324 324 325 326 326 326 326 325 324 324 322 318 318 318 318 318 319 322 322 325 327 327 328 327

GFSSGP_850_thetae_006.txt.gz
Theta_e
311 312 321 329 333 330 333 336 336 338 337 332 331 331 332 330 332 333 330 329 332 332 332 331 327 323 321 321 320 319 319 318 316 316 316 314 314 312 309 309 309 316 316 314 317 321 323 321 318
312 315 325 331 331 334 338 339 340 336 335 333 332 331 331 331 330 330 333 330 331 330 331 328 325 323 321 320 320 320 319 318 316 316 315 315 314 313 311 312 316 315 315 313 314 322 326 327 326
316 324 332 333 337 340 340 338 337 335 332 328 332 329 330 330 331 332 334 329 330 328 327 326 325 322 323 321 320 320 320 318 316 316 316 316 315 315 316 320 323 324 321 319 316 326 329 327 328
324 329 331 336 341 341 342 337 336 336 331 329 329 330 329 329 330 333 328 330 330 327 325 326 324 323 323 322 320 320 319 317 316 316 316 316 316 316 323 326 327 327 330 324 322 321 331 331 331
329 333 332 334 335 337 339 339 338 336 332 330 329 331 330 330 328 326 328 329 331 327 325 325 324 322 323 322 322 321 319 319 319 317 317 316 317 323 331 330 329 328 328 327 330 329 325 321 325
332 331 332 330 331 332 333 332 332 333 331 330 330 330 331 329 329 330 333 335 334 333 326 326 323 322 323 323 322 322 321 320 319 320 317 317 321 332 331 328 327 327 328 330 330 329 329 326 325
331 332 330 329 330 331 330 330 331 331 331 331 330 331 330 330 330 330 332 334 335 333 332 326 323 322 324 324 324 323 322 321 320 321 319 317 327 328 323 323 324 324 324 324 324 327 327 328 326
328 330 332 331 332 330 330 329 329 330 331 330 329 330 331 330 330 330 333 334 335 335 333 333 326 323 323 324 325 324 323 321 320 322 321 318 320 322 323 323 323 321 320 320 320 322 326 327 325
328 331 331 331 331 331 330 330 330 329 329 330 329 328 329 328 329 331 333 333 334 334 335 333 335 337 328 335 331 325 324 322 321 322 321 319 325 331 331 329 322 320 317 317 318 319 320 320 321
330 332 332 331 331 331 330 330 330 330 330 330 329 329 329 329 329 330 331 331 334 334 334 334 337 337 337 335 338 328 327 326 329 332 332 324 331 332 328 325 321 319 321 319 322 325 326 328 329
329 332 331 331 330 330 330 330 329 329 331 329 330 329 329 328 328 330 331 330 330 333 334 335 336 333 337 336 338 338 335 335 335 332 326 329 332 332 331 331 330 330 329 327 327 329 329 329 328
330 330 330 330 330 330 330 329 329 329 329 329 328 328 328 328 328 330 331 330 330 331 333 335 335 324 325 336 337 336 335 335 334 333 322 325 332 333 332 331 330 331 329 328 328 329 330 329 329
328 329 329 329 329 329 329 329 330 329 328 328 328 328 328 328 328 328 330 330 330 331 332 335 336 327 324 329 338 335 334 333 332 330 330 328 332 333 333 332 332 331 331 328 328 329 329 329 330
324 325 326 327 328 328 330 329 329 328 328 327 328 327 327 326 327 328 329 329 330 328 332 335 337 332 324 326 332 328 328 331 326 329 331 329 329 332 333 332 331 329 330 330 329 328 329 327 328
324 326 326 326 327 328 327 329 329 327 327 327 326 326 326 326 327 328 328 329 330 330 332 335 337 332 324 325 327 328 328 326 329 330 329 326 328 332 331 329 328 327 327 328 326 327 327 327 327
325 327 328 328 328 328 328 329 328 327 326 326 326 325 325 325 325 327 328 329 329 325 330 332 334 332 327 325 327 330 330 328 330 331 332 332 330 330 329 328 329 328 327 327 327 328 327 327 326
324 326 328 328 328 326 326 328 328 326 326 326 325 325 324 325 324 326 327 328 327 326 325 325 325 328 327 326 328 330 327 327 330 331 331 333 332 331 329 328 328 327 327 326 327 327 327 327 327
324 325 325 326 327 326 325 326 327 326 326 325 324 324 324 325 324 324 326 329 329 325 325 324 324 324 326 330 331 332 331 330 331 331 332 333 333 331 328 327 327 327 326 325 327 326 326 327 327
323 325 326 326 326 325 326 326 326 326 325 324 324 324 324 325 325 327 329 327 326 326 324 324 323 323 324 328 332 331 330 330 330 331 333 332 333 329 328 328 328 327 325 324 323 324 325 326 326
322 323 325 325 325 325 325 325 325 325 325 324 324 323 324 326 325 328 330 328 324 325 324 324 324 323 326 332 329 330 330 330 330 332 333 332 331 329 328 327 326 326 325 324 324 324 325 325 325
320 322 323 323 324 324 323 323 323 324 323 322 323 324 326 325 324 328 331 329 326 325 325 327 333 330 332 330 330 330 328 329 330 331 331 332 330 329 327 326 325 325 323 322 322 322 324 325 326
321 320 320 321 322 323 323 324 324 324 325 325 324 324 325 325 325 329 331 330 330 327 326 333 331 331 326 324 330 329 328 329 330 329 330 330 329 329 328 326 326 323 323 323 323 324 324 324 325
320 319 320 320 321 322 322 322 323 324 325 325 326 325 326 324 328 329 332 331 331 331 333 333 330 325 324 328 330 327 330 330 330 329 328 330 328 326 327 326 326 326 326 324 325 325 325 326 325
319 319 320 320 321 322 322 323 324 325 326 326 326 324 325 327 330 331 331 331 331 332 333 332 329 330 328 326 330 331 332 331 329 329 329 330 327 327 327 326 326 326 325 326 325 325 325 325 325
318 320 322 323 323 323 322 322 323 326 326 325 325 327 329 331 331 330 331 331 331 332 332 332 332 332 330 330 331 332 333 330 330 329 329 329 327 326 325 326 325 324 324 326 327 325 327 326 324
319 321 321 322 322 323 323 324 325 324 325 325 325 323 327 331 331 331 331 331 331 331 331 330 332 331 330 330 332 332 331 329 329 326 328 328 327 325 325 323 326 325 327 327 324 323 326 326 326
320 323 322 320 322 324 324 324 326 327 328 327 327 328 329 332 332 331 331 331 331 331 331 331 331 330 329 330 332 332 331 329 327 322 324 327 327 325 326 326 327 327 327 324 324 327 326 326 326
321 321 321 321 322 322 321 322 324 327 327 327 327 329 331 332 331 331 331 331 331 331 331 331 330 328 329 331 331 332 331 329 325 325 326 327 326 325 325 326 327 327 327 327 326 325 327 327 328
320 322 322 322 321 322 322 321 325 325 326 330 331 331 332 331 331 330 331 331 331 332 331 331 328 328 329 330 331 332 331 330 328 329 327 326 325 325 325 325 327 327 328 327 325 327 328 330 328
319 320 322 321 322 320 320 323 326 328 329 330 330 331 332 331 330 330 330 331 331 331 331 328 328 327 328 330 331 331 331 330 326 329 328 325 326 325 325 326 326 326 328 329 329 329 328 329 328

GFSSGP_850_thetae_009.txt.gz
Theta_e
314 312 324 327 333 331 334 335 336 337 338 335 333 333 334 332 332 333 336 338 337 337 331 330 328 323 321 320 320 320 318 318 316 315 315 314 314 314 313 310 309 309 314 316 314 316 321 322 320
318 321 326 331 332 335 335 336 339 339 336 335 333 333 333 334 332 331 335 336 337 336 330 330 328 323 321 321 320 319 318 317 316 315 315 315 314 314 314 313 312 315 316 315 314 313 326 331 328
321 323 330 334 336 336 339 340 339 337 335 331 332 332 331 331 332 332 337 337 337 335 329 329 326 322 321 321 320 319 318 317 316 316 316 316 316 315 315 317 319 321 323 321 321 318 325 330 331
321 325 330 337 338 337 338 340 337 337 335 331 331 332 331 331 331 333 336 338 336 334 328 326 326 322 321 321 320 319 319 318 317 316 316 316 316 316 316 323 326 327 326 329 331 327 321 331 332
325 329 333 334 334 335 337 338 339 338 335 332 331 332 332 333 332 332 336 338 337 336 337 331 325 324 322 322 321 320 320 319 319 320 318 317 316 317 324 332 330 330 329 328 328 330 330 330 325
329 330 336 334 332 332 334 334 334 335 334 332 332 332 331 332 332 332 334 336 335 336 336 337 324 324 323 323 322 321 321 321 320 320 321 318 317 320 332 332 332 329 327 328 329 332 332 332 329
329 333 334 333 332 331 332 332 332 332 333 332 332 332 330 332 333 331 332 334 335 335 335 336 329 323 323 323 323 322 322 321 321 320 320 321 317 318 329 325 323 323 324 324 324 324 324 329 329
327 331 332 333 333 332 331 331 331 331 331 331 331 332 332 331 331 330 330 332 333 335 335 336 339 328 323 323 323 323 323 323 322 321 320 322 319 320 324 327 326 326 324 321 319 319 320 322 325
326 331 333 333 333 332 331 332 331 331 331 331 331 331 331 331 331 330 330 331 333 333 335 335 335 340 334 334 329 324 324 324 323 322 321 322 324 333 333 335 332 329 323 318 318 317 318 318 319
327 332 333 332 333 333 332 332 331 332 332 332 331 331 331 331 331 330 329 330 331 333 334 335 336 338 342 337 337 335 325 324 324 323 328 332 333 334 334 333 331 329 322 321 321 320 323 324 330
328 331 332 333 332 332 333 332 331 332 333 331 331 331 330 330 330 330 329 329 331 331 333 335 336 336 340 339 337 343 342 339 336 336 336 336 334 334 335 334 334 332 333 331 330 330 330 330 330
331 330 331 331 331 331 332 331 332 332 332 331 330 330 330 330 330 330 329 329 331 332 332 335 337 338 338 338 336 339 341 339 338 338 339 336 334 335 335 333 333 332 332 332 330 329 328 329 329
329 329 329 329 330 330 331 331 332 332 331 331 331 330 330 330 329 328 328 329 330 333 332 333 337 337 339 335 337 339 339 337 338 337 336 335 334 335 334 334 333 332 332 332 330 329 329 329 328
328 328 328 328 328 330 331 331 330 331 330 330 330 330 330 329 328 328 328 330 330 332 333 333 336 338 337 340 337 338 338 337 337 335 333 335 335 335 334 334 333 333 332 332 332 330 329 329 329
327 329 329 329 328 329 328 331 331 330 330 329 329 329 329 328 327 328 327 329 330 331 333 334 335 338 337 337 335 340 338 336 336 334 333 335 336 335 334 334 334 330 330 328 328 329 330 330 329
327 329 330 329 329 328 328 330 330 329 329 329 330 329 328 328 327 327 327 328 330 331 333 335 337 339 338 339 340 340 338 337 333 333 334 336 336 335 335 334 331 329 329 329 328 328 330 330 327
327 329 330 329 329 330 330 331 331 329 328 329 329 329 328 328 327 327 327 328 328 329 330 336 337 339 341 342 343 341 338 336 333 333 334 334 335 335 334 336 332 329 329 329 328 326 327 329 329
325 328 328 328 329 329 329 330 330 329 327 327 328 328 328 327 327 326 327 328 326 330 334 337 337 339 341 345 344 341 337 335 333 334 333 333 335 333 334 335 330 329 329 328 326 326 327 328 327
324 326 327 328 328 328 328 328 329 329 327 327 327 328 328 327 326 327 327 328 329 334 336 339 337 337 343 345 343 339 336 335 334 333 333 335 335 333 334 332 330 329 329 328 327 325 325 325 327
322 324 326 327 328 328 329 329 329 329 329 327 327 327 326 326 326 327 327 329 336 336 338 338 335 335 341 344 340 336 334 334 333 333 334 335 334 334 333 333 329 328 327 327 328 325 324 323 326
322 324 325 326 327 327 327 328 328 328 327 325 325 325 325 325 326 326 328 329 337 337 338 338 339 341 343 340 336 334 334 334 334 332 333 334 333 333 333 331 330 328 327 328 326 325 326 325 324
322 323 324 325 326 327 326 330 328 327 327 327 326 326 326 327 327 328 327 336 337 338 339 340 341 343 339 334 334 334 334 331 331 333 331 332 332 331 330 328 328 327 328 326 324 325 324 325 326
321 322 324 324 324 325 325 326 326 327 327 327 327 326 326 326 327 327 328 337 337 338 339 342 342 338 335 335 334 333 331 332 332 330 331 331 331 329 329 327 328 328 326 324 323 324 324 324 324
320 321 323 324 324 326 326 326 327 326 327 327 329 327 327 327 328 328 336 337 337 338 340 340 338 337 336 335 334 332 333 332 330 331 331 331 330 329 328 329 328 328 328 327 327 328 325 325 326
321 323 324 326 327 328 326 325 326 327 326 327 327 326 328 330 332 334 336 336 337 338 338 338 337 336 335 334 333 334 334 333 332 331 331 331 329 328 328 328 328 328 325 328 328 328 328 326 324
321 323 324 327 328 327 326 326 326 327 327 326 326 326 332 334 334 334 335 335 336 337 337 336 336 335 334 333 334 333 333 332 331 330 330 330 329 327 326 328 327 326 327 328 328 328 328 328 327
321 324 323 326 327 327 326 327 327 327 328 328 328 328 327 334 335 335 335 335 335 336 335 336 335 334 333 333 333 333 333 331 331 328 324 329 327 328 328 328 329 327 329 329 329 327 328 327 326
321 322 324 326 328 327 327 326 325 327 327 328 329 330 333 335 335 335 335 335 335 334 335 335 334 333 332 333 332 332 332 332 332 330 330 329 329 327 327 328 328 329 329 329 327 324 325 323 327
321 322 323 325 326 327 326 326 326 327 327 329 328 330 335 335 335 335 334 335 334 334 335 334 332 331 332 332 331 331 331 332 332 331 330 328 328 327 327 327 327 328 329 330 329 326 328 329 326
321 323 324 326 327 325 325 326 328 328 329 331 332 334 335 334 334 334 334 334 334 334 334 332 331 330 331 330 331 331 331 332 332 331 330 328 327 326 326 327 327 328 328 328 329 329 328 328 328

GFSSGP_850_thetae_012.txt.gz
Theta_e
322 313 324 327 329 329 333 334 335 338 336 336 334 334 333 332 333 334 338 337 335 328 329 331 329 323 319 319 319 319 317 315 315 314 315 315 315 315 315 313 310 309 310 315 315 313 314 318 320
317 318 325 328 332 334 334 334 334 338 337 334 332 333 333 333 332 338 340 338 336 330 329 331 328 322 319 320 319 318 317 316 315 315 315 316 316 316 316 316 314 311 314 316 315 314 316 325 327
321 321 326 331 334 336 336 338 338 338 337 333 332 332 331 332 332 336 338 338 337 332 329 330 328 322 320 320 320 319 317 317 316 316 316 316 316 316 317 317 319 321 321 321 322 320 318 327 331
322 323 325 335 338 335 335 340 339 338 337 334 332 331 332 332 333 334 336 338 337 335 330 330 329 322 320 320 320 319 318 318 318 318 317 317 316 316 316 319 324 327 328 326 329 333 331 322 330
326 325 329 330 332 334 334 337 337 339 339 336 333 332 333 333 333 333 336 337 337 338 341 332 329 322 321 321 320 319 319 319 320 320 320 319 317 317 319 327 330 330 330 330 331 329 329 331 328
324 325 330 333 334 333 333 332 334 334 333 334 333 332 333 333 333 332 333 336 337 337 337 335 330 326 322 321 321 320 320 320 320 321 321 321 320 317 318 327 333 330 328 324 324 327 329 332 333
324 328 332 332 333 333 333 332 333 332 332 332 333 333 332 334 333 332 332 331 334 336 337 335 335 326 325 323 322 321 321 321 321 321 321 321 322 320 317 319 323 323 323 323 323 323 323 324 325
322 326 330 332 334 333 333 331 332 332 332 331 332 332 333 331 331 331 331 331 331 333 336 337 335 334 325 324 323 322 322 321 321 322 321 321 321 322 320 329 333 332 331 327 323 318 317 319 321
324 326 330 332 332 332 332 332 331 332 332 332 331 332 331 331 331 332 331 331 330 331 334 336 337 337 336 323 323 322 322 322 322 323 322 322 322 322 325 333 335 334 331 328 321 318 318 317 318
328 328 328 330 331 332 332 332 332 333 333 333 333 333 332 331 331 331 331 330 330 329 331 336 336 336 336 334 323 323 323 323 323 323 323 322 323 326 330 335 332 331 332 332 330 328 326 322 320
328 329 328 329 331 332 332 333 333 333 334 333 333 333 332 331 331 331 330 330 329 329 331 333 336 336 335 338 337 335 332 329 324 324 324 323 328 332 333 336 335 335 332 331 331 330 330 330 330
328 328 329 329 330 330 332 332 332 331 332 332 331 333 332 331 331 331 330 330 329 329 330 333 335 336 336 337 339 337 337 338 335 327 328 332 332 329 331 334 332 333 333 332 332 330 331 331 331
328 328 328 329 330 330 331 331 331 331 331 331 330 332 332 331 331 331 330 330 329 329 330 332 336 336 336 336 339 338 338 342 339 336 338 337 334 331 334 335 335 333 333 332 332 330 330 330 329
328 328 328 328 329 329 329 330 329 329 330 330 331 331 331 331 331 331 330 329 328 330 331 332 334 336 336 337 337 338 339 341 339 338 338 337 334 332 333 335 334 333 332 331 331 332 331 329 329
325 328 329 329 329 330 329 331 331 329 329 329 330 330 331 331 330 330 329 329 328 327 330 332 333 336 336 336 337 338 337 339 338 338 337 335 333 334 331 333 334 334 334 330 330 329 329 328 329
324 326 328 328 329 329 329 330 331 330 329 330 330 330 331 330 331 330 329 328 328 328 328 332 333 335 336 336 337 337 342 339 339 337 336 333 333 333 330 333 333 333 332 329 329 329 328 328 328
324 327 327 329 328 329 330 331 330 330 329 330 330 331 330 329 330 330 329 328 328 328 328 330 332 335 338 338 339 338 342 341 338 336 334 334 335 335 334 334 332 335 333 329 329 330 329 328 327
323 324 326 329 328 329 329 330 331 330 330 331 331 331 329 329 329 330 328 328 327 328 328 327 330 335 340 339 341 340 342 340 338 334 333 335 334 335 334 333 332 333 331 330 330 330 328 327 328
322 324 324 326 327 328 330 330 330 331 330 330 330 330 329 328 329 328 328 327 327 328 330 331 333 337 340 342 342 344 343 340 336 334 334 334 334 335 333 332 333 332 331 330 330 329 328 327 328
320 322 323 325 325 327 328 329 330 331 331 330 330 330 329 328 327 328 328 327 327 332 332 335 336 338 340 342 343 345 342 338 336 334 334 334 335 335 334 333 330 331 330 328 327 327 327 325 324
320 321 322 323 324 326 328 329 331 330 330 329 329 328 327 327 326 326 326 326 331 333 334 335 338 340 342 343 344 343 339 336 335 334 335 335 333 332 332 331 330 329 328 327 328 327 325 324 323
321 320 321 322 324 327 327 331 333 330 330 331 329 328 328 329 328 328 328 327 335 336 337 338 339 341 344 344 342 340 335 335 335 333 333 335 334 333 329 329 329 327 327 328 324 323 323 324 324
320 320 321 322 324 326 325 328 328 328 328 329 330 329 328 327 327 327 327 334 336 338 338 340 340 340 342 342 338 335 334 334 334 333 331 330 329 330 329 329 326 326 325 324 325 324 324 323 324
320 320 321 322 324 327 327 327 328 329 328 329 330 328 328 328 327 328 333 337 339 340 340 342 342 343 341 336 335 334 333 333 332 331 332 333 333 330 328 328 327 327 325 325 326 326 324 324 323
319 323 324 323 325 327 326 327 329 329 328 328 328 327 327 331 335 337 338 339 339 341 344 342 340 338 335 335 333 336 333 333 333 332 331 331 329 329 326 328 326 327 326 324 327 326 326 324 324
319 323 323 323 324 325 325 328 328 330 329 328 327 327 330 332 335 338 338 339 340 342 341 339 338 336 336 335 335 335 332 325 333 329 333 330 328 329 327 327 326 324 324 325 326 325 325 326 324
319 320 322 325 325 326 328 328 329 330 328 329 328 327 335 334 336 337 338 339 340 340 339 339 337 336 335 335 335 334 333 333 332 330 323 328 329 327 327 327 325 325 327 328 327 326 327 326 325
319 320 322 324 326 330 328 329 328 329 329 328 329 331 336 337 336 337 337 339 339 338 338 337 336 335 334 334 333 333 332 333 331 326 330 329 328 328 327 327 326 327 328 329 327 324 324 323 324
319 320 321 326 326 328 331 328 328 327 326 329 330 334 337 337 337 337 337 338 337 337 337 336 335 334 333 333 333 331 330 331 330 331 330 329 327 328 327 328 328 328 328 329 326 325 325 328 327
319 320 322 325 327 326 329 329 332 330 328 330 335 337 337 337 337 337 337 336 336 337 336 335 334 333 333 332 331 330 331 331 330 330 329 329 327 327 327 327 327 328 328 328 327 329 328 329 328

GFSSGP_850_thetae_015.txt.gz
Theta_e
319 313 323 326 324 325 327 330 329 337 337 335 332 333 332 335 334 338 338 336 335 329 328 329 329 324 319 320 320 318 317 317 317 316 316 315 315 315 314 314 313 310 309 311 313 313 313 314 317
320 323 324 327 326 330 329 329 337 336 336 334 333 332 331 336 339 339 337 335 333 330 328 330 329 323 319 320 320 318 317 318 318 318 317 316 316 316 316 316 317 315 313 313 315 315 313 315 320
318 319 321 323 328 332 331 331 336 337 337 335 335 332 331 332 339 338 338 336 332 333 331 329 327 323 319 320 320 318 318 318 318 318 318 317 316 316 316 317 319 323 323 322 323 322 320 319 329
320 323 322 326 333 333 332 333 338 338 337 336 336 331 332 332 334 337 338 337 333 333 333 330 328 323 320 320 320 319 318 318 319 319 319 318 317 317 316 319 323 328 329 329 327 331 333 332 323
325 326 321 325 328 332 331 331 338 337 338 337 336 333 333 332 332 332 333 335 336 335 333 329 329 325 320 320 320 319 318 319 319 320 321 321 319 318 317 318 324 327 329 331 331 331 330 329 330
323 323 323 326 329 330 331 332 334 336 337 336 332 333 333 332 332 332 332 332 336 337 336 335 328 328 321 320 321 320 319 319 320 321 321 321 322 321 318 317 319 325 325 324 324 323 323 327 330
324 319 323 325 328 330 331 332 329 330 330 331 332 332 333 333 332 332 331 332 336 337 336 336 333 327 324 321 321 320 320 320 320 321 321 322 322 322 322 319 324 329 328 327 326 323 322 322 323
324 319 322 323 328 329 330 330 331 331 331 332 331 331 331 333 332 331 331 331 330 335 336 336 336 334 326 323 321 321 321 320 320 321 321 322 322 322 322 321 324 329 329 329 329 325 319 317 317
326 319 320 323 326 328 330 330 331 332 332 332 333 333 332 332 332 331 331 331 331 331 335 336 336 335 333 324 321 321 321 321 321 321 321 322 322 322 322 322 323 328 330 331 331 329 322 320 317
333 325 322 322 323 325 329 329 330 331 332 332 333 333 332 333 332 331 331 330 330 330 332 335 336 336 335 333 328 322 321 322 321 321 322 322 322 322 323 323 325 330 332 332 331 330 328 329 323
329 332 328 326 325 326 328 329 330 331 331 332 331 332 332 331 332 331 331 331 330 330 330 333 336 336 336 336 335 331 323 321 322 322 322 323 323 323 325 323 327 332 334 333 332 330 330 330 328
325 326 328 328 327 326 326 328 329 330 330 330 330 330 330 331 331 331 331 331 330 330 330 329 335 336 336 336 335 335 333 326 321 322 323 323 323 324 326 324 328 333 333 333 332 330 331 330 329
326 326 326 326 327 327 328 328 328 329 330 330 329 329 329 330 331 331 331 331 330 330 330 328 330 335 336 336 336 335 335 333 329 332 333 328 324 327 329 327 332 334 333 333 332 332 331 330 330
318 325 327 327 327 327 327 328 328 328 328 328 328 328 328 329 330 331 331 331 330 330 329 329 330 333 335 336 336 335 336 335 334 337 337 331 335 336 331 331 334 336 335 333 333 332 332 331 329
318 319 320 323 326 326 327 327 327 328 329 329 329 329 329 329 328 329 330 330 330 330 329 328 329 333 335 336 336 336 337 336 336 339 339 337 338 337 333 332 334 334 333 332 333 330 331 331 331
319 319 319 320 321 324 326 327 326 327 327 328 328 328 329 329 329 329 330 331 330 330 328 328 328 330 333 336 336 337 338 337 338 341 339 338 337 335 332 332 331 332 333 333 333 329 329 329 329
317 320 319 320 322 323 324 326 326 327 327 328 328 328 328 328 329 329 329 329 330 329 328 328 328 328 331 335 337 339 339 339 341 340 339 337 335 333 334 334 332 333 332 333 333 329 329 329 329
318 320 320 321 322 323 324 324 325 326 326 327 328 328 329 329 329 330 329 328 329 329 328 327 329 328 329 333 338 339 338 340 340 339 337 335 333 334 334 333 334 333 332 333 331 330 329 329 329
318 319 320 320 322 323 323 324 325 325 326 326 326 328 329 330 330 329 328 329 329 329 327 327 329 328 330 333 339 341 339 340 341 339 335 333 335 334 335 335 334 332 331 331 330 330 330 328 327
317 317 318 319 321 321 322 323 324 324 324 326 328 329 329 329 328 327 327 327 327 328 328 327 331 329 331 334 339 341 341 341 341 338 334 334 334 334 334 333 332 333 330 329 328 328 327 327 326
317 317 317 318 319 320 319 321 322 323 324 327 327 328 328 328 328 327 327 326 326 327 329 330 332 333 335 337 344 344 343 342 341 337 334 334 334 334 334 333 331 329 329 327 327 327 326 325 324
316 318 318 319 319 319 320 321 322 323 325 325 327 327 328 328 328 328 328 327 326 329 331 333 335 337 341 345 345 343 343 341 336 335 334 334 334 334 333 333 328 327 326 326 326 324 323 324 323
316 318 318 319 318 318 320 321 322 324 324 324 324 326 326 326 326 326 328 328 329 332 335 337 339 344 346 345 342 342 341 337 336 335 334 334 335 333 330 327 326 325 324 324 323 323 323 323 323
315 316 317 318 318 318 319 321 322 322 324 325 324 325 326 330 328 328 329 332 335 337 337 337 338 342 344 343 342 340 336 335 335 334 331 330 330 331 329 327 326 326 326 324 325 325 325 324 322
312 313 315 318 318 319 318 320 322 322 324 324 324 325 332 332 332 334 335 337 338 338 338 339 339 343 344 341 337 335 334 335 333 333 331 328 330 327 326 327 326 326 325 324 325 324 325 325 325
309 313 315 318 320 319 319 321 321 322 323 326 326 326 336 336 337 339 339 340 340 340 341 342 342 340 337 336 335 334 334 332 331 328 330 332 329 328 324 324 326 324 324 324 324 324 325 325 323
310 310 315 316 318 320 320 320 320 321 323 325 325 328 338 339 339 339 339 340 342 342 341 340 339 337 335 334 334 335 330 327 330 331 329 329 328 327 324 325 324 325 326 327 327 325 325 325 324
312 313 315 315 317 320 322 321 324 325 324 325 325 332 337 338 338 339 341 341 341 339 338 337 335 335 334 334 333 331 334 332 332 327 327 327 327 327 325 326 325 326 326 327 328 325 323 322 322
314 311 312 315 316 319 321 323 324 327 325 324 323 335 336 338 338 339 340 340 339 339 337 335 334 334 334 334 332 329 329 329 328 328 330 328 328 328 325 325 326 328 327 328 326 326 324 325 325
314 315 313 315 318 319 320 323 323 327 324 330 331 335 337 337 338 339 339 338 338 337 337 335 334 334 334 332 333 330 330 329 330 329 328 329 326 326 328 326 327 327 328 327 328 327 327 326 326

GFSSGP_850_thetae_018.txt.gz
Theta_e
319 313 313 325 323 322 324 326 326 331 335 335 331 332 333 333 334 336 337 338 335 328 327 328 325 323 320 320 321 321 320 319 319 319 318 317 316 315 315 315 317 315 310 310 312 312 312 313 314
318 318 324 327 324 328 328 325 329 335 336 337 335 334 334 338 337 337 337 338 337 329 328 328 326 323 320 320 321 321 320 319 319 319 319 319 318 317 315 316 318 322 320 317 314 315 314 312 313
318 320 322 322 326 329 329 331 334 337 337 336 335 335 335 338 337 336 336 334 334 331 328 328 328 324 320 320 321 320 319 319 319 319 319 319 319 318 316 316 318 322 324 325 324 325 320 319 324
318 321 324 322 328 328 330 331 332 336 336 336 335 335 333 338 338 338 334 332 331 331 331 328 329 326 320 320 321 320 319 320 320 320 320 320 320 320 319 317 317 321 324 327 327 328 330 332 331
322 326 319 322 325 327 329 330 329 336 336 336 335 335 333 334 334 332 332 332 332 333 333 331 329 328 322 320 321 321 320 320 320 320 321 321 322 321 321 318 317 320 323 327 330 331 332 330 330
324 321 320 322 323 326 327 329 329 335 337 336 335 335 332 333 332 332 332 331 330 332 334 334 329 329 325 320 321 321 320 320 320 321 321 322 322 322 322 320 319 320 323 323 323 323 323 323 325
322 318 320 323 325 327 328 329 329 330 332 335 334 334 333 333 332 332 331 331 332 333 336 336 334 329 327 322 320 321 321 320 320 321 321 322 322 322 322 322 320 322 323 325 325 325 324 322 321
323 317 320 320 324 326 328 328 329 329 330 331 331 330 332 332 332 333 332 331 331 335 336 336 336 332 328 324 320 321 321 321 321 320 321 321 322 322 322 322 321 323 324 327 328 328 325 319 317
326 317 318 320 323 324 325 325 330 330 330 331 332 332 332 331 332 331 332 330 332 335 334 335 336 335 331 327 323 320 321 321 321 321 321 321 321 321 322 322 322 323 325 329 329 329 327 325 322
331 320 319 319 322 322 322 323 324 326 328 330 331 331 331 331 331 331 331 330 330 330 332 333 336 336 335 330 325 322 321 321 321 321 321 321 321 321 322 321 323 326 327 330 331 330 329 328 328
331 333 328 326 326 324 323 324 325 326 326 329 330 330 330 330 330 331 331 332 331 330 330 332 333 335 336 334 330 324 322 321 321 321 321 321 321 322 322 322 324 327 328 331 331 331 330 329 329
327 328 331 332 331 327 325 326 325 326 326 328 328 329 330 329 328 329 331 331 331 331 330 330 330 333 335 335 334 331 325 323 322 321 321 321 321 322 323 323 325 327 330 332 332 332 330 330 329
318 325 327 325 326 327 327 326 326 326 327 328 328 329 328 328 328 328 328 330 331 331 330 330 330 330 332 335 335 335 334 328 326 325 322 322 322 322 323 324 326 328 332 332 332 331 331 330 330
315 316 318 322 325 325 325 325 326 327 327 328 327 327 328 328 329 328 329 328 328 329 330 330 330 329 331 334 335 335 336 335 330 329 324 322 323 324 324 328 329 330 334 335 334 333 332 332 331
316 315 316 317 318 320 325 325 325 326 327 326 327 327 327 327 327 327 328 328 328 329 330 330 330 329 331 334 335 335 336 335 335 334 331 332 336 333 332 334 331 331 335 335 334 334 333 331 331
316 315 316 317 318 319 320 321 324 326 327 326 327 327 327 327 327 328 328 328 328 328 330 330 330 329 328 331 332 334 335 336 336 336 336 337 338 336 336 335 332 333 333 333 333 333 334 331 330
315 318 317 318 318 319 320 322 323 325 326 324 325 325 326 326 327 328 328 328 328 328 329 329 328 327 328 328 330 332 334 336 337 338 337 340 338 337 336 333 333 333 330 331 331 332 333 330 329
316 317 318 318 319 319 320 320 321 322 323 323 324 324 325 326 327 327 328 329 329 329 329 329 328 327 328 330 331 335 337 338 339 339 341 340 338 337 335 333 334 332 333 333 332 331 330 329 328
316 317 318 318 318 319 320 321 321 322 323 323 324 324 325 325 326 328 328 329 329 329 329 329 328 327 329 330 331 336 339 341 340 342 341 339 338 335 333 334 334 334 333 332 330 330 328 327 326
313 314 315 316 316 318 319 320 320 321 321 322 323 323 324 326 328 328 328 328 328 328 327 328 327 327 328 329 330 336 339 341 341 340 339 337 334 334 334 334 334 333 330 332 329 327 327 326 326
313 313 314 315 316 317 317 317 317 318 319 320 322 323 325 325 326 326 327 327 327 327 326 326 328 327 328 330 333 339 342 342 341 338 336 335 335 334 334 334 333 332 332 329 328 326 326 326 325
312 313 316 316 317 317 317 318 317 318 318 319 321 324 325 326 326 327 327 326 327 327 326 326 326 328 332 333 335 340 342 342 342 341 340 335 334 334 333 332 332 332 329 325 325 326 323 323 324
311 314 315 316 316 315 316 316 318 318 319 320 320 322 324 324 325 326 326 326 326 327 327 328 331 335 337 339 341 344 343 341 341 340 336 334 334 334 334 333 332 326 325 324 323 322 323 323 323
310 312 314 314 314 316 316 316 317 317 319 320 320 323 324 325 325 326 328 327 327 330 331 336 338 340 344 345 345 344 342 342 338 335 335 334 334 331 329 329 326 325 325 324 323 324 324 323 323
309 307 310 313 315 317 316 316 317 317 318 319 319 321 322 325 331 329 329 332 336 337 338 338 341 345 346 344 343 342 341 338 336 335 334 333 330 328 326 326 326 324 326 324 323 324 324 324 324
306 306 310 313 317 316 316 317 317 317 318 319 321 323 325 334 336 335 336 338 339 338 338 338 341 344 344 343 341 337 335 334 334 332 331 330 329 328 325 326 325 325 323 323 324 325 324 324 324
309 308 308 310 313 315 316 317 317 317 318 318 319 325 335 337 338 338 339 339 339 339 339 340 342 343 341 338 335 334 334 333 332 329 327 329 329 326 325 323 325 323 325 326 327 326 324 325 325
310 310 309 309 313 315 317 318 318 320 320 319 318 331 336 339 339 340 340 340 341 341 341 342 341 337 335 334 334 333 331 328 328 330 327 325 326 325 324 324 325 325 327 327 327 325 323 323 323
310 311 309 310 311 315 317 317 317 318 319 319 320 332 337 338 340 340 341 341 340 340 340 338 337 335 334 333 331 328 329 331 331 330 326 327 325 326 325 325 326 328 328 327 327 326 325 324 323
310 311 312 309 311 313 316 317 319 319 318 319 332 335 336 338 340 341 341 339 338 337 336 335 334 333 332 329 328 328 329 329 328 327 329 328 327 326 326 326 326 326 328 327 327 328 326 324 325

GFSSGP_850_thetae_021.txt.gz
Theta_e
320 313 312 325 322 320 323 324 323 329 334 335 332 331 331 332 334 332 332 333 329 330 327 323 323 323 320 319 320 321 320 320 320 319 319 319 318 316 315 315 317 318 316 312 310 311 311 311 312
319 314 324 327 322 325 322 325 327 329 335 335 334 334 335 337 337 335 335 337 331 328 327 327 325 324 322 319 320 321 320 320 320 320 320 319 319 318 316 316 317 319 320 321 318 315 315 313 312
318 320 322 321 323 326 326 328 332 333 333 335 335 334 334 338 337 336 335 336 332 330 328 327 327 327 324 320 321 321 321 320 320 320 320 320 320 320 319 317 317 318 320 322 322 323 323 317 318
318 320 322 321 325 326 327 329 331 330 335 335 335 334 332 337 336 335 332 330 330 331 329 327 327 328 325 320 321 322 321 321 320 320 320 321 321 321 321 320 318 318 320 322 323 324 325 326 327
319 324 318 321 322 325 327 327 327 327 335 335 334 333 333 337 336 336 331 331 331 331 331 330 328 328 326 321 320 321 321 321 321 321 321 321 322 322 322 321 320 319 320 322 323 326 328 329 330
324 321 319 320 321 323 326 328 328 330 335 334 334 334 332 333 333 332 332 331 331 331 331 332 330 328 327 323 320 321 321 320 320 321 321 321 322 322 322 322 321 320 321 322 323 323 323 323 323
320 317 319 321 324 325 327 328 328 328 328 330 335 335 333 333 332 333 333 332 332 332 333 333 332 329 328 326 320 320 321 320 320 320 321 321 322 322 322 322 322 321 321 322 323 326 326 324 323
323 316 319 320 322 323 327 327 328 329 329 330 333 331 332 332 332 332 333 333 333 332 332 334 333 332 329 327 323 320 321 320 320 320 320 321 322 322 322 322 322 321 322 323 325 327 328 324 320
324 317 317 320 321 323 324 328 329 330 330 329 329 329 332 331 332 332 333 334 334 333 334 335 336 335 333 329 327 321 320 320 320 319 319 320 321 322 322 322 322 322 324 325 326 328 328 327 325
328 318 317 317 319 321 321 325 330 330 330 328 326 328 330 330 330 331 331 332 332 332 332 334 336 335 335 333 329 324 321 320 320 319 319 320 320 321 321 321 321 323 325 326 329 330 329 328 328
329 331 324 322 321 321 324 324 323 324 325 327 326 327 328 328 329 329 329 330 330 330 330 331 333 334 335 335 333 329 323 321 320 320 319 319 320 320 321 321 322 323 324 325 329 330 330 330 329
328 328 330 330 330 331 330 329 327 325 324 325 325 326 327 328 328 328 328 328 328 328 330 330 330 332 333 335 335 331 329 325 323 321 320 320 320 320 320 321 322 323 325 325 329 329 330 330 329
318 323 326 327 328 327 327 329 328 326 326 326 326 327 327 327 327 327 328 328 328 328 329 330 330 330 331 333 334 334 334 330 327 323 322 321 320 320 320 321 322 323 325 326 329 331 331 331 331
314 316 317 319 320 323 323 324 325 325 325 325 326 326 327 327 327 327 327 327 327 327 328 328 329 329 330 330 332 333 334 334 330 325 324 322 321 321 321 322 323 324 326 329 330 333 333 332 332
314 313 314 315 315 316 319 320 321 323 325 325 325 326 326 326 327 327 327 327 327 327 328 328 328 329 330 329 330 331 332 334 334 331 327 324 322 322 322 323 324 327 329 328 332 334 333 333 332
315 314 316 316 316 316 318 322 323 323 324 325 325 326 326 326 327 327 326 326 326 327 327 327 328 328 329 329 330 330 332 333 334 334 333 328 323 322 322 328 330 332 330 331 333 334 333 332 332
313 315 315 317 316 317 318 321 321 322 322 322 323 324 325 325 325 326 326 326 326 327 327 327 327 328 329 329 330 331 332 333 334 335 335 333 329 330 335 333 335 333 332 332 333 331 331 331 331
315 315 317 317 317 317 317 318 319 320 321 320 321 321 322 322 323 324 325 326 326 327 328 329 328 328 328 329 329 331 332 334 335 335 336 336 336 338 336 336 334 333 333 332 332 332 332 330 328
311 313 315 316 316 317 317 317 318 318 319 320 320 321 321 322 324 324 324 324 326 328 328 329 329 329 329 328 328 331 331 333 336 338 339 338 338 340 337 336 333 334 333 333 333 332 330 329 327
310 311 312 313 314 315 315 315 316 317 318 320 320 321 321 322 323 323 324 327 327 327 328 328 328 328 329 327 328 330 331 334 338 340 340 340 341 339 337 333 333 334 334 332 330 331 329 327 327
309 311 312 313 314 314 314 315 315 315 316 317 318 318 319 320 321 322 323 325 326 326 327 328 327 327 328 328 329 332 335 337 340 341 342 342 339 337 333 333 334 334 332 331 331 329 327 326 326
308 309 312 314 314 314 315 314 314 314 315 316 317 317 319 320 320 322 325 324 325 325 325 326 326 326 327 328 330 334 335 339 341 341 341 339 336 334 334 334 334 333 332 331 328 325 325 324 324
308 310 311 311 311 314 315 314 315 314 315 315 316 317 318 319 320 322 323 324 325 325 325 325 326 327 328 329 334 338 339 341 341 340 338 335 334 334 334 334 333 332 332 325 324 323 322 322 323
308 309 310 310 311 313 314 315 315 315 315 315 316 318 320 322 323 322 322 323 327 327 326 327 327 328 332 336 339 341 341 342 340 339 336 335 334 334 334 334 332 329 325 323 322 322 323 323 324
308 305 308 310 312 314 313 315 315 315 315 315 315 317 319 320 321 322 327 329 328 329 332 335 338 338 341 343 344 344 343 342 341 339 336 334 334 332 330 329 327 325 324 323 323 323 323 325 325
305 305 307 312 314 313 314 315 315 314 315 316 317 317 317 319 322 331 333 333 337 340 341 341 341 341 344 345 344 343 342 341 339 335 334 334 333 329 328 324 324 323 324 323 321 323 324 325 324
309 305 306 306 309 310 313 314 315 316 316 316 315 317 320 326 333 336 336 339 340 340 340 340 342 344 343 342 342 341 340 338 335 334 332 331 328 329 325 323 322 323 323 325 326 327 326 325 324
308 309 307 305 311 313 313 315 316 316 317 317 316 315 322 333 338 339 339 339 338 339 341 342 342 343 342 339 336 335 334 333 333 331 328 326 327 326 325 323 324 325 325 327 327 327 326 324 323
308 309 308 306 307 312 314 314 313 316 315 315 318 317 327 337 340 340 340 340 339 340 341 342 342 339 335 334 334 333 332 330 329 329 327 325 324 322 323 325 325 327 328 328 327 327 326 323 322
309 309 310 307 309 309 312 314 314 316 315 319 320 322 334 338 340 341 341 341 341 341 340 337 336 335 334 333 330 328 327 329 328 329 327 326 325 325 324 325 326 325 327 327 327 328 328 325 324

GFSSGP_850_thetae_024.txt.gz
Theta_e
320 316 313 324 321 320 321 321 321 325 331 333 330 331 334 335 333 333 332 329 329 329 327 323 321 323 323 320 319 320 319 319 319 319 319 319 318 316 316 316 317 317 316 314 312 310 310 310 310
320 313 321 325 319 322 319 322 325 325 333 333 332 333 335 334 335 334 331 330 328 328 327 326 323 324 325 320 320 321 320 320 320 320 319 319 319 318 318 317 317 318 319 319 318 317 316 315 313
319 319 321 322 321 323 321 326 328 330 330 332 332 333 335 336 336 332 331 331 329 328 327 326 326 326 326 321 320 321 320 320 320 320 320 320 320 320 319 319 318 318 319 321 321 321 322 321 317
317 320 321 320 324 324 324 327 328 325 330 335 334 333 332 337 336 332 332 332 331 329 328 327 326 326 326 323 320 321 321 320 320 320 320 320 320 321 321 321 320 319 319 320 322 323 324 324 324
318 321 317 319 321 322 324 326 326 325 329 333 334 333 332 337 335 334 332 332 330 330 330 329 328 327 327 326 320 320 321 321 320 320 320 320 321 321 322 322 321 320 319 319 320 322 325 327 330
322 320 318 318 320 322 322 325 325 327 332 329 333 332 333 334 335 334 331 331 331 331 330 330 328 328 326 327 323 320 321 321 320 320 320 321 321 321 322 322 321 321 320 319 319 321 322 323 324
320 316 319 320 322 323 324 325 325 326 328 328 333 333 333 332 333 333 332 332 332 332 332 331 330 328 326 325 324 321 320 321 320 320 320 320 321 321 322 322 322 321 321 320 320 322 323 324 324
322 316 319 319 321 322 324 325 327 328 328 329 329 328 330 332 332 331 333 333 333 332 331 331 332 332 329 327 324 321 320 320 320 320 320 320 321 321 322 322 322 322 322 321 321 321 323 326 325
322 317 317 319 320 321 323 324 327 329 330 330 330 329 330 330 331 332 332 332 333 332 331 332 332 331 331 328 325 322 320 319 320 319 319 319 320 321 321 322 322 322 322 322 323 323 324 326 327
319 316 317 316 319 320 321 321 323 324 324 329 330 331 330 330 329 330 330 330 331 332 332 332 333 333 333 331 327 325 322 320 320 320 319 319 319 320 321 321 321 321 322 323 324 325 324 326 328
328 326 316 318 318 319 321 322 325 325 324 325 328 329 328 327 328 327 328 328 330 330 331 331 331 331 333 334 333 329 325 323 320 320 320 319 319 319 320 320 321 321 321 323 324 326 324 327 328
327 327 327 325 325 327 328 330 330 329 326 328 328 327 325 326 326 327 328 328 327 327 328 329 329 329 331 333 334 334 331 326 324 321 320 320 319 319 319 320 320 321 322 323 325 327 326 326 329
323 324 328 328 329 329 329 328 329 329 328 327 327 326 326 326 326 327 327 327 327 327 327 326 326 327 329 331 333 334 334 333 328 324 322 320 320 319 319 319 320 321 322 323 326 327 328 329 330
314 316 317 323 325 324 324 324 324 325 326 325 325 325 325 325 326 326 327 327 327 326 327 326 326 326 328 329 330 330 332 334 332 328 325 321 320 319 319 319 320 321 322 325 327 329 330 331 331
313 313 312 313 315 316 320 320 321 322 322 322 323 324 325 326 326 326 327 326 326 327 326 325 326 325 326 327 328 329 331 332 333 332 326 327 324 320 320 320 320 321 322 327 329 331 332 332 332
314 313 314 315 313 315 319 322 322 323 324 323 324 324 324 325 326 326 326 326 326 326 325 325 326 326 326 326 327 328 329 331 332 333 333 330 327 321 320 321 321 322 323 329 331 332 333 332 330
311 314 313 315 314 315 317 320 320 321 322 321 321 322 322 323 324 325 325 325 325 325 325 325 325 326 328 327 327 328 329 329 331 333 334 334 331 325 322 321 322 323 327 333 331 333 333 331 331
313 313 316 316 315 315 315 317 317 319 319 319 320 321 321 321 322 324 324 324 324 324 324 325 326 328 328 328 327 328 329 330 331 332 334 335 335 333 328 323 323 327 334 332 333 332 331 332 331
309 312 313 314 315 314 314 316 316 315 316 316 318 318 319 319 320 321 322 323 323 323 325 327 328 327 327 328 328 329 329 330 330 332 334 336 336 335 330 331 330 334 333 333 333 332 333 331 329
308 309 310 311 312 313 313 313 313 313 313 314 315 317 318 319 320 321 321 322 322 322 323 324 325 327 328 328 328 329 329 329 331 335 337 337 338 336 336 335 335 334 333 334 333 332 331 330 328
308 309 310 311 312 312 313 314 314 314 314 315 315 315 316 317 318 319 320 321 321 321 324 324 325 327 328 328 328 329 330 331 333 336 338 339 339 337 339 337 334 335 334 334 332 332 331 327 326
306 308 310 312 313 313 313 315 314 314 314 313 314 315 315 317 318 319 320 320 321 321 322 324 324 325 327 327 328 329 329 329 331 334 337 340 340 340 337 335 333 333 334 333 332 331 326 325 325
307 308 308 309 308 309 311 312 314 312 312 312 313 314 314 315 316 317 318 318 319 321 323 323 324 324 325 327 328 330 332 335 336 336 340 341 341 337 335 334 334 334 332 331 330 324 323 322 322
307 308 308 309 308 310 309 311 312 311 312 314 313 314 315 316 317 318 320 321 321 322 324 326 326 325 325 327 329 332 335 337 339 340 341 341 336 334 333 334 334 333 332 328 323 322 321 323 323
305 304 307 309 310 310 310 311 311 311 312 313 314 315 317 318 318 319 319 319 325 329 329 328 328 329 331 333 337 339 340 340 340 340 339 337 334 334 333 331 332 330 327 324 322 321 323 323 323
305 304 306 312 311 310 311 313 312 312 312 314 315 316 316 317 318 318 319 328 334 337 336 336 336 336 340 342 343 343 342 341 340 339 337 334 333 332 332 329 327 325 325 323 322 322 324 325 324
307 305 306 305 307 307 310 311 312 313 313 313 312 316 316 317 318 321 332 338 342 340 340 340 340 342 343 343 343 343 342 341 340 336 334 334 334 331 328 325 324 324 323 323 323 325 326 325 325
308 306 306 303 307 311 311 311 312 313 313 313 313 314 320 317 324 334 338 342 342 341 341 342 342 342 342 342 341 341 340 338 335 334 333 332 329 328 325 323 323 323 325 326 327 327 326 325 324
309 307 307 304 305 311 313 312 311 312 314 313 320 329 321 321 336 339 340 340 340 341 342 341 341 341 340 339 339 337 335 334 333 332 329 327 325 324 324 323 325 326 327 327 327 327 327 326 323
307 308 307 307 308 306 307 308 310 311 311 312 314 331 329 332 342 339 340 340 341 342 342 341 340 338 335 334 333 333 332 331 329 328 327 325 323 322 324 325 325 325 326 327 327 327 328 327 325

GFSSGP_850_thetae_027.txt.gz
Theta_e
321 319 312 322 325 325 324 324 323 327 333 331 329 335 339 339 339 341 332 328 327 327 327 323 321 323 322 318 319 320 319 319 319 318 318 318 318 317 317 317 317 317 317 316 314 311 309 309 310
322 315 318 324 323 324 323 324 327 329 333 330 333 333 336 337 335 334 330 328 328 328 327 327 323 322 323 319 319 320 320 319 319 319 319 319 318 318 318 318 318 318 318 318 318 317 316 315 313
322 315 322 327 323 322 323 326 326 331 329 329 334 333 335 337 336 332 329 328 328 328 328 327 324 324 325 322 320 320 320 320 319 319 319 319 319 319 319 319 318 318 318 318 319 320 321 321 318
317 321 320 324 325 325 324 331 330 329 330 331 334 335 332 336 335 330 329 329 329 328 327 327 325 325 325 324 322 320 320 320 319 319 319 319 320 320 320 319 319 318 318 318 319 321 323 323 324
318 320 322 323 322 324 326 326 327 328 329 333 333 335 334 336 335 331 330 330 330 329 328 328 326 325 325 324 324 321 320 320 319 319 319 320 320 320 321 321 321 320 319 319 319 320 322 324 325
321 320 321 319 320 322 324 324 325 328 331 331 333 334 334 336 333 331 331 331 331 330 330 329 327 325 325 325 323 321 320 320 319 319 319 320 320 321 321 321 321 321 320 319 319 320 321 322 323
321 322 320 320 320 322 321 322 325 328 329 331 332 335 334 332 335 334 331 331 332 331 331 330 329 326 324 323 323 322 320 319 319 319 319 320 320 321 321 322 322 322 322 321 319 320 322 323 324
321 322 320 320 320 321 324 326 327 328 330 329 329 331 332 330 333 334 334 332 332 332 332 332 330 327 325 324 323 323 321 319 319 319 319 319 320 321 321 322 322 322 322 322 321 320 321 323 325
322 322 322 320 320 320 323 325 326 326 329 328 329 330 330 330 331 332 332 333 334 333 333 333 332 330 329 328 327 323 322 320 319 318 318 319 319 320 321 321 322 322 322 322 322 322 322 323 326
323 324 322 320 320 321 322 322 324 325 326 326 328 327 327 328 329 329 329 329 329 330 331 332 332 332 332 331 329 327 323 322 320 319 318 318 318 319 320 321 321 322 322 322 323 324 324 324 325
325 324 323 321 319 320 320 320 321 323 327 326 326 326 326 326 327 328 327 328 328 328 329 328 330 333 334 333 332 332 327 323 322 319 318 318 318 318 319 320 321 321 321 322 323 325 326 326 326
324 324 324 322 319 319 319 320 323 324 325 326 327 327 326 326 326 327 326 326 327 328 327 327 327 328 328 332 332 333 333 329 326 323 319 318 318 318 318 319 320 321 321 321 323 326 328 328 327
323 323 325 325 326 324 327 328 328 328 328 328 327 327 326 326 326 325 325 326 327 327 327 327 327 326 326 326 327 329 331 332 332 327 323 320 319 319 318 318 319 320 320 321 322 325 327 329 329
318 319 322 324 327 327 328 327 327 327 327 326 326 326 326 326 326 326 326 326 326 327 327 327 326 326 325 325 325 326 329 330 333 333 331 324 320 319 318 318 318 319 320 320 322 324 327 329 331
314 316 316 317 321 325 325 326 328 325 324 324 324 324 325 325 326 326 326 326 326 326 326 326 325 324 324 325 325 326 327 328 329 332 334 332 326 321 319 318 318 319 320 320 321 328 330 332 331
314 315 317 318 316 317 319 322 323 322 322 323 323 324 324 325 325 325 325 325 325 325 325 324 324 324 325 325 324 325 326 327 328 329 332 333 333 325 320 319 319 319 320 321 322 328 331 332 333
315 316 317 318 318 318 319 322 323 322 323 324 324 324 324 323 323 323 323 322 323 324 324 324 324 324 324 324 325 326 326 326 327 329 331 332 334 333 326 321 320 320 320 321 322 330 332 332 332
314 315 316 317 317 318 319 320 321 321 320 321 321 321 321 321 321 320 320 320 321 321 322 323 323 323 325 326 327 327 327 326 327 329 331 332 332 334 332 328 324 321 321 322 324 332 333 331 331
313 314 316 317 317 318 319 319 320 319 319 319 319 319 319 320 320 320 319 320 320 321 323 323 323 322 325 326 327 327 327 327 327 329 330 332 334 335 335 333 327 323 322 324 331 333 332 331 330
312 313 313 313 314 315 318 318 318 318 318 318 318 318 319 319 319 319 319 319 319 320 321 322 321 322 324 325 325 327 327 328 328 330 331 334 337 337 337 335 328 324 324 330 333 333 332 332 331
312 313 313 313 314 315 316 317 318 318 318 317 317 318 318 318 318 318 318 318 320 320 321 321 321 321 322 325 326 327 328 329 330 332 333 336 337 338 336 332 328 329 332 333 333 332 332 331 330
311 310 312 313 314 316 316 317 318 318 318 318 317 317 317 317 317 317 318 318 319 319 320 320 320 320 322 324 326 327 328 329 330 332 334 336 339 339 337 335 336 335 334 333 333 331 332 330 328
309 310 310 310 312 313 314 315 316 317 317 317 318 317 317 317 317 317 317 316 316 316 317 318 320 322 322 323 324 327 329 331 333 334 335 338 340 339 337 337 335 334 334 332 331 332 330 325 325
308 309 310 311 311 312 313 313 316 316 316 316 317 316 317 317 317 316 317 317 319 320 320 321 323 324 325 324 324 326 329 332 334 336 338 340 339 339 337 336 335 333 333 333 331 327 323 322 323
308 308 309 310 312 313 312 313 315 316 315 316 317 316 316 317 317 317 317 318 319 320 324 328 327 326 324 325 328 330 334 337 337 338 340 341 340 337 335 333 334 334 334 331 326 323 321 322 323
309 309 309 309 310 311 311 313 314 316 317 316 316 317 318 319 320 317 317 318 323 331 331 330 330 330 332 334 336 339 339 339 340 340 341 339 336 334 333 333 334 333 329 325 323 322 322 323 324
310 309 309 310 311 311 311 312 313 314 315 317 319 321 322 328 323 321 321 331 336 337 339 337 338 339 340 340 341 341 341 340 340 339 337 333 332 333 333 332 329 325 324 323 322 321 323 325 325
311 310 310 310 310 311 313 313 314 315 317 318 319 321 325 329 326 328 331 340 341 342 341 342 343 342 342 342 342 340 340 339 337 334 333 333 333 332 329 326 323 323 323 323 324 326 326 327 326
310 311 310 310 310 312 314 315 317 317 317 316 317 318 331 327 333 340 342 343 343 343 342 343 343 342 342 341 340 340 339 335 334 333 333 332 330 328 325 323 323 323 325 327 327 327 327 327 326
309 310 311 312 311 310 311 313 315 315 315 315 315 316 331 333 335 342 342 342 341 342 342 342 341 341 340 340 338 336 335 334 333 332 330 328 325 324 323 324 325 326 326 326 327 327 327 327 327

GFSSGP_850_thetae_033.txt.gz
Theta_e
314 317 324 322 328 326 328 328 331 332 334 334 335 336 339 341 340 345 339 338 337 342 327 326 323 325 323 321 320 320 319 318 318 317 317 317 316 316 317 316 316 316 315 315 314 314 313 312 311
319 326 321 324 327 329 327 330 331 335 336 336 337 337 339 341 340 341 340 339 339 334 327 326 322 324 324 320 320 320 319 319 318 317 317 317 317 317 317 317 317 317 317 317 317 317 318 318 317
330 324 321 325 328 327 330 331 334 335 337 336 336 336 337 340 340 339 336 337 340 328 327 327 324 323 324 321 320 320 319 319 318 318 318 318 318 318 317 317 317 318 318 318 318 318 319 320 320
326 322 322 326 326 327 328 333 333 336 336 336 337 336 338 339 339 339 332 334 340 328 328 328 325 322 322 322 319 319 319 319 318 318 318 318 319 318 318 318 318 318 318 318 318 319 319 320 321
326 324 325 325 326 328 329 330 334 337 336 337 337 338 337 337 339 340 337 340 341 341 329 328 326 322 321 322 320 318 319 319 318 318 318 318 318 318 319 319 319 319 319 319 318 319 319 320 321
327 324 324 325 326 327 328 328 330 336 335 337 337 338 337 339 340 337 336 337 339 341 338 333 328 324 321 321 321 319 318 318 318 318 318 318 318 319 319 319 320 320 320 319 319 319 320 320 321
328 328 326 326 326 327 327 326 329 332 334 336 337 338 339 340 340 336 335 336 338 339 342 342 330 327 323 321 321 321 319 318 318 318 318 318 318 319 319 320 320 320 320 320 320 319 320 321 322
327 329 328 327 326 327 326 326 326 330 333 335 336 338 339 338 338 336 335 337 338 340 342 343 340 329 326 323 321 321 320 319 318 318 318 318 318 318 319 319 320 320 321 321 321 320 320 321 321
328 330 330 329 327 327 326 326 325 328 330 335 336 336 337 337 339 337 337 338 338 339 341 343 346 335 330 327 325 321 320 318 318 317 317 317 317 318 318 319 320 320 321 322 322 322 321 322 321
329 331 330 329 328 328 327 325 325 327 329 332 335 334 334 337 338 337 337 338 338 339 340 343 346 347 344 339 338 334 326 320 319 319 317 317 317 317 318 319 319 320 320 322 322 322 322 322 328
328 332 330 329 328 328 327 325 324 326 330 332 334 334 333 334 337 338 337 337 337 337 338 339 343 343 345 345 340 338 335 331 324 321 319 318 317 318 325 329 324 320 320 321 322 322 323 322 332
326 327 329 329 329 328 329 326 327 325 326 329 333 334 333 333 333 334 334 334 334 333 333 334 337 342 331 343 343 340 342 342 336 332 327 320 321 322 327 332 334 327 322 322 322 327 327 323 338
325 326 325 327 328 328 328 327 327 327 326 326 327 331 331 332 332 333 333 333 333 333 333 334 335 341 329 327 342 339 341 342 342 341 338 336 334 331 331 332 333 336 334 332 334 333 332 338 339
319 320 322 323 325 327 328 328 327 326 327 327 326 327 329 329 331 331 331 332 333 333 333 332 334 336 333 327 326 327 328 338 342 343 342 339 338 336 335 333 334 335 336 335 333 337 338 340 339
317 319 320 322 322 325 327 328 329 328 328 328 328 328 330 331 331 331 331 331 332 332 332 333 333 335 334 328 326 325 333 339 341 343 343 342 340 338 337 337 337 334 335 334 335 336 338 339 340
318 318 319 320 322 323 323 328 328 327 328 329 330 330 330 331 331 331 330 330 330 330 332 333 333 333 332 329 326 325 329 338 341 343 343 343 342 340 338 339 338 336 334 336 335 335 335 339 337
315 319 319 319 320 322 323 325 326 326 328 330 329 330 330 330 330 330 330 329 330 332 333 334 333 334 332 334 329 325 324 328 337 340 342 343 343 343 341 341 338 337 335 334 334 333 336 336 337
314 315 317 319 320 320 321 324 324 323 325 328 328 329 329 329 329 329 329 330 330 330 330 331 331 327 322 327 327 325 332 331 337 341 342 342 344 344 344 342 340 337 336 334 334 332 336 334 336
313 314 316 318 320 320 320 322 323 324 323 324 326 327 328 328 328 328 329 328 327 326 327 328 329 322 320 326 333 333 333 336 342 344 342 343 345 345 342 342 341 339 337 335 333 334 333 335 335
312 313 314 315 318 320 321 321 322 324 324 324 324 325 326 327 328 327 327 326 325 326 326 326 324 324 321 328 323 328 334 339 343 345 343 344 345 345 343 342 342 339 338 336 334 333 335 334 336
312 312 313 314 317 319 320 321 323 322 322 323 323 323 324 325 325 326 326 325 325 326 326 327 327 325 325 323 332 331 330 342 344 345 345 345 345 343 342 340 342 341 339 337 334 335 331 338 336
312 312 312 313 316 318 320 321 322 323 323 323 323 323 323 324 324 324 324 324 325 325 325 326 326 328 328 327 330 333 339 341 343 345 346 345 343 341 343 342 341 341 340 338 336 334 336 337 337
312 312 312 313 314 316 317 319 321 322 323 323 324 322 322 323 323 323 324 324 324 324 324 325 326 329 328 327 322 334 338 342 345 345 346 341 342 344 344 342 341 340 340 336 336 338 338 337 336
311 311 312 313 313 316 317 318 320 321 322 323 324 322 322 322 323 323 323 323 323 324 324 325 327 328 328 329 324 328 341 342 347 345 345 347 344 344 344 343 340 340 336 338 340 339 336 335 335
311 311 310 312 313 315 316 318 319 320 321 322 322 322 322 322 322 322 322 322 323 324 325 326 327 332 341 343 338 340 346 346 347 348 343 344 344 342 342 341 340 338 341 339 339 337 337 335 333
312 312 311 311 312 313 314 316 317 320 321 320 320 320 321 322 322 325 324 323 324 326 332 336 339 343 344 343 345 347 348 348 349 346 340 342 342 342 341 341 341 340 340 339 338 336 335 333 332
314 312 314 313 314 314 314 315 317 319 320 320 322 322 324 325 327 328 329 328 325 329 340 344 345 345 344 345 346 347 347 347 345 346 344 345 345 343 342 342 340 339 338 337 335 333 330 331 331
314 313 314 317 315 313 316 316 317 318 319 320 322 323 323 331 333 331 329 329 338 344 347 347 346 346 347 347 347 347 347 347 346 345 344 344 343 342 342 340 339 338 336 335 332 331 332 332 329
315 314 314 315 313 316 315 318 318 319 320 320 322 322 331 336 334 333 338 342 345 347 347 347 347 347 346 346 346 345 345 344 343 343 342 342 341 340 338 337 336 335 334 332 329 333 333 332 329
312 314 313 316 319 315 315 316 319 322 323 323 322 323 330 337 339 340 342 344 345 346 346 346 347 346 347 345 344 343 343 342 341 341 341 338 337 336 335 334 333 331 331 332 333 333 332 333 330

GFSSGP_850_thetae_036.txt.gz
Theta_e
315 317 324 324 326 325 326 325 329 330 332 332 335 336 338 340 343 345 339 340 339 327 327 327 327 327 323 322 320 319 320 320 320 319 318 317 317 317 317 317 316 316 316 316 316 316 316 316 315
315 320 326 324 325 327 326 327 328 330 333 335 335 335 337 342 341 339 338 339 334 327 327 327 326 327 323 322 321 320 319 319 319 319 318 318 317 317 317 317 317 317 317 317 317 317 318 318 318
323 330 324 323 325 328 327 329 330 332 336 336 336 336 338 341 341 340 339 338 329 327 327 327 326 326 326 321 321 320 319 319 319 318 318 318 318 318 318 318 317 318 318 317 318 318 319 319 320
329 329 323 324 325 326 328 329 329 333 338 337 337 336 337 340 341 340 338 334 328 327 327 327 326 325 325 324 321 321 320 319 319 318 318 318 318 318 318 318 318 318 318 318 318 318 319 319 320
329 326 324 323 324 326 327 328 329 334 336 336 336 337 337 339 340 335 334 331 328 328 328 327 327 325 324 325 322 320 320 320 319 319 319 318 318 318 319 319 319 319 319 319 319 319 319 319 320
329 326 326 325 325 326 327 327 329 335 336 336 337 337 337 338 341 335 332 339 336 328 328 328 327 326 323 323 323 321 320 320 319 319 319 319 318 318 319 319 320 320 320 320 319 319 319 319 320
330 330 328 326 325 325 326 327 328 329 334 336 337 338 338 338 340 338 338 340 340 342 333 329 328 327 324 322 322 322 320 319 319 319 318 318 318 318 319 319 320 320 320 320 320 320 320 320 320
326 329 330 329 328 326 327 327 327 328 329 332 334 338 339 339 340 338 337 338 339 341 343 335 331 329 327 323 321 321 321 319 318 318 318 318 318 318 318 319 319 320 321 321 321 321 321 321 321
324 330 332 330 329 328 327 327 327 326 327 331 334 338 338 340 340 337 336 337 339 340 341 343 338 332 329 326 323 321 321 320 319 318 318 318 318 318 318 318 319 320 320 321 321 321 321 321 321
326 330 331 330 329 329 328 328 328 327 326 328 333 336 338 339 338 338 336 337 338 340 342 344 343 342 335 330 329 325 321 321 321 321 319 318 317 317 317 318 318 319 320 320 321 322 322 322 322
323 328 329 330 330 329 329 328 328 326 326 327 331 335 335 339 339 339 338 338 338 339 341 343 343 342 339 339 338 337 336 333 329 323 321 319 317 316 316 317 318 318 319 320 321 322 322 322 323
321 323 326 328 329 330 330 329 329 328 326 325 328 332 335 335 337 338 338 338 338 338 338 341 343 343 342 342 342 337 337 334 332 330 329 323 319 317 316 317 318 320 320 319 320 321 322 323 325
319 321 323 324 326 328 328 329 330 329 327 327 326 328 334 335 334 336 336 335 335 334 334 336 336 336 337 339 346 343 337 331 328 330 330 331 331 327 319 318 323 326 328 326 321 321 322 325 330
318 319 319 321 326 326 327 328 329 329 328 327 327 327 329 333 333 334 334 334 334 334 334 334 334 338 335 335 333 342 342 341 336 335 334 332 336 337 334 329 329 335 336 335 332 325 323 330 336
317 319 319 320 320 322 324 326 328 329 329 328 328 328 328 330 333 332 331 333 331 332 333 333 333 334 336 335 334 331 334 338 340 344 343 338 338 341 341 336 333 333 339 337 336 334 338 340 341
315 317 319 319 320 321 321 323 324 326 329 329 329 329 329 329 328 330 332 333 332 331 331 331 332 333 334 333 332 330 328 329 334 338 344 345 342 342 342 340 337 336 334 339 336 337 335 336 339
313 314 316 318 320 319 320 323 324 323 326 328 329 330 330 331 331 330 331 333 332 332 331 332 333 333 335 336 334 331 329 328 330 336 341 343 344 343 344 342 339 340 337 335 337 336 335 338 338
314 313 314 315 316 319 320 321 323 323 324 325 327 328 329 331 330 331 331 331 332 332 333 332 332 333 332 334 334 335 332 328 326 326 332 343 343 343 344 343 341 340 339 337 337 337 335 334 338
315 314 314 315 316 317 320 321 322 322 323 324 326 328 327 328 329 330 331 330 331 331 331 330 329 328 330 329 330 336 329 324 327 330 330 336 343 343 344 344 343 342 340 338 336 336 334 335 336
315 314 314 314 315 316 317 318 321 323 324 324 325 325 326 327 329 330 328 328 331 329 328 327 327 326 327 326 323 328 332 331 332 336 338 343 343 344 344 344 343 343 340 339 337 336 334 335 335
314 314 314 313 314 314 316 317 320 321 323 322 323 325 325 325 326 327 328 329 330 328 327 327 327 326 326 325 326 330 330 329 336 342 342 345 344 344 344 345 344 342 341 340 337 336 335 334 335
313 314 314 313 313 313 315 318 321 321 323 323 324 323 324 325 325 325 326 326 327 328 328 327 328 328 326 326 327 333 334 326 325 344 345 345 344 344 344 344 342 343 343 340 338 337 336 334 335
314 315 313 313 313 313 313 315 317 321 322 324 324 324 323 323 325 325 325 326 326 325 324 324 324 324 325 329 331 330 335 337 337 339 346 346 346 345 345 343 341 343 343 339 340 337 335 332 337
314 314 313 312 312 314 314 315 316 318 321 322 324 324 324 324 323 323 324 324 324 325 327 327 326 327 327 329 329 333 330 334 341 345 346 347 346 344 342 342 341 341 340 339 339 337 334 337 337
315 312 311 312 312 312 313 314 317 317 319 320 322 322 322 323 324 324 324 324 325 325 325 325 326 326 328 329 328 328 327 337 340 346 346 347 345 341 342 340 341 340 340 339 336 336 339 337 335
314 314 314 311 311 312 312 314 315 316 319 319 320 321 321 322 324 323 323 323 324 324 324 324 326 326 331 334 331 333 334 348 346 348 347 346 342 342 340 341 340 340 337 340 340 339 336 334 333
315 313 315 314 314 313 315 312 315 316 316 318 321 322 321 322 322 323 323 326 325 324 326 329 332 330 334 344 345 343 343 346 350 349 347 343 342 341 341 341 340 338 340 339 337 335 332 334 331
312 313 315 316 316 312 313 312 313 316 317 318 321 323 322 324 324 325 328 329 330 327 331 339 341 344 346 345 345 347 348 349 349 345 341 342 342 342 341 343 342 340 338 337 334 333 333 331 330
314 315 314 315 317 318 317 314 315 322 320 320 321 322 323 325 333 340 333 332 334 342 346 347 347 347 346 346 346 346 348 348 345 345 345 345 345 342 342 341 338 338 337 335 331 331 332 329 329
311 314 315 317 314 313 313 316 316 317 316 314 322 322 326 332 337 342 340 340 341 346 348 348 348 347 346 345 345 346 345 345 344 344 343 343 342 340 339 338 336 336 334 332 330 330 334 332 329

GFSSGP_850_thetae_039.txt.gz
Theta_e
316 314 324 326 319 319 320 321 322 323 325 328 332 334 335 340 341 344 341 340 333 327 327 327 325 325 323 322 321 321 321 320 319 319 319 319 318 318 318 317 317 317 316 316 316 317 317 318 318
315 320 324 326 318 319 320 321 322 323 324 331 334 335 338 340 340 340 340 343 330 327 327 327 327 324 324 322 321 322 322 321 320 319 319 319 319 318 318 318 318 318 318 318 318 318 319 319 319
316 327 329 317 317 321 321 323 322 325 327 334 335 335 338 340 339 340 339 340 327 327 327 327 327 325 324 323 321 320 321 321 321 320 319 319 319 318 318 318 318 318 318 319 319 319 319 319 320
326 332 329 318 319 320 322 323 324 325 327 336 336 334 340 339 338 338 338 334 327 327 327 327 327 327 324 323 322 321 320 320 320 320 320 319 319 319 319 318 319 319 319 319 319 319 319 319 320
331 329 321 319 319 321 323 324 325 324 325 335 336 336 340 340 340 338 337 331 327 327 327 327 327 327 326 323 322 322 321 320 320 320 319 319 319 319 319 319 319 319 319 319 319 319 319 319 320
331 327 324 321 322 323 323 324 324 324 327 335 335 335 339 341 340 338 335 328 327 327 327 327 327 326 326 326 324 322 322 321 320 320 319 319 319 318 319 319 320 320 320 320 320 320 320 320 320
323 330 327 324 324 323 323 325 323 323 324 335 336 337 339 340 339 335 332 329 327 328 328 328 327 326 325 325 325 323 321 321 320 320 320 319 319 319 318 319 320 320 320 320 320 320 320 320 320
321 324 329 329 329 327 327 326 326 325 325 328 329 334 338 340 337 340 337 335 329 328 328 328 327 327 326 324 324 324 323 321 320 320 320 319 319 318 319 319 319 320 320 321 321 321 320 321 321
323 322 323 328 328 327 328 326 328 327 327 326 327 336 338 340 339 339 342 342 339 333 328 328 328 328 327 326 324 324 323 323 322 320 320 319 319 318 318 318 319 319 320 320 321 321 321 321 321
318 322 323 324 327 328 328 328 328 327 327 326 328 338 338 339 338 338 337 341 340 338 331 329 329 330 329 328 327 326 324 324 324 323 322 320 319 318 318 318 318 318 319 319 320 321 321 321 321
318 321 323 324 327 328 329 328 329 328 326 326 325 336 337 339 338 336 338 337 339 341 340 338 336 334 333 331 329 328 327 326 325 324 323 322 319 318 317 317 317 318 318 318 319 320 321 321 322
314 316 321 322 323 324 325 327 327 328 328 329 327 326 334 337 338 338 337 336 338 341 346 342 341 340 342 340 339 332 332 332 332 332 330 326 321 318 317 317 317 317 317 318 318 319 320 321 322
313 315 317 319 322 323 323 324 325 327 328 329 328 327 327 335 338 337 337 336 336 336 341 342 339 336 338 342 335 333 329 329 330 332 332 332 330 325 319 318 317 317 317 318 319 319 319 320 322
313 314 316 317 318 321 322 323 325 326 327 328 329 328 327 329 334 334 335 335 335 335 336 335 339 341 342 338 335 334 332 328 330 330 328 331 332 332 333 331 327 323 320 320 323 326 326 320 321
313 312 314 315 317 317 319 321 325 326 325 326 327 329 328 328 333 331 334 333 334 333 334 333 333 334 341 340 340 336 334 331 328 328 327 328 332 333 336 338 338 333 329 327 331 334 334 330 323
311 311 310 315 316 317 317 317 319 321 324 325 326 327 328 328 328 331 331 333 333 332 332 331 332 333 333 334 337 337 335 334 333 333 333 330 331 333 337 340 340 340 336 332 334 338 336 333 329
310 310 310 311 313 315 316 317 318 319 321 322 323 324 328 328 328 329 331 332 331 331 332 332 331 331 331 332 333 333 332 332 332 340 345 344 341 337 340 342 342 342 339 335 334 338 337 335 335
310 310 311 311 311 312 312 315 317 318 319 320 322 323 328 328 328 328 330 330 332 331 330 332 331 330 331 332 333 333 332 333 331 330 331 340 345 345 343 344 344 343 341 338 336 337 338 337 335
312 313 313 313 313 312 312 313 314 315 318 319 320 322 324 327 326 327 327 328 330 333 333 333 332 332 332 332 333 332 330 330 328 328 331 334 336 342 345 343 345 344 342 341 339 337 337 337 336
313 313 313 313 313 313 312 312 313 314 315 316 319 321 322 325 326 325 325 326 328 329 333 334 334 332 332 331 329 327 326 326 327 327 329 326 331 337 341 344 344 344 343 341 340 338 337 337 336
311 312 312 313 314 313 312 312 312 313 314 317 317 320 320 323 325 325 325 326 329 330 331 331 331 330 329 328 326 325 325 325 326 329 335 334 337 340 340 342 344 345 344 343 341 340 338 336 335
311 312 312 312 312 311 312 311 311 312 314 316 317 319 320 321 323 323 323 323 326 326 331 329 328 328 327 327 327 326 325 325 322 325 333 342 340 342 343 343 344 344 344 343 342 340 338 337 335
315 315 314 314 312 310 311 310 311 311 313 313 315 319 321 320 321 324 324 325 325 325 325 329 329 328 327 325 325 325 326 325 325 329 331 340 344 344 344 344 344 344 343 341 342 340 338 336 336
314 314 313 313 311 312 310 310 311 311 313 313 314 316 318 321 321 323 322 322 323 324 325 326 325 324 324 324 324 324 325 326 328 334 340 344 346 345 345 344 344 343 341 341 341 339 338 338 336
312 312 313 311 311 312 310 310 310 311 313 314 313 314 316 319 322 323 322 322 322 323 323 324 324 323 324 325 325 325 326 328 329 340 341 343 346 345 345 345 341 341 340 340 339 339 339 337 336
311 313 315 318 312 311 312 312 311 312 312 314 315 315 315 316 318 321 322 323 322 322 322 322 322 323 326 326 327 327 329 329 330 337 340 346 346 346 346 343 339 340 339 339 339 339 337 335 334
313 313 313 315 315 314 313 312 312 312 314 315 314 313 315 316 318 320 321 324 325 323 323 324 325 326 325 325 326 330 330 331 330 329 342 347 346 346 341 339 340 339 339 339 340 337 337 337 334
311 312 312 314 314 314 313 313 312 317 315 314 314 313 315 316 318 320 322 325 324 325 325 323 324 324 326 327 330 332 334 339 339 348 349 348 346 343 338 340 339 340 339 338 340 337 334 332 332
310 313 313 313 314 313 313 313 317 314 314 314 313 313 315 318 320 324 324 325 325 327 327 326 326 330 336 334 342 344 343 343 349 350 348 345 340 340 340 341 340 340 338 339 335 333 332 331 330
311 313 312 315 314 313 313 313 313 313 312 313 312 313 315 317 319 327 339 334 336 335 336 339 341 344 345 345 344 343 346 349 349 345 342 343 342 342 340 342 341 339 338 336 333 330 331 332 330

GFSSGP_850_thetae_042.txt.gz
Theta_e
317 314 322 325 318 314 318 319 320 321 321 325 324 326 333 338 339 339 337 329 328 327 325 324 323 323 323 323 322 321 320 320 319 319 319 319 318 318 318 318 318 317 317 317 317 317 318 318 317
315 317 324 324 317 317 317 318 321 320 322 325 325 327 338 339 341 340 338 341 327 327 326 324 324 323 323 323 323 322 321 320 320 320 320 320 319 319 319 319 319 318 318 318 318 318 319 319 319
317 325 327 319 314 317 319 320 320 322 324 324 325 331 339 339 340 339 339 338 328 327 326 325 324 324 323 323 323 322 322 321 321 320 320 320 320 320 320 319 319 319 319 319 319 319 319 320 320
324 330 331 317 316 316 320 320 321 321 324 324 325 337 339 340 340 340 340 340 329 327 327 324 324 324 324 323 323 323 322 322 322 321 321 320 320 320 319 319 319 319 319 319 319 319 319 320 320
331 328 322 317 316 317 319 320 321 321 322 324 325 334 339 340 340 340 341 340 329 327 327 325 324 324 324 324 323 322 322 322 322 321 321 321 321 320 320 320 320 320 320 320 320 320 320 320 320
329 326 322 323 322 322 321 323 322 321 323 324 328 337 339 339 339 339 340 339 328 327 327 326 325 323 324 324 324 323 322 321 321 321 321 320 320 320 320 320 320 320 320 320 320 320 320 320 320
321 326 325 323 325 326 325 325 321 321 321 323 328 337 339 342 341 340 338 332 327 327 326 326 325 326 325 323 323 323 323 322 321 320 320 320 320 319 319 320 320 320 320 320 320 321 320 320 320
321 323 328 328 330 330 328 327 327 326 327 327 327 335 338 340 341 342 337 327 327 327 326 325 325 326 326 326 325 324 323 322 322 321 320 320 320 319 319 319 319 319 320 320 321 321 321 320 320
317 317 320 328 329 329 327 326 327 328 327 327 328 333 337 338 339 340 339 330 327 327 326 325 325 326 326 326 326 326 324 323 322 321 321 320 320 320 319 319 319 318 319 319 320 320 321 321 321
313 318 321 321 324 325 325 325 327 328 327 328 328 337 335 338 339 340 339 333 328 327 326 326 325 326 327 325 325 326 325 325 325 324 323 321 320 319 318 318 318 318 318 318 319 320 320 321 321
314 316 321 322 323 323 324 325 325 324 326 326 327 328 335 338 341 340 341 338 336 331 328 327 326 326 327 326 327 327 326 326 326 326 324 323 321 319 319 318 318 317 317 317 318 319 320 320 321
311 313 315 318 320 320 321 323 322 323 324 325 326 327 327 335 338 341 340 339 341 342 336 331 331 329 328 328 328 328 328 328 328 327 325 323 322 321 319 318 318 317 317 317 317 318 318 319 320
311 312 313 314 316 319 321 321 321 322 322 323 325 326 327 328 333 337 336 337 339 341 342 340 341 340 338 334 334 335 333 331 330 330 329 329 329 328 323 322 320 318 317 316 316 317 317 318 319
310 311 311 312 313 315 316 319 320 321 322 323 324 326 326 327 334 337 336 337 336 336 337 342 343 341 337 339 342 341 337 332 330 329 329 332 331 330 332 330 328 324 321 318 317 317 318 320 320
311 310 310 311 313 314 316 316 318 318 319 323 325 325 325 325 328 334 336 337 337 336 337 339 339 337 335 342 343 336 335 335 334 332 329 330 330 329 332 336 337 336 335 332 327 322 323 327 328
309 309 309 310 310 314 315 316 317 317 318 318 319 320 323 325 326 328 333 336 335 335 337 336 336 338 340 341 339 335 334 332 331 332 331 329 331 331 332 336 338 339 339 339 336 332 330 332 334
307 308 309 309 310 311 313 314 316 317 318 318 318 319 320 322 323 324 327 328 333 335 335 336 337 335 334 332 332 331 330 331 330 332 331 330 330 332 332 335 336 340 342 341 339 336 334 334 337
308 308 309 309 310 310 309 309 311 313 314 315 316 318 319 320 321 322 323 327 328 329 333 333 332 332 332 332 330 331 332 332 332 331 331 330 329 329 332 338 337 341 344 343 340 338 336 334 337
311 311 311 311 312 311 310 311 311 311 313 312 313 314 316 318 320 323 324 327 327 328 328 327 331 331 332 331 331 332 335 336 335 334 332 331 332 332 336 336 339 344 345 344 342 340 338 336 337
310 310 310 311 312 312 311 312 312 311 311 312 313 314 315 316 318 319 322 323 324 324 326 328 328 332 331 331 330 331 332 333 332 332 330 328 329 333 336 337 332 337 345 345 343 341 339 338 337
311 310 313 312 311 311 311 311 311 312 311 312 313 314 315 317 318 319 320 321 322 323 324 326 328 330 333 332 332 333 333 333 328 326 325 325 325 327 331 332 336 338 342 345 344 342 341 338 338
312 313 314 314 313 311 311 311 310 310 310 310 311 313 314 314 315 318 320 322 323 323 323 325 328 331 334 334 333 333 329 326 326 326 325 324 323 328 337 334 337 341 344 345 344 343 341 340 338
312 313 313 313 313 311 311 309 311 309 310 310 310 312 313 314 314 316 317 320 323 323 323 323 326 331 334 334 330 327 327 327 325 325 325 325 324 327 336 340 340 343 345 345 344 343 342 340 338
312 312 311 310 310 311 311 309 311 309 309 310 310 312 313 313 314 315 316 318 321 323 324 324 325 329 329 328 328 327 326 324 324 325 326 326 327 328 327 343 343 344 345 344 344 343 340 339 338
309 310 310 310 309 310 310 310 311 309 309 312 314 314 315 315 315 315 315 316 317 321 322 322 323 327 329 328 326 324 324 324 324 325 326 327 331 338 344 345 344 344 343 342 341 341 339 337 337
308 312 312 315 313 312 312 312 311 310 313 313 313 313 314 315 316 316 316 316 317 318 320 322 322 324 325 324 324 323 324 325 326 326 327 327 337 340 344 345 344 344 342 340 340 339 338 337 337
311 312 312 314 314 317 313 311 310 315 314 313 313 313 312 313 316 318 318 318 318 318 321 322 322 322 322 323 323 323 325 327 327 328 330 329 337 344 345 345 345 343 338 338 338 338 338 338 336
309 309 310 311 315 316 312 312 312 314 314 313 311 311 311 312 315 319 319 320 321 321 323 322 323 323 322 322 323 323 326 326 327 331 331 334 335 345 346 344 340 338 338 338 338 338 339 337 337
307 310 312 312 313 314 313 311 313 315 312 311 310 311 311 312 315 318 317 318 320 331 330 323 323 323 323 323 324 326 326 331 333 332 330 331 341 347 345 342 339 338 338 338 339 340 338 335 332
309 309 309 308 310 313 311 313 312 311 310 310 310 311 313 314 315 319 315 315 320 325 337 331 326 324 324 326 328 330 331 336 340 341 347 346 347 345 340 339 339 339 338 338 339 334 332 332 329

GFSSGP_850_thetae_045.txt.gz
Theta_e
315 314 318 325 318 313 317 317 318 319 320 322 322 322 322 326 337 338 340 330 327 326 325 324 323 322 322 322 321 321 320 319 318 318 318 318 318 318 318 318 317 318 318 318 318 318 318 318 317
315 315 324 323 316 316 315 316 319 318 321 323 323 324 327 334 334 339 333 330 327 326 326 325 324 323 323 323 322 322 321 320 320 319 319 319 319 319 319 319 319 319 319 319 319 319 319 319 319
316 323 326 319 314 316 315 317 319 320 322 322 322 324 327 338 340 338 331 329 326 326 326 326 324 323 323 323 323 322 321 321 321 320 320 320 320 320 320 320 319 319 319 320 319 320 319 320 320
326 329 326 319 318 316 318 319 318 319 321 322 323 322 330 338 340 337 331 328 326 326 326 326 324 323 323 323 323 323 322 322 321 321 320 320 320 320 320 320 319 319 319 319 319 319 319 320 320
326 327 324 318 318 316 317 318 319 318 319 322 323 322 335 340 341 336 331 330 327 326 325 325 324 323 323 323 323 323 323 322 322 321 321 321 320 320 320 319 319 320 320 319 319 319 319 320 320
330 325 321 324 321 321 320 322 322 320 321 324 322 326 338 339 340 338 339 331 327 326 325 325 325 323 322 323 323 323 323 323 322 322 321 321 321 321 320 320 320 320 320 320 320 320 320 320 320
322 324 324 322 324 324 325 325 325 321 322 326 327 333 339 340 340 340 342 331 326 326 325 325 325 323 322 322 323 323 323 323 322 322 321 321 321 320 320 320 320 320 320 320 320 320 320 320 320
320 323 328 328 327 328 327 326 327 325 326 327 327 326 337 340 340 342 340 328 325 326 325 325 324 323 322 322 322 322 322 323 322 321 321 320 320 320 319 319 319 319 319 320 320 320 320 320 320
317 318 322 328 329 328 326 324 325 325 327 326 327 327 331 340 339 342 335 327 325 325 326 326 324 323 322 322 321 322 322 322 322 322 321 321 320 320 319 319 319 318 318 319 319 320 320 320 320
313 315 319 321 325 324 323 323 323 324 323 324 326 328 327 341 342 339 335 327 325 325 326 326 326 324 322 321 321 321 322 323 323 323 322 322 322 320 319 319 319 318 318 318 318 319 319 320 320
312 315 319 321 321 321 322 322 321 322 323 324 324 324 325 328 343 342 337 335 327 327 326 325 326 325 324 323 322 322 322 324 325 325 324 324 323 321 320 319 319 318 318 318 318 318 318 319 320
311 312 313 314 315 317 318 318 318 319 319 321 322 322 324 326 334 341 339 333 328 326 326 325 324 324 324 323 323 323 323 324 325 326 326 325 325 322 321 320 319 318 318 317 317 317 317 317 318
309 310 311 312 312 312 314 316 318 318 318 319 320 322 323 326 327 340 341 339 334 329 327 326 325 325 323 323 323 322 323 324 323 325 325 324 324 323 323 321 320 319 318 317 317 317 316 316 316
310 309 310 311 311 312 313 314 316 316 317 318 319 321 323 325 326 328 339 339 341 339 333 328 328 327 326 324 325 326 326 327 326 324 324 324 324 324 325 327 328 326 324 322 319 318 316 316 316
310 309 308 309 311 312 314 314 315 316 317 317 317 318 319 324 325 325 333 338 338 338 340 340 340 335 335 336 335 336 337 341 337 335 331 330 330 332 333 334 332 333 334 334 330 328 323 321 319
308 306 307 308 309 311 313 314 315 316 315 316 317 317 318 319 322 324 327 335 336 337 337 338 338 340 337 336 337 335 334 338 336 334 334 332 332 332 332 333 333 335 338 338 338 337 334 332 329
305 307 308 308 308 308 311 312 312 313 312 313 314 314 314 316 318 321 324 326 335 336 336 337 341 342 341 339 339 337 335 338 335 333 332 330 330 331 331 330 333 337 339 340 341 341 339 337 335
309 308 308 309 309 309 308 309 309 311 312 312 312 313 313 313 314 316 319 322 324 328 335 335 336 338 338 337 337 337 335 333 333 332 331 331 332 332 331 332 334 334 341 340 342 343 342 339 337
310 310 310 310 310 309 309 310 310 310 311 311 312 312 313 313 314 315 316 318 322 325 327 329 334 336 335 336 336 337 332 332 331 331 331 332 334 332 331 332 335 333 337 337 342 344 343 341 338
309 309 310 310 312 311 309 310 310 310 310 311 311 312 312 312 313 314 316 317 319 323 326 327 327 330 333 338 336 334 334 332 331 332 332 333 333 331 328 328 332 333 334 338 338 341 344 341 338
311 313 312 312 312 311 309 311 310 310 310 311 311 312 312 312 312 313 314 315 317 319 320 323 325 324 324 326 330 334 337 335 336 334 333 333 332 328 326 328 334 335 334 333 337 341 344 342 340
310 311 313 313 312 311 311 311 311 310 309 309 309 311 312 311 312 312 313 314 315 317 319 321 321 322 324 326 328 329 334 335 331 331 332 331 326 327 328 333 334 337 334 336 340 342 344 341 340
309 312 312 311 310 310 310 308 310 309 310 309 308 310 312 313 314 314 314 314 315 316 318 320 322 322 324 324 328 330 333 333 332 333 329 326 326 325 324 326 333 335 337 337 342 345 344 342 341
311 310 308 307 307 309 309 309 309 309 309 308 310 313 313 314 314 314 315 315 315 315 316 318 321 323 323 324 325 330 334 333 334 329 326 326 326 325 325 325 326 328 340 341 344 345 342 342 340
307 306 308 309 308 310 309 310 309 308 308 311 313 313 313 313 312 313 314 315 315 315 316 316 318 320 324 324 324 329 335 334 329 327 324 324 325 325 326 324 328 337 343 344 344 343 342 341 338
306 307 308 312 313 311 310 311 310 310 312 313 313 313 312 311 311 311 312 315 317 316 316 316 318 319 320 322 325 330 332 329 327 324 324 324 326 327 325 333 340 345 344 344 342 341 340 338 337
309 310 308 310 309 310 310 311 309 312 313 312 312 312 311 312 312 312 311 313 318 317 317 317 317 319 321 321 323 328 329 328 325 323 324 326 327 329 327 338 344 345 344 344 341 339 338 337 336
308 308 311 310 314 313 312 311 311 310 310 312 311 310 311 312 311 311 312 314 318 316 318 318 319 323 322 322 322 324 326 324 324 324 326 328 330 329 330 339 345 344 344 339 337 337 337 337 338
308 307 310 308 311 312 312 310 307 311 312 311 310 310 311 312 311 313 314 314 317 314 319 320 319 326 324 322 322 322 323 323 324 327 328 331 333 330 335 343 345 344 339 338 337 337 337 339 336
310 310 309 309 310 309 311 311 313 311 309 309 310 310 311 311 312 313 314 315 313 318 320 321 321 327 326 323 323 322 322 325 327 326 332 334 331 331 338 345 343 340 337 337 336 337 339 338 335

GFSSGP_850_thetae_048.txt.gz
Theta_e
316 315 317 324 316 312 315 316 316 319 319 321 321 321 323 324 334 336 338 339 329 325 322 322 322 319 318 318 318 318 318 318 318 318 318 318 318 318 318 318 318 318 318 318 318 317 317 317 316
317 316 323 322 315 314 312 315 317 317 320 321 322 322 320 321 325 327 331 337 328 326 324 323 322 321 320 320 321 321 321 320 320 320 319 319 319 319 319 319 319 319 319 319 319 319 319 319 319
318 322 324 318 313 314 314 315 316 319 320 320 321 323 323 328 337 330 329 333 327 326 324 323 323 323 322 322 322 322 322 321 321 321 320 320 320 320 320 320 319 319 319 319 319 319 319 320 320
325 327 322 319 318 316 316 318 316 316 320 321 321 319 324 328 337 338 338 332 327 326 324 323 323 323 323 323 323 323 322 322 321 321 320 320 320 320 320 320 320 320 319 319 319 320 320 320 320
325 327 323 320 319 317 317 318 318 318 319 321 322 322 324 334 339 340 335 329 327 326 324 323 323 323 324 323 323 323 323 322 322 321 321 320 320 320 320 320 320 320 320 319 319 319 319 319 320
330 324 323 324 320 320 320 321 320 320 320 325 325 325 329 341 342 340 332 328 326 325 324 322 322 322 323 323 323 323 323 322 322 322 321 321 320 320 320 320 320 319 320 320 320 319 319 319 320
325 322 325 324 324 324 324 326 324 322 324 325 326 326 331 328 336 340 332 327 326 325 324 322 322 322 322 323 323 323 323 323 322 322 322 321 321 320 320 320 320 320 319 319 320 320 320 319 320
321 323 328 326 325 326 326 326 327 325 325 325 326 325 326 328 338 342 332 328 325 324 324 322 321 322 322 323 322 322 322 322 322 322 322 321 321 321 320 320 319 319 319 319 319 320 320 320 320
318 318 322 327 327 327 326 324 324 324 324 323 325 325 324 326 344 343 337 333 325 324 324 322 321 322 323 323 322 322 322 322 322 321 321 321 320 320 320 319 319 319 318 319 319 319 319 320 320
313 313 318 320 324 323 323 323 323 322 321 322 324 324 323 322 341 341 338 340 327 324 324 323 322 322 322 322 322 322 321 321 321 321 320 320 320 320 319 319 318 318 318 318 318 318 318 319 319
311 313 317 320 319 319 319 319 319 318 319 322 320 320 320 322 324 342 338 335 330 327 324 323 323 322 323 322 322 321 321 320 320 320 320 320 319 319 319 319 319 318 319 318 318 318 318 317 318
310 311 312 313 313 313 315 315 315 316 317 317 318 318 319 320 323 326 336 338 329 326 326 323 323 322 323 323 322 322 321 321 320 320 320 321 320 319 319 320 319 319 319 318 318 317 317 317 316
309 309 311 311 311 312 312 312 313 314 315 316 317 319 319 321 322 324 327 337 340 328 326 325 322 323 323 323 323 323 322 323 322 321 322 321 322 321 320 320 319 319 319 318 318 317 317 316 316
309 309 309 310 311 311 311 312 313 314 315 316 317 318 318 319 322 324 325 326 340 334 326 325 323 323 324 325 324 325 324 324 324 323 324 323 323 323 322 321 321 320 323 322 321 320 318 317 316
310 308 307 308 309 310 312 311 312 314 315 316 316 317 317 317 318 321 324 325 329 339 333 333 326 324 324 324 324 323 324 324 325 325 326 330 330 330 327 324 327 328 332 331 330 330 327 325 323
307 304 305 307 308 310 311 311 313 312 313 313 313 314 315 317 318 318 319 322 327 334 337 339 331 326 325 324 324 324 326 330 331 338 335 336 334 332 332 331 332 334 334 334 336 337 336 335 335
304 307 308 308 308 308 310 310 311 312 312 312 313 312 313 313 314 316 318 319 323 331 335 338 341 341 338 333 329 334 332 335 334 335 336 337 336 332 333 333 334 336 336 336 338 339 340 340 339
308 308 308 308 308 309 308 307 308 311 311 311 312 312 312 312 313 313 315 317 319 321 327 336 336 337 341 342 338 339 339 336 336 336 335 335 335 335 334 333 333 334 335 338 339 340 341 341 341
309 309 309 309 309 309 309 309 309 309 310 310 311 312 312 312 312 313 313 316 317 318 321 325 335 335 336 341 342 341 337 337 337 336 335 336 335 334 336 333 332 331 332 336 340 343 342 342 342
308 309 310 309 310 310 309 309 310 308 309 310 311 311 312 311 312 312 312 314 315 317 319 322 325 332 333 334 339 341 339 338 337 336 335 337 335 337 335 333 330 331 333 338 340 341 342 342 341
309 310 310 311 311 309 308 307 309 309 309 310 311 311 311 312 311 311 312 313 313 315 317 319 323 326 330 328 332 335 334 334 337 336 336 333 332 336 336 329 328 330 331 335 337 339 341 340 341
309 309 311 312 309 307 309 308 307 308 309 308 309 310 311 312 311 312 313 313 313 314 315 316 318 321 325 325 327 326 325 328 333 333 332 332 333 334 335 327 328 330 331 335 336 339 339 341 342
307 311 311 310 308 308 309 308 307 306 307 307 308 310 311 311 312 312 312 313 313 314 315 315 315 318 320 321 323 324 323 324 325 327 329 331 334 333 332 328 328 326 326 332 335 336 339 342 343
309 309 307 305 305 308 307 307 307 306 306 307 308 309 311 312 312 312 312 312 313 313 314 315 315 316 319 322 322 322 323 324 327 329 330 332 334 331 326 327 326 325 325 328 329 338 342 343 341
306 304 306 306 306 308 307 309 308 308 309 308 309 311 312 312 312 312 312 311 311 312 313 314 315 316 318 319 322 323 324 326 324 330 332 333 333 326 326 326 325 325 326 328 337 342 344 341 340
306 305 306 309 309 307 307 309 308 309 309 311 312 312 312 312 311 312 311 311 311 311 315 314 315 315 316 318 320 321 324 325 327 331 334 334 330 325 326 326 326 327 334 340 343 344 342 341 339
308 308 306 307 307 305 308 308 309 309 309 311 312 312 312 311 311 311 312 312 313 313 315 316 315 314 315 316 319 320 321 323 327 331 334 333 327 326 326 326 327 336 343 344 344 343 341 339 337
308 307 309 306 312 312 309 309 310 309 310 308 308 309 310 311 311 310 311 311 313 314 314 315 316 315 315 316 319 320 321 321 323 330 334 330 327 326 327 328 328 340 344 344 344 341 338 337 336
307 306 307 306 309 311 311 309 307 307 307 307 308 311 311 311 309 310 311 311 314 315 315 315 316 317 316 315 318 322 321 321 322 326 331 328 326 325 328 329 332 341 344 344 341 336 336 336 337
307 308 307 312 311 309 310 311 307 307 308 307 308 310 310 309 309 310 311 311 313 313 313 317 318 318 318 316 318 325 322 321 322 325 328 327 324 328 331 329 336 344 344 341 337 337 335 336 338

GFSSGP_850_thetae_051.txt.gz
Theta_e
323 315 318 324 322 321 321 321 320 323 322 321 321 322 325 325 332 331 335 337 331 326 323 322 320 320 321 320 318 318 319 319 320 320 318 318 318 318 318 317 317 318 317 317 316 316 316 316 315
322 314 322 321 320 320 320 320 321 321 321 320 321 322 322 325 324 325 326 330 332 326 325 322 320 319 319 318 318 318 318 319 319 319 319 319 319 319 319 319 319 318 318 319 318 319 319 319 318
323 316 324 325 321 318 319 319 321 320 319 320 322 322 323 325 332 334 334 328 333 326 325 323 320 319 318 318 320 320 321 321 321 320 320 320 320 320 320 320 319 319 319 319 320 320 320 320 320
322 323 322 323 320 319 318 321 320 320 320 320 322 325 324 326 336 339 338 332 333 325 325 323 320 318 318 319 321 322 322 322 322 321 321 321 320 320 320 320 320 320 320 320 320 320 320 320 320
323 327 323 323 321 319 318 319 319 320 321 323 324 327 328 333 333 338 340 338 332 325 324 323 322 319 318 319 320 322 322 323 322 321 321 321 321 320 320 320 320 320 319 319 320 320 320 320 320
327 325 327 325 322 320 322 321 322 323 323 326 327 327 331 328 333 339 341 337 328 326 324 323 322 320 319 320 321 321 322 322 322 322 321 321 321 321 320 320 320 320 319 319 319 319 319 319 320
327 327 325 325 325 325 325 326 326 326 327 327 326 328 328 327 327 341 339 336 326 325 324 323 322 321 320 320 321 321 322 322 322 322 321 321 321 321 320 320 319 319 319 319 320 319 319 319 319
324 328 326 326 324 325 327 326 326 326 326 324 324 327 327 326 327 343 337 333 327 323 323 323 322 321 320 320 321 321 321 321 321 321 321 321 320 320 320 319 319 319 319 319 319 319 319 319 319
320 324 324 325 326 326 326 325 324 324 324 324 324 324 322 325 326 342 338 331 327 323 323 322 323 322 321 320 320 321 321 321 321 321 320 320 320 320 319 319 319 319 319 318 318 318 319 319 319
318 319 321 323 324 325 325 324 323 323 323 321 322 322 321 319 332 339 341 333 328 324 323 322 323 323 322 321 321 321 321 320 320 320 320 320 320 320 320 319 319 318 318 318 317 317 317 318 318
314 317 319 320 320 321 322 321 320 320 321 322 319 320 319 318 320 322 337 340 329 324 323 321 321 322 322 322 321 321 321 321 321 320 320 320 320 320 319 319 318 318 318 318 318 317 317 317 317
313 312 312 316 314 314 318 314 316 317 318 317 317 316 317 319 320 322 323 337 339 328 324 323 322 321 322 321 321 321 322 321 322 321 321 320 320 319 319 319 319 319 318 318 318 317 317 317 316
312 312 312 312 312 312 313 314 315 314 314 315 316 317 318 319 319 321 324 327 334 340 327 323 322 321 321 321 321 321 321 321 322 321 320 321 321 320 319 320 320 320 319 318 318 317 317 317 316
311 311 312 311 312 312 313 314 313 315 314 314 315 316 317 317 318 317 319 325 325 334 338 328 323 322 321 320 320 320 321 321 321 322 321 322 322 321 321 320 321 320 320 319 318 318 319 319 319
310 311 311 311 311 311 312 313 313 313 313 314 316 316 316 316 317 317 318 318 322 325 334 340 332 325 322 321 320 320 320 320 321 323 323 323 323 323 322 322 322 321 320 321 323 325 327 328 329
311 309 311 312 311 310 312 312 313 311 312 313 313 313 314 313 314 316 317 318 319 324 330 337 333 327 325 323 321 321 320 321 321 322 323 323 324 325 333 331 329 325 323 327 332 332 333 335 336
311 311 311 312 311 312 312 313 313 311 311 312 312 313 313 313 313 314 315 316 318 320 322 330 337 338 330 329 327 322 322 322 322 323 323 330 330 332 333 335 337 334 331 335 336 335 337 338 339
310 311 311 312 312 312 312 312 312 311 311 312 312 312 312 313 313 313 313 314 316 317 319 320 327 338 338 333 327 326 323 322 323 330 332 332 333 334 333 334 333 333 336 336 336 338 339 340 341
311 311 311 311 312 312 312 312 312 311 312 312 312 311 312 312 312 312 313 313 314 315 317 318 321 333 337 338 342 341 335 328 325 333 332 332 335 335 334 334 332 334 335 336 336 337 340 340 341
311 311 311 312 312 311 310 311 311 311 312 312 313 313 312 312 311 312 312 313 313 314 315 317 318 321 331 335 335 339 342 342 336 337 336 336 336 336 335 337 336 337 335 334 332 336 340 340 339
311 311 311 310 311 311 311 310 311 311 312 312 312 312 312 311 311 312 312 312 312 313 314 315 316 319 323 326 327 332 337 344 342 340 337 338 338 336 335 337 336 336 334 330 331 332 335 339 340
310 311 311 311 310 310 311 310 311 311 311 312 311 312 312 312 312 310 311 311 312 312 313 314 315 316 318 321 325 328 332 338 340 338 336 334 336 336 336 335 335 336 332 326 330 329 332 339 341
310 311 311 311 311 311 311 311 311 311 311 311 312 310 311 311 311 311 312 312 312 312 312 313 314 315 316 317 320 323 326 326 330 333 327 325 327 330 329 330 334 334 331 327 327 326 328 337 340
311 311 311 310 311 311 311 311 311 311 311 312 312 311 311 312 313 313 311 311 311 311 312 312 313 314 315 316 318 320 322 324 325 325 324 323 326 327 327 330 335 333 327 327 325 325 329 333 338
311 311 311 310 311 310 311 311 311 312 311 312 312 312 312 313 313 312 312 312 311 311 311 312 312 312 314 315 316 319 321 320 322 323 322 323 326 327 328 334 333 327 325 326 325 325 330 335 342
311 312 311 310 310 311 311 311 312 311 311 311 313 313 314 314 314 312 311 310 311 311 311 312 312 313 313 314 316 317 319 321 321 321 322 324 324 329 333 333 329 326 326 325 325 331 332 342 342
311 311 310 312 312 313 312 311 312 312 312 312 312 312 313 314 312 312 311 310 309 311 311 313 312 313 313 314 315 316 318 320 323 323 323 323 324 334 334 335 329 327 326 326 331 337 342 344 341
311 311 313 314 314 313 312 312 312 312 312 312 312 312 312 312 312 312 312 311 310 311 311 313 314 313 315 314 314 315 316 320 321 322 324 325 330 334 335 335 329 326 327 329 340 344 344 342 339
310 312 312 312 313 315 314 313 312 312 312 312 312 311 312 312 312 311 311 311 311 312 311 313 314 314 315 315 314 314 315 319 321 321 321 323 328 334 335 333 327 327 328 333 343 344 343 338 338
311 312 312 314 314 313 313 313 312 312 312 312 312 311 311 311 311 311 311 311 313 312 313 313 312 312 315 317 316 315 315 316 322 321 321 321 325 333 334 328 327 329 331 341 344 343 337 337 335

GFSSGP_850_thetae_054.txt.gz
Theta_e
320 316 316 323 325 324 327 326 324 325 326 325 325 326 330 331 335 337 340 335 338 337 326 323 320 323 325 325 326 330 334 333 327 326 320 317 317 317 317 317 316 316 316 315 315 316 316 317 317
319 315 321 322 322 325 327 325 324 324 323 323 324 325 326 330 328 328 331 340 337 332 326 325 320 321 324 323 323 325 328 323 323 321 318 318 318 318 318 318 318 317 317 317 318 318 318 318 318
321 317 323 323 323 322 324 323 324 323 322 324 326 326 327 330 334 338 344 342 339 334 325 324 320 320 323 321 320 321 322 321 321 319 319 319 319 319 320 319 319 319 319 319 319 319 319 319 319
326 325 322 324 322 322 320 323 323 323 322 324 326 329 328 332 333 336 338 344 341 342 325 324 321 319 321 322 319 319 320 320 320 320 320 320 320 320 320 320 319 319 319 319 319 320 320 320 320
325 325 326 327 324 322 321 321 321 323 323 323 327 330 331 334 332 342 343 343 341 342 328 324 321 320 319 320 320 319 319 320 320 321 321 321 321 320 320 320 320 319 319 319 320 320 320 320 320
327 325 328 328 326 323 323 323 324 326 325 324 328 330 332 331 332 342 342 344 341 340 338 324 321 321 320 319 319 319 319 320 321 321 321 321 321 320 320 320 320 319 319 319 319 319 319 320 320
328 328 327 327 327 327 326 325 326 327 327 326 328 330 331 328 332 341 342 342 341 339 338 324 321 321 320 319 319 319 319 320 320 320 321 320 320 320 320 320 319 319 319 319 319 319 319 319 319
324 328 328 327 327 327 326 327 327 327 327 327 327 330 329 326 328 339 342 341 340 339 338 340 321 321 320 320 320 320 319 319 320 320 320 320 320 320 319 319 319 319 319 319 318 318 318 319 319
321 328 328 328 328 327 326 327 326 326 326 326 326 326 326 324 323 334 343 341 341 339 337 341 337 321 320 324 320 320 320 320 320 320 319 320 319 319 319 319 319 319 319 318 318 318 318 318 318
322 325 326 326 327 327 327 327 326 325 326 326 326 326 325 324 323 325 330 342 340 339 338 340 342 338 339 337 333 320 321 320 320 320 320 320 320 321 321 319 319 319 318 318 318 317 317 317 322
319 323 324 324 323 324 325 326 325 324 325 325 326 324 323 322 323 324 328 335 338 338 339 340 333 324 337 339 339 323 333 324 321 320 320 320 322 325 320 322 319 319 319 318 318 317 317 318 327
317 319 320 320 321 320 322 323 322 321 321 320 320 320 319 321 322 324 327 328 340 337 337 340 343 340 344 341 341 339 338 337 339 324 320 320 320 321 321 321 332 322 329 321 323 331 323 323 322
315 317 316 316 316 317 318 319 319 320 319 316 316 318 319 319 321 322 325 326 331 340 337 337 340 337 335 337 341 340 340 336 340 339 321 321 321 321 320 322 324 332 336 335 334 328 327 329 326
314 314 315 315 315 315 316 316 316 317 316 316 316 317 317 319 319 320 321 326 326 329 339 339 333 327 325 330 335 328 333 334 325 333 323 321 321 321 321 320 321 325 331 334 333 325 326 325 331
313 314 314 314 314 315 314 315 317 316 315 315 316 318 318 318 318 319 321 323 324 331 328 338 339 330 323 321 321 322 321 321 326 324 321 321 320 320 320 321 321 321 323 323 320 320 320 322 329
314 314 314 314 313 313 313 314 316 315 315 316 315 315 317 318 318 318 319 320 319 321 328 330 337 341 332 324 321 320 321 321 320 321 320 320 320 320 320 321 322 327 329 330 329 328 330 331 335
315 314 315 315 314 315 315 315 316 315 315 315 315 315 315 316 317 317 318 318 317 317 322 334 333 335 338 332 325 322 320 320 321 321 320 320 322 322 321 323 325 334 333 334 333 334 334 335 337
316 315 314 315 316 315 315 316 316 315 315 315 314 315 315 315 315 316 317 316 314 315 317 322 333 335 335 340 331 325 322 321 321 324 322 323 322 323 323 326 332 333 333 332 334 335 335 337 340
313 314 314 314 314 314 315 315 316 315 314 315 315 315 315 315 314 315 315 316 313 313 314 317 321 328 332 336 341 327 328 326 326 325 329 325 323 326 327 331 333 334 333 333 334 336 335 338 338
313 314 314 314 314 313 314 314 315 315 315 314 315 315 315 315 315 314 315 313 313 315 313 314 316 319 331 348 343 342 341 340 337 331 326 323 323 327 331 331 333 335 334 333 336 333 336 339 344
313 313 313 313 312 313 314 315 315 314 313 313 314 314 315 315 315 314 315 315 315 313 312 313 314 315 318 323 333 336 337 338 342 341 341 336 326 330 334 334 335 336 335 337 339 332 334 343 344
312 312 311 312 313 314 314 313 315 315 314 314 314 314 314 314 314 314 314 315 317 317 312 312 313 314 315 317 320 326 335 338 343 336 340 342 339 337 337 337 337 336 336 337 337 332 333 334 343
312 312 312 313 314 314 314 315 315 314 314 314 314 313 313 313 313 314 314 316 316 314 313 312 312 313 314 315 316 320 331 337 339 344 345 346 346 341 338 332 337 337 337 337 340 333 331 334 329
312 312 313 314 314 314 314 314 314 315 315 314 314 313 313 314 314 316 316 315 315 315 316 317 312 312 312 314 315 316 319 330 335 338 340 343 345 341 327 329 332 331 332 337 337 337 332 328 328
313 314 315 314 315 314 314 314 314 315 314 315 315 314 314 315 315 315 315 315 314 314 315 316 316 315 312 312 313 315 316 318 320 324 338 338 338 340 337 327 331 331 330 336 338 335 329 325 326
314 314 314 313 313 314 314 315 317 315 314 313 313 314 314 315 316 316 315 315 315 314 314 315 316 317 315 314 312 313 315 316 319 320 326 329 331 336 329 324 326 330 335 336 336 330 326 326 327
314 314 313 314 314 316 315 316 316 316 315 315 314 314 314 314 315 315 314 314 314 314 314 314 316 316 317 316 313 312 313 315 316 319 321 321 321 322 322 323 324 332 336 336 330 330 325 327 328
314 314 314 315 316 316 316 316 316 316 315 315 315 314 314 314 314 314 313 313 313 314 314 314 316 316 317 315 312 313 313 314 315 317 320 322 323 321 329 324 325 335 335 330 327 327 327 330 339
313 313 313 315 317 318 317 316 316 315 315 315 315 314 314 313 313 313 313 313 313 313 313 314 315 317 317 318 320 320 315 313 314 316 318 320 323 324 324 325 334 336 332 328 327 329 342 338 346
313 314 314 317 316 316 315 316 316 316 315 314 314 314 314 314 314 314 314 313 313 314 314 315 316 317 317 317 318 319 322 318 317 315 317 321 321 323 326 334 335 338 333 328 327 330 346 347 346

GFSSGP_850_thetae_057.txt.gz
Theta_e
322 324 321 323 326 326 331 331 329 327 327 328 330 332 334 335 338 340 341 341 338 346 328 324 321 320 325 329 332 337 343 343 339 335 328 321 317 316 316 316 315 315 316 316 315 315 316 316 316
320 325 324 324 325 328 329 331 328 328 327 326 327 329 330 333 333 333 341 342 338 347 329 325 321 319 322 327 330 334 338 336 332 328 320 318 317 317 317 317 317 317 317 318 317 317 318 318 318
322 325 327 325 325 325 328 328 328 326 324 325 327 327 330 333 335 336 339 344 341 349 331 325 321 319 321 326 326 330 333 329 327 322 319 319 319 319 319 319 319 318 319 319 319 319 320 320 319
327 327 325 326 326 326 325 326 325 326 324 324 327 329 328 332 334 335 342 342 343 346 347 326 320 320 319 323 326 328 328 325 323 320 319 320 320 319 319 319 319 319 319 320 320 320 320 320 320
326 327 330 330 328 326 324 324 324 325 325 324 325 329 330 334 332 336 343 342 343 344 347 332 320 320 320 320 326 329 326 324 322 320 320 320 320 320 320 319 319 320 319 319 319 320 320 320 320
328 328 330 330 329 328 326 323 324 325 326 326 325 328 331 334 331 337 345 344 342 342 345 338 321 320 320 320 323 327 327 324 322 320 319 320 320 319 319 319 320 319 319 319 319 319 320 320 320
326 330 331 330 330 330 328 325 325 327 328 327 327 329 331 332 328 337 345 344 344 343 344 344 321 320 321 321 320 324 326 325 322 320 319 319 319 320 319 319 319 319 319 319 319 319 319 319 319
323 328 330 331 330 330 329 328 327 327 328 328 328 330 332 329 327 331 344 344 344 342 341 348 332 320 320 320 320 320 323 324 324 321 320 319 319 319 319 319 319 319 318 318 318 318 319 319 319
322 326 328 329 330 330 328 329 328 327 328 328 327 327 328 327 327 327 332 344 343 342 340 346 343 333 325 322 320 320 320 322 322 322 320 320 319 319 319 319 319 318 318 318 318 317 318 318 318
323 325 325 326 328 330 330 329 328 328 328 328 327 327 327 327 326 326 329 338 344 343 340 342 345 345 342 338 331 320 320 321 323 322 320 320 321 327 322 322 319 318 318 318 318 317 317 317 318
322 324 324 325 325 326 327 328 328 329 328 327 328 328 327 326 324 326 327 332 339 344 341 340 345 345 343 338 340 326 331 322 322 322 323 320 328 337 334 337 327 320 319 319 319 319 318 317 325
322 322 323 323 323 325 326 326 327 328 328 326 325 324 324 324 324 325 327 329 335 340 342 340 343 345 343 339 340 342 338 338 336 328 327 338 330 338 342 340 341 339 335 326 326 335 333 333 333
320 322 321 322 322 322 323 324 324 324 325 323 321 320 321 323 324 323 325 327 332 336 340 341 342 346 347 342 339 341 339 340 340 341 340 341 343 341 344 341 340 339 340 338 336 336 335 336 336
318 318 319 320 320 321 321 321 320 321 322 321 321 319 321 323 323 323 323 323 330 332 338 339 341 344 346 342 344 342 342 339 342 341 343 337 340 343 342 333 340 340 338 337 337 337 337 336 335
316 317 318 318 318 320 319 320 320 320 320 320 320 320 320 321 323 322 322 323 325 329 332 337 341 339 343 345 344 346 344 343 343 343 342 341 328 329 328 338 334 334 338 335 333 333 326 328 334
316 317 317 318 318 317 317 318 319 318 319 319 318 319 319 321 323 322 321 322 324 326 323 328 339 342 340 342 338 346 346 345 342 341 342 336 326 323 324 323 327 335 324 329 339 338 333 336 338
317 317 317 318 317 317 317 317 319 318 318 318 318 319 319 319 322 321 321 321 324 325 319 326 332 337 343 342 340 333 339 342 341 340 340 339 327 323 321 321 323 322 323 331 336 336 333 338 338
318 319 318 318 319 317 317 318 318 318 318 318 318 318 318 318 319 320 320 320 320 324 317 319 324 334 333 338 341 340 339 337 330 327 333 329 324 322 322 321 322 322 323 329 333 333 334 334 339
317 317 318 318 318 317 318 318 319 319 318 318 317 318 317 318 318 318 318 318 320 320 313 315 322 337 335 336 336 342 337 337 332 332 322 334 332 325 322 323 322 323 325 335 333 333 333 335 338
315 316 316 317 317 317 317 318 318 318 318 318 318 317 317 318 317 318 317 318 320 322 320 314 314 324 336 334 334 336 335 335 333 330 326 324 322 323 325 324 322 324 327 332 334 335 336 335 342
315 316 316 317 317 316 316 317 318 318 317 317 316 316 317 317 317 317 317 317 319 320 322 315 313 314 317 337 338 342 343 342 335 338 337 329 328 325 327 326 323 329 330 334 334 336 335 343 346
315 316 315 314 315 316 317 318 318 318 317 317 316 316 316 317 317 316 316 317 317 320 320 314 313 313 314 315 320 335 331 338 341 346 343 342 338 339 336 329 326 331 332 336 343 339 341 341 344
315 315 314 314 315 316 317 317 318 319 318 317 317 316 316 316 316 316 316 316 316 318 319 319 316 312 313 317 316 318 330 329 334 337 340 347 347 341 346 343 328 331 336 343 340 346 341 347 345
314 314 315 315 316 317 318 317 318 319 318 317 317 316 315 315 316 316 317 317 317 317 317 318 320 318 316 315 323 323 327 330 337 340 340 341 336 333 333 347 340 339 338 333 340 343 343 340 347
315 315 316 317 318 318 318 317 318 318 317 317 317 316 316 316 317 317 318 317 316 316 316 317 317 319 321 322 324 321 322 324 320 323 339 343 334 336 350 348 344 339 327 329 337 342 344 347 339
315 317 317 317 319 317 318 317 319 318 318 316 316 316 316 317 317 317 317 317 317 316 316 316 317 318 319 320 322 322 325 325 325 327 323 339 341 342 343 343 342 334 329 333 332 342 345 347 336
315 315 316 316 316 317 317 318 317 318 318 317 317 316 316 316 317 317 317 317 316 316 316 316 317 317 318 318 318 318 319 319 317 321 329 334 329 338 338 342 339 334 328 332 336 337 348 346 334
316 316 317 317 315 315 315 317 318 319 319 318 317 317 316 316 316 316 316 315 315 315 315 316 316 316 317 319 320 320 321 321 321 317 315 321 332 327 333 339 337 328 324 328 338 342 348 335 343
316 315 315 315 319 321 319 317 319 319 318 318 317 316 316 316 315 316 316 316 316 316 316 315 316 316 316 318 319 319 320 322 323 323 325 326 319 321 339 335 333 331 328 330 340 342 342 340 344
315 315 317 316 315 315 317 317 317 317 318 318 316 316 316 316 316 316 316 315 315 315 316 316 315 316 317 318 319 319 319 320 321 323 325 318 322 326 330 339 342 344 334 344 341 333 342 348 347

GFSSGP_850_thetae_060.txt.gz
Theta_e
323 326 324 323 325 326 328 331 332 331 329 329 332 334 333 335 338 348 343 342 345 337 325 322 320 319 324 331 337 341 344 340 336 334 329 323 318 319 321 318 316 316 316 316 316 317 317 317 318
324 323 326 324 326 327 330 330 331 330 327 327 328 331 332 337 341 344 345 341 343 342 324 322 320 319 321 327 334 339 342 337 332 329 322 319 317 317 317 316 317 317 318 318 318 318 318 318 319
324 327 326 327 325 326 329 330 328 327 326 326 327 328 330 337 336 337 342 343 347 344 327 322 320 319 320 325 333 337 338 333 330 323 319 318 318 318 318 318 319 319 319 320 320 320 320 320 320
325 328 327 327 327 325 326 327 326 326 326 325 327 329 328 334 335 336 342 344 345 345 337 322 320 319 320 322 330 336 333 328 327 322 319 319 319 320 319 319 319 320 320 320 320 320 320 320 320
324 326 330 330 328 327 327 326 325 325 326 326 326 328 331 334 332 336 343 343 343 348 343 323 320 319 320 321 325 335 334 329 325 321 320 319 320 320 320 320 320 320 320 320 320 320 320 320 320
323 327 330 330 330 330 328 325 324 324 325 326 326 326 330 333 330 333 343 344 342 345 348 327 320 320 320 321 323 329 335 333 328 323 320 320 320 320 320 320 319 320 319 319 319 319 320 320 320
323 327 330 330 330 330 330 327 326 324 325 327 328 326 330 330 329 329 341 344 344 343 348 340 320 320 320 321 322 323 332 333 332 327 321 320 320 319 319 319 319 319 319 319 319 319 319 319 319
321 326 327 329 331 330 330 327 326 326 327 328 329 329 331 329 328 328 330 344 344 342 347 345 325 320 320 321 322 323 324 330 331 328 322 321 320 319 319 319 319 319 319 319 318 318 319 319 319
320 324 326 325 327 330 329 330 328 327 327 327 328 328 328 328 328 327 328 337 344 343 345 345 336 320 324 321 321 322 323 324 326 326 323 321 320 319 319 319 319 319 319 318 318 318 318 318 318
322 323 323 323 325 326 328 329 330 329 328 328 329 328 327 328 328 326 328 332 345 344 343 347 345 321 324 336 321 321 321 322 323 325 322 321 320 320 319 319 319 319 319 318 318 318 318 318 318
321 323 323 323 323 324 325 327 329 329 330 329 329 328 328 327 327 326 327 330 334 344 342 345 346 332 328 341 326 321 320 321 321 322 321 321 320 321 326 326 325 321 319 319 319 319 319 319 319
320 321 323 323 323 323 325 325 327 328 329 329 329 328 327 325 325 325 326 329 331 337 343 344 344 342 339 341 340 326 321 320 320 320 320 320 320 322 337 337 334 336 331 325 321 322 324 329 329
319 320 321 322 323 323 323 324 325 326 328 328 327 326 326 324 323 324 325 327 327 335 343 347 345 344 339 341 342 339 327 321 320 320 320 320 321 323 330 343 340 341 340 334 334 336 333 334 331
318 320 321 321 322 322 322 323 323 324 325 324 324 324 322 321 321 324 324 324 328 328 341 342 344 344 343 340 347 344 341 336 330 327 323 322 322 326 335 337 338 336 341 340 339 338 337 336 335
317 318 319 319 319 321 321 322 322 322 321 321 321 323 322 321 322 323 324 324 326 327 330 340 342 343 342 341 343 349 346 340 340 338 340 335 334 327 338 335 331 326 329 331 332 337 338 337 335
317 318 317 318 319 319 320 321 321 321 321 321 321 321 321 321 322 322 323 323 325 328 324 327 340 344 341 339 340 347 345 344 345 341 343 343 341 341 339 337 329 323 325 329 335 333 331 334 332
317 317 317 317 318 319 319 318 319 318 318 320 320 321 320 320 321 322 323 323 323 326 326 321 332 341 342 340 339 335 345 346 343 345 343 344 343 340 337 329 326 331 332 329 329 332 336 335 336
317 318 318 318 319 318 318 318 319 318 319 319 319 319 319 320 320 321 323 322 323 324 325 324 336 341 341 340 340 336 336 344 344 343 344 343 343 339 336 328 327 331 327 325 323 325 332 336 335
317 318 318 320 320 319 319 319 319 319 319 319 319 319 319 319 319 320 322 321 321 321 321 317 324 340 342 342 340 336 336 336 335 336 333 341 340 335 333 325 329 325 327 326 322 324 329 335 336
318 317 317 318 319 319 319 318 319 319 320 319 320 320 319 319 318 320 319 320 320 323 324 325 316 317 326 336 340 336 333 338 336 339 337 330 334 337 337 333 329 326 325 323 324 328 330 334 335
317 316 316 316 317 318 318 318 318 318 318 319 319 319 319 319 319 319 319 319 319 320 325 326 327 320 319 326 334 337 340 338 335 335 338 335 333 332 327 327 324 327 327 325 326 327 330 331 335
315 316 316 316 317 317 317 319 319 319 320 320 319 319 318 318 318 319 319 319 318 320 322 320 325 324 318 318 331 332 335 337 332 334 339 345 341 337 336 333 332 336 333 328 326 333 332 331 338
315 316 316 315 315 316 316 316 317 319 319 319 319 317 317 318 318 318 318 318 319 318 320 320 317 314 317 325 319 323 331 334 335 334 333 342 345 346 344 344 343 343 341 339 329 338 333 335 342
316 315 315 316 316 317 316 317 318 319 319 320 319 317 317 316 317 317 317 317 318 318 319 318 321 320 315 321 315 316 317 327 333 333 331 334 335 339 341 339 344 341 334 334 334 344 340 344 347
315 316 315 317 318 318 318 318 319 320 319 320 319 317 317 317 316 317 319 319 317 317 317 318 318 319 320 320 320 323 324 318 329 334 338 341 336 335 331 332 333 331 334 331 331 330 339 349 346
316 316 317 319 321 320 319 322 320 320 319 318 317 317 317 317 317 318 318 319 318 317 317 317 317 318 318 319 320 317 316 316 314 316 321 328 337 341 340 336 334 336 333 333 336 334 347 351 346
318 315 315 318 319 320 318 319 321 319 319 318 317 317 317 317 317 318 319 318 318 318 318 317 317 317 317 318 319 319 318 314 311 314 318 325 333 334 340 340 343 338 339 345 342 338 348 349 346
317 317 316 318 320 318 316 317 317 321 320 319 318 317 317 317 317 317 318 317 317 317 316 316 317 316 316 316 316 317 319 320 320 317 313 313 318 328 330 340 342 344 343 345 342 345 344 347 347
318 317 316 318 320 323 320 319 320 320 320 319 318 317 317 317 317 317 316 317 317 317 316 317 317 317 318 316 316 317 318 320 320 322 322 315 313 314 316 318 329 340 349 346 342 337 344 347 350
316 317 318 320 320 317 318 318 319 320 319 319 319 317 316 317 317 318 317 317 317 316 316 316 316 317 317 317 316 317 317 319 320 321 320 324 322 314 316 316 319 330 338 346 342 339 342 349 347

GFSSGP_850_thetae_063.txt.gz
Theta_e
324 323 325 325 320 320 321 324 326 327 327 327 329 338 341 340 343 344 346 344 340 325 322 323 322 322 328 338 341 342 342 336 331 327 324 320 325 327 322 317 317 317 317 318 319 319 318 319 320
324 325 326 326 320 320 321 323 325 323 324 326 328 330 338 338 343 345 347 345 341 333 322 323 323 322 325 332 339 342 339 333 328 323 320 318 320 320 317 317 318 319 319 319 320 320 320 320 321
323 325 328 322 319 320 322 324 324 324 325 325 326 328 335 336 338 341 346 344 344 341 324 322 324 322 322 328 336 341 336 329 325 321 318 317 318 318 318 319 320 320 320 320 320 321 321 321 321
321 326 328 324 323 323 322 323 322 322 325 325 325 329 334 335 336 339 344 348 344 343 328 321 324 323 321 323 326 337 332 327 324 320 318 318 319 319 319 320 321 320 320 320 321 321 321 321 320
320 322 323 326 324 323 324 326 324 322 323 324 325 327 333 331 334 341 342 342 343 344 340 320 321 322 322 323 323 327 331 327 323 321 319 319 319 320 320 320 320 320 321 320 320 320 320 320 320
319 323 323 325 325 327 327 327 324 323 323 324 325 325 330 328 330 338 342 342 342 342 343 321 321 321 323 323 323 323 330 328 325 321 320 320 320 320 320 320 320 320 320 320 320 320 320 320 320
316 318 320 324 327 327 327 327 322 322 323 324 328 328 329 330 329 328 341 340 343 346 342 325 320 320 322 324 323 323 323 329 327 324 320 320 320 320 320 320 320 320 320 320 320 319 320 319 319
318 316 320 322 325 327 328 327 325 324 324 326 328 328 329 329 328 328 330 341 343 346 344 337 320 320 321 325 325 323 323 323 328 325 321 320 320 320 320 319 319 320 319 319 319 319 319 319 319
318 317 318 320 324 324 325 325 326 326 329 326 328 328 328 328 328 328 329 332 345 347 347 343 321 320 321 323 325 325 324 323 323 325 322 320 320 320 319 319 319 319 319 319 319 319 319 318 318
315 316 318 319 320 321 322 322 324 326 325 327 327 328 328 327 328 327 328 328 340 351 348 344 331 320 322 323 324 326 324 323 323 323 322 320 320 320 319 319 319 319 319 319 319 319 319 319 318
316 315 318 320 321 321 321 322 323 324 325 327 327 328 328 327 327 326 327 332 332 343 348 348 343 330 321 322 323 325 325 323 323 322 321 321 320 320 320 319 319 319 320 319 319 319 319 319 321
313 317 318 320 321 322 321 322 322 323 328 329 329 328 328 327 325 325 325 326 329 332 342 349 345 342 321 321 323 323 325 323 322 322 321 321 320 320 320 320 320 321 324 327 330 323 325 324 327
313 315 317 319 321 321 322 322 322 322 325 329 329 328 328 327 326 324 324 326 326 326 339 345 347 342 335 321 329 330 324 322 322 321 321 321 321 320 320 321 323 325 326 330 332 329 334 333 331
316 315 316 317 318 320 320 320 321 321 322 325 326 326 327 327 325 323 324 324 327 326 332 343 346 344 332 324 332 341 340 329 321 320 321 321 320 320 320 321 322 324 325 325 328 334 337 337 336
316 314 314 315 317 318 319 318 319 321 321 322 321 321 325 323 323 322 322 323 325 325 337 341 346 345 343 338 346 343 342 342 334 321 320 320 320 320 321 322 324 326 329 330 335 338 338 337 337
313 314 313 313 315 317 317 316 318 320 321 321 321 321 320 321 323 322 322 322 324 325 325 343 346 345 343 340 343 346 347 343 340 338 333 329 329 332 326 326 326 331 333 331 338 337 337 337 335
312 312 313 314 315 315 315 316 317 320 320 318 320 320 320 320 321 321 321 323 323 326 326 326 341 346 344 342 341 341 346 345 345 342 341 341 341 341 340 337 331 333 331 331 333 329 332 328 328
313 313 314 315 316 315 315 315 316 319 318 317 318 319 319 320 320 320 320 323 323 324 325 322 325 340 346 342 341 338 341 346 343 346 342 344 344 345 343 342 340 336 330 329 327 332 335 327 324
314 315 315 316 317 316 314 315 317 317 318 317 318 318 319 319 319 319 321 322 322 323 322 322 321 338 345 344 341 337 338 341 343 343 344 340 344 344 343 341 339 336 329 328 327 326 329 326 324
315 316 315 316 316 315 315 317 317 317 316 318 318 319 318 319 319 319 320 322 321 321 321 321 317 331 344 345 342 341 334 334 333 332 333 342 343 342 342 341 337 334 331 327 326 326 326 327 326
314 315 315 314 315 315 315 315 317 316 316 317 317 317 319 319 319 319 320 320 320 319 319 318 317 316 330 344 342 339 338 335 336 336 337 332 334 333 334 335 337 333 334 334 330 328 326 326 326
313 315 315 315 315 313 315 314 314 316 315 316 317 317 317 319 319 319 319 319 319 318 319 318 321 323 320 322 339 344 339 332 330 333 335 337 334 333 337 337 337 333 334 337 334 335 331 328 329
314 315 314 315 313 312 313 312 313 314 315 315 316 317 317 317 317 319 320 320 318 319 319 321 321 319 317 324 324 336 341 341 341 337 337 337 339 332 336 340 338 341 339 340 338 338 338 334 333
316 315 314 313 312 312 313 313 314 314 315 316 316 317 317 317 318 319 319 318 319 319 320 319 318 317 317 315 322 328 327 333 340 338 336 338 337 336 337 340 336 337 336 337 340 335 334 334 332
314 313 313 314 313 313 313 316 314 314 316 316 316 316 316 316 316 318 318 317 317 318 318 318 319 318 319 319 319 317 316 325 329 332 333 334 332 334 334 340 337 334 332 331 335 333 334 333 332
319 318 315 316 318 317 317 321 319 319 319 317 316 316 316 316 316 317 317 317 317 317 316 317 317 318 318 318 318 320 320 318 316 316 317 322 324 330 338 335 334 333 331 332 333 334 333 332 332
319 318 317 316 314 317 317 317 317 317 319 316 316 316 316 317 317 318 319 318 318 317 317 317 317 317 316 316 316 316 316 316 316 314 312 313 314 319 330 334 337 339 336 337 337 334 333 333 333
317 317 319 319 320 319 317 318 316 321 319 318 317 316 316 317 318 318 318 319 318 317 317 317 316 316 316 316 316 316 315 315 315 315 315 313 312 312 324 332 333 335 339 339 332 333 332 337 336
315 317 318 317 319 318 319 317 318 319 318 317 316 317 317 317 317 317 317 317 317 317 317 317 316 317 319 318 317 317 316 316 317 318 318 317 315 315 312 313 317 328 332 335 342 340 336 337 340
314 316 316 320 320 317 315 315 317 317 317 318 316 317 317 316 316 316 316 316 316 317 317 317 316 316 316 317 319 317 317 317 318 318 321 319 319 316 315 313 314 315 319 324 336 345 343 344 345

GFSSGP_850_thetae_069.txt.gz
Theta_e
323 323 324 326 318 317 320 322 322 321 321 327 338 338 338 342 340 339 345 336 337 325 325 334 341 341 340 339 338 333 330 333 334 333 333 333 333 330 323 319 318 317 318 319 319 321 320 321 321
321 322 325 324 317 320 320 321 322 321 322 321 331 339 338 341 345 345 346 338 341 323 325 332 340 342 340 339 338 331 328 327 329 330 332 332 329 322 319 318 318 319 320 321 321 321 322 322 323
321 320 325 319 315 318 320 321 320 321 324 322 330 334 335 337 343 346 346 346 338 323 324 332 338 342 340 338 337 328 324 323 322 324 331 328 322 319 318 319 320 321 322 322 322 322 322 322 323
319 321 325 321 322 320 320 321 322 324 323 324 331 333 335 337 340 344 339 334 327 323 323 329 335 341 340 339 335 326 321 320 319 325 325 323 319 318 319 320 321 322 322 321 321 321 321 321 321
318 319 320 323 323 322 322 325 326 324 322 327 331 331 334 339 341 343 342 334 325 322 323 326 330 336 339 338 333 325 321 320 319 321 321 319 318 319 320 321 321 321 321 321 321 320 320 320 320
317 317 319 322 322 324 324 325 326 324 324 330 330 330 333 338 340 340 341 341 333 324 323 325 330 332 335 337 331 324 321 319 319 320 320 319 320 321 320 321 321 321 321 320 320 320 320 320 320
314 313 316 320 321 322 324 324 323 322 323 323 329 326 328 332 341 342 343 341 337 330 323 325 330 333 333 336 332 325 321 319 319 319 319 320 321 321 321 321 321 321 321 320 320 320 320 320 319
315 311 315 316 319 320 321 322 324 323 322 323 328 327 327 327 330 339 344 344 338 333 326 322 326 331 333 334 332 329 324 320 320 321 320 320 321 322 321 321 321 321 321 320 320 320 319 319 319
315 312 312 316 317 319 320 319 321 321 321 321 322 327 330 328 328 335 336 344 343 335 328 323 325 329 330 333 332 329 326 322 320 321 322 321 321 322 321 321 321 321 321 320 320 319 319 319 318
312 310 313 315 316 316 317 318 319 319 319 319 320 326 329 326 326 329 333 339 345 343 335 326 322 326 331 334 333 330 327 324 321 321 321 322 322 322 321 321 321 321 321 320 320 319 319 319 318
311 313 313 314 316 317 317 317 318 318 317 319 320 323 328 326 326 327 331 334 339 345 344 331 323 324 326 331 333 332 329 326 323 321 321 322 322 321 321 321 321 321 321 320 320 319 321 322 322
311 312 312 314 315 315 315 317 317 318 319 320 321 322 326 327 326 330 332 334 337 342 347 341 326 322 325 328 331 332 330 327 324 323 321 321 322 322 322 322 321 321 321 320 320 327 328 331 333
309 309 312 313 313 314 315 315 316 317 318 319 320 321 325 326 325 325 329 332 333 337 344 346 334 324 323 326 329 330 330 329 326 324 322 321 322 322 322 322 321 321 321 320 323 330 331 333 335
311 312 312 313 313 313 313 314 315 316 317 318 320 322 326 326 326 324 324 326 329 330 334 347 346 341 327 322 324 326 327 327 326 325 323 322 321 321 321 321 321 321 321 322 324 330 332 332 333
312 311 309 311 313 312 314 313 314 316 318 319 321 322 326 326 326 327 326 324 325 325 325 332 338 337 345 341 324 322 324 327 328 326 324 323 322 322 321 321 321 321 321 323 326 328 330 333 334
309 309 310 310 312 313 314 313 313 315 318 319 320 321 321 321 322 325 326 324 323 323 325 325 325 329 343 345 335 324 322 323 325 326 325 323 323 323 322 321 321 320 320 321 324 328 329 330 332
306 308 309 310 311 312 312 312 313 316 314 316 317 319 320 320 321 321 325 324 322 322 323 325 325 329 340 347 339 328 326 326 328 328 326 324 323 323 322 322 321 320 320 321 325 331 334 333 330
308 308 309 310 311 312 311 311 311 314 314 314 314 316 318 319 320 320 320 320 321 321 323 325 325 327 342 346 342 332 332 334 327 333 334 329 324 322 321 321 321 324 324 326 328 335 337 336 334
309 309 309 310 311 312 311 311 310 312 313 312 314 314 317 318 319 318 318 319 320 321 323 326 325 325 338 345 343 336 335 343 341 329 328 340 334 328 328 323 327 336 338 339 341 341 339 335 333
310 310 311 311 311 311 311 311 310 311 312 313 314 313 316 317 318 319 319 319 319 321 324 326 329 329 326 343 344 341 340 344 346 342 334 333 339 339 338 339 333 340 340 338 340 339 337 334 332
311 311 311 311 312 311 311 310 311 313 313 315 315 314 315 317 317 319 320 320 321 323 324 327 330 342 344 345 345 344 344 343 343 344 342 343 342 340 341 340 338 340 343 342 339 339 337 332 334
311 311 311 312 312 310 311 312 310 311 311 311 312 314 314 314 315 316 318 320 320 320 323 325 326 326 329 335 345 345 343 341 343 341 339 340 343 342 343 341 337 330 332 335 332 334 333 333 333
312 313 312 312 311 310 310 309 309 310 311 310 310 314 314 315 315 315 316 318 321 322 323 324 324 322 321 320 319 329 338 341 340 340 341 341 340 341 341 338 337 335 331 330 330 330 336 335 335
316 313 311 308 307 310 310 309 312 311 310 311 310 313 315 316 317 317 315 315 320 323 323 322 321 320 320 319 317 317 316 327 339 339 340 340 338 337 340 339 338 338 335 334 333 330 330 330 337
317 314 313 312 311 314 310 311 313 312 312 312 313 315 314 315 316 317 316 315 317 322 321 321 320 318 317 317 317 317 316 315 315 321 333 337 337 336 336 337 337 339 337 337 335 335 336 336 333
317 319 322 322 314 314 312 314 313 314 314 315 316 315 314 313 314 315 316 316 317 320 321 320 318 318 318 317 317 317 315 314 314 316 318 322 324 331 335 336 336 336 337 338 332 336 337 339 333
318 319 317 321 319 321 315 312 313 313 314 313 315 316 315 314 314 314 314 316 318 321 320 318 318 318 317 317 316 315 315 315 314 315 316 315 315 316 318 321 324 330 334 335 336 336 335 336 337
316 314 316 317 321 322 315 313 313 313 313 314 315 313 316 316 316 315 316 319 323 320 318 318 318 317 316 315 315 315 315 315 315 314 314 313 313 313 313 313 315 317 323 328 334 336 335 337 335
314 316 316 316 317 319 317 313 311 315 314 313 314 315 316 317 317 316 316 316 316 319 320 318 316 316 316 316 315 315 315 316 316 316 316 315 315 315 315 315 315 314 314 316 319 325 327 331 334
312 314 314 312 318 318 318 314 314 313 313 313 313 316 317 317 317 317 316 316 315 317 316 318 317 317 317 316 316 316 316 316 316 316 315 315 316 316 316 316 316 316 317 318 318 320 322 325 322

GFSSGP_850_thetae_072.txt.gz
Theta_e
322 322 323 326 318 316 319 319 321 320 321 322 322 337 338 339 338 338 343 338 330 327 330 340 340 338 337 336 335 332 335 342 343 343 342 338 333 329 326 321 319 318 317 318 319 320 321 321 324
323 322 324 324 316 319 318 320 321 320 323 323 323 337 338 339 345 344 342 333 331 326 331 340 340 339 337 336 335 331 331 333 336 337 336 333 331 325 321 318 318 319 320 320 322 322 323 323 326
322 320 323 318 314 316 319 320 321 322 325 321 324 333 335 337 345 345 340 339 335 327 331 340 340 339 338 337 336 330 330 333 333 333 332 331 327 321 319 319 320 320 320 321 321 322 323 323 325
322 320 323 321 322 319 319 321 323 324 326 323 328 332 334 335 341 341 343 342 339 326 328 339 341 340 338 338 337 329 327 328 332 332 331 328 322 319 319 320 321 321 321 321 321 321 321 322 323
319 319 320 323 323 322 321 323 324 324 323 323 327 332 335 339 342 340 338 334 332 324 329 338 341 340 339 339 337 327 324 323 321 326 327 324 320 319 320 321 322 321 321 320 320 320 319 320 320
316 317 317 320 322 323 323 324 324 323 322 323 326 331 333 339 341 342 339 334 328 323 325 335 341 341 339 338 337 327 322 319 320 325 323 320 319 320 321 322 321 321 321 320 320 320 320 320 319
313 313 315 318 321 321 322 323 322 320 322 322 322 327 330 334 340 341 340 334 326 324 325 332 339 341 339 337 334 327 322 319 321 322 321 319 320 322 322 322 321 321 320 320 320 320 320 319 319
315 311 314 316 319 320 320 321 322 321 321 321 321 326 325 331 338 342 342 336 330 325 325 330 335 340 339 338 333 326 323 320 320 321 320 320 321 322 322 322 321 321 320 320 320 319 319 319 318
314 310 311 315 316 319 319 317 319 320 320 320 320 321 321 327 332 340 343 340 333 329 326 326 330 337 338 337 336 329 324 321 319 320 320 321 321 322 322 321 321 320 320 320 319 319 319 318 318
311 309 312 312 315 316 316 317 317 318 318 318 319 322 321 327 326 337 341 343 340 338 332 326 327 330 336 336 334 330 327 323 320 319 320 321 322 322 322 321 320 320 320 319 319 319 319 319 319
311 311 312 313 315 316 315 315 316 317 316 317 319 320 320 325 327 331 339 338 337 339 335 333 325 328 332 334 334 331 327 324 322 320 320 321 322 322 322 321 321 320 320 319 319 319 319 324 323
311 310 313 314 315 315 314 316 315 316 317 318 318 318 319 321 326 327 329 333 338 341 341 336 331 324 328 333 332 330 330 327 323 321 320 321 321 322 322 321 320 320 320 320 319 320 330 330 333
309 309 312 312 312 312 312 312 313 314 315 316 316 317 318 319 325 327 327 330 337 340 344 343 335 327 324 329 332 331 327 327 326 322 321 321 321 322 321 321 321 320 320 320 320 325 332 334 335
311 310 311 312 312 312 311 312 312 314 315 316 316 317 318 318 323 327 329 331 331 332 337 343 344 333 326 324 327 329 330 328 327 324 322 322 321 321 322 321 321 320 320 320 320 324 330 333 334
311 310 308 310 312 311 311 312 311 314 316 316 317 318 319 323 323 326 327 327 327 327 330 335 344 343 331 325 323 325 327 328 327 325 324 323 322 321 321 321 321 320 320 320 325 329 330 329 332
309 307 309 309 310 312 312 313 312 315 315 316 318 319 319 323 325 323 324 324 325 326 326 327 339 344 342 337 331 326 326 330 328 328 326 326 325 324 322 322 321 321 320 320 322 328 331 331 329
304 307 308 308 309 310 310 310 311 314 313 314 315 317 317 317 318 322 325 325 325 324 324 324 325 329 333 334 335 335 328 326 326 329 329 327 327 326 325 325 323 323 321 320 321 324 328 331 333
307 308 308 309 309 310 309 309 309 313 312 312 313 314 315 316 317 318 320 323 324 323 323 323 323 324 328 339 341 340 334 330 327 327 329 329 328 327 326 325 327 324 322 321 320 324 327 338 337
308 308 308 309 310 310 309 309 309 311 312 311 312 312 314 316 317 317 317 319 322 321 322 323 323 323 326 332 340 345 344 338 330 328 328 330 327 325 324 324 323 326 322 321 324 334 338 339 333
309 309 309 309 310 308 309 310 309 309 310 312 313 314 315 314 315 316 317 318 318 319 321 321 321 324 325 326 336 344 344 339 333 328 328 328 332 337 336 332 324 322 323 329 334 329 338 340 337
309 309 310 310 311 310 310 310 310 310 310 313 314 314 314 315 315 315 317 317 318 318 318 320 320 324 326 325 336 344 342 339 336 338 338 335 331 329 332 339 335 331 330 334 340 337 336 338 334
310 310 310 311 310 311 310 312 310 309 309 310 313 314 314 314 314 314 315 318 319 318 319 319 321 325 327 326 334 342 342 341 340 340 338 337 338 339 339 335 336 339 340 341 342 340 333 332 332
314 314 314 314 312 309 310 308 311 309 309 309 309 313 314 314 314 315 315 315 315 320 320 322 325 328 331 334 337 342 343 341 341 340 341 340 340 340 338 339 342 340 339 335 339 339 332 330 330
315 315 313 307 306 310 312 309 312 312 309 309 309 311 313 316 316 316 316 316 316 316 322 325 328 330 334 335 335 332 334 336 334 335 336 338 340 338 339 338 340 340 339 335 331 334 335 331 330
314 313 314 315 310 316 310 308 311 311 310 309 310 313 314 315 315 316 315 316 316 315 318 326 328 327 324 322 321 319 318 317 321 328 333 338 338 335 339 338 337 339 339 339 338 337 336 336 336
316 315 314 315 316 315 315 314 313 312 312 313 314 314 315 315 315 316 316 316 315 315 315 321 324 321 320 319 318 317 317 316 316 315 315 319 327 335 337 337 335 336 337 336 337 337 336 334 334
315 316 314 317 318 319 315 314 313 312 313 313 313 313 315 315 315 315 316 314 313 314 315 319 324 322 320 318 317 317 317 316 315 314 315 318 320 323 326 332 334 334 335 334 335 335 335 334 334
315 313 317 318 319 316 316 314 315 314 314 313 312 313 314 314 316 316 315 317 318 317 318 322 325 321 318 317 317 316 315 314 314 314 314 314 315 314 314 315 317 320 323 327 329 330 331 332 332
312 314 314 316 317 318 318 316 314 316 314 313 312 313 313 315 315 316 316 316 316 318 320 324 320 318 318 316 315 314 314 314 314 314 314 314 315 315 314 314 314 314 314 314 315 317 319 323 328
311 311 311 308 306 310 307 312 314 315 314 311 312 311 311 310 314 315 316 316 316 316 317 319 319 317 317 315 315 315 315 315 315 315 315 315 315 315 316 317 316 316 315 316 316 316 317 317 316

GFSSGP_850_thetae_075.txt.gz
Theta_e
323 323 322 325 323 323 323 324 324 324 325 324 323 335 341 340 341 339 342 338 333 328 328 338 344 344 341 340 339 340 341 345 346 346 344 342 331 324 322 320 320 319 318 317 318 320 320 321 329
323 323 322 323 323 321 322 323 325 326 326 324 320 332 341 344 344 344 343 334 333 328 327 338 343 341 339 337 336 337 340 345 346 344 342 337 327 322 320 319 319 318 319 320 321 321 322 325 329
322 322 323 326 323 322 322 323 325 326 326 323 325 333 336 341 345 345 340 330 329 328 328 337 340 338 337 336 335 334 339 343 344 343 339 333 324 321 319 319 319 319 320 321 322 322 323 327 329
321 321 322 326 326 324 321 323 325 326 326 324 324 334 334 335 336 345 335 337 329 327 327 336 339 338 337 335 334 332 331 336 340 338 334 330 323 320 320 320 320 320 320 321 322 322 322 324 326
320 320 324 326 326 325 323 324 325 326 325 325 326 329 336 340 342 343 337 341 332 326 327 336 339 338 337 336 335 333 328 330 333 333 331 327 321 320 320 321 321 321 321 321 320 320 321 321 322
318 319 324 324 325 324 324 324 324 325 325 325 324 324 333 336 343 340 340 341 335 327 328 334 339 339 337 337 337 333 327 330 332 332 330 325 320 320 321 322 322 321 321 320 320 319 319 319 319
319 321 322 323 323 323 323 322 323 323 324 325 322 325 326 325 336 342 338 335 333 327 329 335 339 339 337 337 338 335 327 326 327 328 328 323 320 320 321 322 321 320 320 320 320 320 320 319 319
316 319 320 321 321 322 321 321 321 322 323 321 321 326 324 322 322 342 339 334 331 325 327 332 338 340 339 337 338 336 327 325 323 325 326 322 320 320 321 321 320 320 320 320 319 319 319 319 318
314 319 320 320 320 320 318 319 319 319 319 320 320 321 321 322 324 335 339 334 329 326 325 330 334 339 339 338 338 336 327 324 323 328 327 322 319 320 321 321 320 320 320 320 319 319 318 318 317
316 318 319 317 318 319 318 318 318 318 319 319 319 320 320 320 324 336 342 336 332 331 326 327 330 335 339 338 338 336 327 323 322 325 326 323 319 321 321 321 320 320 320 319 319 318 318 318 318
313 316 315 315 316 316 316 316 316 317 318 318 318 319 319 319 321 330 342 342 337 333 330 328 328 330 334 338 337 336 330 324 321 321 323 321 319 320 320 320 320 320 319 319 319 318 318 320 325
314 312 314 315 315 315 316 316 316 316 317 317 317 317 318 318 319 323 336 340 342 339 335 332 328 328 330 336 336 335 329 326 322 320 320 320 319 320 320 320 320 320 319 319 319 318 323 331 332
313 312 312 313 312 312 313 313 314 314 314 315 315 316 316 317 319 319 320 336 341 338 338 337 333 329 328 332 336 335 331 326 324 321 320 319 320 320 320 320 320 320 319 319 319 319 330 335 335
312 311 312 312 313 312 313 314 314 315 315 315 316 316 316 318 319 319 320 324 331 330 336 340 339 337 330 327 331 334 333 329 327 324 321 320 320 321 321 320 320 320 320 319 319 321 325 333 335
311 313 313 313 313 314 313 315 314 314 315 315 316 317 317 317 318 321 322 326 329 329 334 339 342 343 340 331 326 331 335 335 331 329 327 322 321 321 321 321 321 320 320 320 320 322 328 330 331
312 312 314 313 312 313 313 315 316 314 314 315 316 316 317 318 318 323 323 324 328 332 330 329 333 337 343 341 330 328 332 334 332 330 329 328 325 322 321 321 321 321 321 321 320 322 325 328 329
311 312 312 313 312 313 313 314 314 314 315 314 315 315 316 316 316 317 318 324 332 332 328 327 328 333 341 345 337 330 331 332 332 332 328 328 330 328 323 322 322 322 322 321 321 321 321 324 326
312 312 312 313 314 313 314 314 315 314 314 315 315 315 315 315 316 316 316 317 323 330 330 327 327 330 338 343 341 333 331 332 332 335 332 327 329 334 328 325 324 325 323 323 322 322 321 323 326
312 312 313 314 314 313 314 315 315 315 315 315 316 315 314 315 316 316 316 317 317 321 327 329 326 325 328 333 337 338 335 334 331 330 330 329 332 331 332 331 328 328 326 323 323 323 321 329 336
312 313 314 314 314 313 315 316 316 315 315 315 316 316 315 315 315 316 316 316 317 317 319 324 325 328 327 326 329 336 338 339 339 337 333 331 332 331 324 331 331 332 331 324 325 324 324 328 337
313 313 314 314 315 316 315 316 316 315 314 314 315 315 315 315 314 315 315 315 315 316 318 321 323 323 325 327 330 337 339 342 343 343 338 330 329 331 330 328 328 331 330 329 326 324 326 335 340
314 313 314 316 317 317 316 318 317 316 316 316 315 315 316 315 314 314 314 314 314 316 318 317 318 321 323 327 328 332 330 334 335 342 338 331 329 328 329 331 334 332 337 333 329 325 332 339 341
315 316 318 318 318 317 316 317 316 315 315 315 316 315 315 315 314 314 314 315 315 315 315 319 318 319 320 323 326 333 331 337 335 341 338 335 335 336 337 335 339 339 337 337 338 336 339 341 339
317 318 317 314 315 317 317 317 316 317 317 316 316 314 314 314 314 314 315 315 315 315 315 315 320 320 320 322 331 334 331 335 341 341 340 340 339 338 338 338 339 339 339 342 339 339 340 337 335
317 317 317 316 316 316 316 317 316 316 315 316 316 315 315 316 316 315 315 315 315 315 315 316 316 323 325 330 334 333 333 333 337 340 337 339 338 337 333 337 340 338 339 339 339 338 333 333 329
316 316 316 316 313 313 313 315 314 316 316 316 315 315 316 316 316 317 316 316 316 316 315 316 316 320 326 332 335 339 341 340 339 335 331 329 331 333 335 338 337 335 338 337 337 338 337 334 327
317 316 317 316 315 317 314 315 315 317 318 316 316 316 316 316 316 316 317 316 317 317 315 316 316 316 325 329 335 334 332 332 324 319 318 317 318 320 332 338 338 338 337 336 338 338 337 337 336
316 316 317 318 317 314 313 314 316 318 317 316 315 315 314 314 315 316 316 316 316 317 319 313 314 315 321 329 329 327 320 316 316 315 315 315 315 317 320 325 333 336 336 336 337 336 335 335 335
315 317 317 316 316 316 314 312 317 317 314 315 314 314 313 312 312 313 315 316 316 316 318 320 317 317 323 323 321 317 316 316 314 314 314 314 315 316 317 318 318 321 322 322 324 324 324 325 325
313 313 315 317 315 314 315 313 312 313 316 314 314 313 312 312 311 311 311 312 315 316 316 320 321 321 324 321 317 316 315 314 314 314 314 314 313 314 314 315 315 316 317 317 317 317 317 316 316

GFSSGP_850_thetae_078.txt.gz
Theta_e
323 322 324 326 327 325 330 330 332 331 329 328 328 329 341 341 339 346 350 350 345 346 329 332 336 344 346 345 344 344 345 346 346 344 343 341 331 326 322 322 322 322 321 319 319 318 317 323 325
322 323 325 327 328 327 328 327 329 330 328 328 327 330 341 344 345 349 350 348 346 348 326 328 336 344 346 345 344 344 344 345 346 345 344 341 328 323 321 321 321 320 319 320 320 320 321 329 330
321 322 326 329 330 329 327 325 329 328 328 327 329 335 339 343 345 349 350 348 347 349 332 328 336 343 343 343 342 342 343 345 346 345 343 339 326 322 320 320 320 319 320 321 322 322 325 329 330
320 323 325 328 330 329 325 327 328 328 328 328 329 335 338 340 342 349 348 346 348 349 347 333 339 341 340 339 338 339 341 345 346 345 342 336 324 321 320 320 320 320 322 322 323 323 325 327 327
320 324 328 329 329 329 326 326 327 328 328 329 328 333 339 349 352 351 343 347 348 348 349 335 340 340 338 337 337 339 340 345 346 344 341 334 325 321 320 320 320 321 322 322 322 322 322 323 324
321 323 328 330 329 327 326 327 327 327 327 328 328 329 333 337 349 352 348 348 347 348 350 338 340 339 337 337 337 337 340 343 344 343 339 333 325 321 320 320 320 321 321 321 320 320 320 320 321
319 324 326 328 328 326 325 325 326 327 327 327 326 328 329 328 335 352 351 349 347 347 349 348 339 338 337 336 335 335 334 335 337 338 335 331 325 321 320 320 320 320 320 320 319 319 319 319 319
318 321 323 323 324 324 324 323 324 324 325 324 324 328 328 324 329 347 352 350 347 347 347 349 347 339 337 336 336 335 332 331 333 334 333 331 325 321 319 320 320 320 320 319 319 319 319 319 319
318 321 321 321 322 322 321 322 322 322 322 322 323 324 324 324 331 344 351 349 347 345 346 347 347 347 344 343 337 337 334 329 329 332 333 332 329 322 319 319 320 319 319 319 319 319 319 318 318
319 320 320 320 321 321 320 321 320 321 322 322 322 322 323 323 328 337 346 349 347 345 345 346 349 347 346 344 345 337 336 330 327 326 328 332 334 335 331 321 319 319 319 319 319 319 318 318 327
317 319 320 319 318 319 319 319 319 320 321 321 321 321 322 322 322 324 335 345 347 345 345 346 350 350 348 345 346 343 344 341 331 325 326 332 339 337 334 333 319 319 319 319 318 318 318 325 325
317 317 318 318 317 317 318 317 318 318 318 318 318 319 319 320 322 323 324 336 345 345 346 347 350 349 348 347 347 346 345 343 341 334 326 337 337 328 331 335 332 323 328 328 326 330 325 323 329
317 317 316 316 316 316 316 316 317 317 316 316 316 317 318 319 321 322 323 326 338 345 347 348 349 348 341 344 347 347 346 344 340 338 327 335 337 331 328 336 336 336 334 330 325 326 319 333 334
316 316 316 315 316 316 316 317 316 317 317 317 317 318 318 319 320 322 323 324 327 342 347 349 349 345 334 332 341 341 342 345 342 340 328 322 323 323 320 321 322 327 332 333 332 325 320 331 338
315 316 317 316 317 317 317 318 318 317 317 317 318 318 319 319 319 321 322 323 327 335 343 349 349 347 336 332 331 338 345 345 344 341 333 321 320 320 320 321 321 322 320 320 320 320 320 327 331
316 316 317 318 316 316 316 316 319 317 317 317 317 318 318 319 320 321 323 326 328 336 344 348 349 348 341 338 332 331 340 336 346 344 336 322 320 320 320 320 321 322 321 320 320 320 331 337 340
316 316 316 316 316 316 316 316 317 316 316 317 317 318 318 318 319 320 321 321 323 331 345 349 349 350 341 343 345 345 343 345 345 345 344 333 323 321 320 322 334 325 324 326 321 322 323 336 337
316 315 315 315 316 317 317 317 318 317 317 317 317 317 318 318 318 319 320 320 320 319 334 346 350 349 351 349 349 350 348 347 346 346 345 343 328 326 323 322 322 322 330 335 334 325 328 330 337
315 315 316 317 317 317 318 318 318 318 317 318 317 317 318 318 318 318 319 316 317 317 317 319 333 340 348 349 348 350 349 348 347 346 346 341 334 332 333 325 325 325 325 335 326 326 323 334 325
315 316 317 317 317 317 318 318 319 319 319 318 318 318 317 317 318 318 318 320 316 317 317 317 318 324 335 344 346 350 350 349 348 346 346 343 333 333 333 328 329 327 330 332 332 326 330 328 339
316 317 317 317 318 318 319 320 320 319 318 318 317 317 317 317 318 318 318 319 320 316 317 317 317 319 324 332 340 345 347 346 345 345 344 335 333 333 329 329 330 332 325 333 332 329 329 336 342
317 317 316 317 319 320 320 321 321 320 320 320 318 318 318 317 317 318 318 318 318 320 320 317 316 317 320 326 344 343 334 339 332 341 340 340 338 333 330 329 327 326 327 334 333 335 331 333 338
317 317 318 319 320 321 320 320 320 320 319 319 320 318 318 317 317 317 317 317 318 320 321 322 316 317 317 331 329 343 345 343 345 345 334 340 344 338 330 329 331 331 330 333 339 339 335 336 338
318 318 319 320 320 321 320 319 319 318 318 318 317 316 317 317 317 318 318 319 319 319 319 320 324 317 318 327 335 336 341 341 344 346 345 331 346 340 330 329 330 331 332 333 336 337 339 337 330
319 320 321 320 320 320 318 316 317 317 318 318 319 318 317 318 319 319 319 319 320 320 320 321 321 326 320 331 337 338 337 343 343 347 347 348 345 346 343 333 334 335 336 341 341 340 341 340 339
319 319 320 321 320 318 315 314 316 317 318 318 318 318 318 318 319 319 319 320 320 320 321 323 320 322 329 335 339 341 342 342 344 347 345 346 343 345 347 342 343 343 346 344 344 341 340 340 337
319 319 318 317 316 317 316 316 316 318 320 319 318 317 317 316 316 317 318 319 319 320 320 322 323 321 326 334 341 342 344 345 345 345 347 346 344 341 346 347 345 344 344 346 344 343 341 339 338
315 317 317 318 318 315 314 314 314 317 318 317 317 316 315 315 315 315 315 316 318 319 319 320 323 324 323 330 339 344 347 348 347 348 347 345 343 340 343 342 342 343 344 345 342 343 341 340 338
317 317 317 317 319 318 316 314 315 315 315 315 316 314 313 314 314 314 314 315 315 316 318 319 322 324 323 328 335 341 344 344 343 340 335 332 323 318 317 323 333 338 339 341 342 341 341 341 341
313 314 315 320 316 318 318 317 315 315 315 316 315 313 314 314 314 313 314 314 314 315 316 319 320 323 324 326 332 336 337 333 330 322 318 316 315 315 320 327 329 331 332 334 336 336 336 338 338

GFSSGP_850_thetae_081.txt.gz
Theta_e
323 325 325 326 329 329 334 337 338 338 335 332 332 332 336 340 343 351 350 351 347 355 337 336 334 340 345 344 343 340 344 343 339 339 339 334 326 324 324 328 328 327 325 322 320 319 321 325 329
323 324 325 327 331 332 333 335 335 336 334 332 331 332 334 340 345 348 350 349 346 356 340 337 333 340 345 345 344 344 344 345 342 340 341 336 327 325 324 324 326 325 322 320 319 320 325 327 329
322 323 326 330 332 333 333 334 332 333 331 331 332 335 338 344 345 349 353 350 347 354 350 339 334 341 345 345 344 344 344 345 345 342 343 337 328 325 323 323 322 321 320 319 320 322 327 328 328
322 323 325 330 332 333 333 329 331 330 330 330 331 334 338 350 350 350 353 349 349 352 350 336 335 342 345 345 344 344 344 345 346 343 343 339 329 326 322 321 321 320 319 321 322 324 326 326 326
321 323 328 330 332 333 332 328 328 330 330 330 330 335 341 348 352 350 347 348 350 350 350 343 337 343 344 343 344 344 344 345 346 345 343 340 331 327 322 321 320 319 320 322 323 324 324 325 324
322 324 328 331 332 331 331 329 328 329 329 329 330 331 336 333 351 350 347 348 347 348 351 342 338 342 342 339 340 340 342 344 346 345 343 340 332 326 322 320 320 320 321 321 321 322 322 322 322
322 326 328 329 331 331 331 328 329 329 329 329 329 331 333 329 334 352 349 347 347 347 350 353 339 342 340 338 336 337 340 344 346 346 344 340 333 326 322 320 320 320 321 321 320 320 320 320 319
319 324 327 327 328 330 330 328 328 328 328 328 327 330 332 327 332 347 351 349 346 348 348 351 348 340 339 337 337 336 340 343 346 346 344 341 334 328 322 320 320 320 320 319 319 319 319 319 319
319 321 322 324 325 328 328 327 326 326 327 326 326 326 328 326 329 341 350 349 347 346 346 349 348 348 347 346 338 338 337 340 341 342 343 339 336 330 324 320 319 320 319 319 319 319 319 319 318
321 321 322 322 323 323 325 324 323 323 327 326 326 326 325 325 327 333 345 348 346 346 346 348 349 348 347 344 346 336 336 335 335 337 337 338 338 341 338 329 320 319 319 319 319 319 319 318 322
320 321 322 322 322 322 322 322 322 322 323 325 327 326 325 324 326 326 329 342 346 346 345 347 349 350 347 344 346 345 345 344 340 341 339 335 342 342 335 334 321 319 318 318 319 319 318 319 330
320 320 320 321 321 320 321 319 320 320 321 320 321 322 322 322 323 324 325 327 340 346 346 347 349 351 349 346 346 348 345 345 342 342 342 339 342 340 336 337 336 320 325 323 328 327 324 332 333
320 320 319 319 320 319 318 319 319 319 319 319 319 319 319 320 321 323 325 326 328 341 347 347 349 353 351 347 346 348 345 345 343 342 341 343 343 341 340 337 337 332 334 328 333 333 334 332 333
319 319 319 318 319 319 319 319 318 318 318 319 318 319 319 319 320 322 324 325 326 331 342 348 349 351 354 347 348 347 347 346 344 341 340 329 344 342 341 337 338 337 336 336 335 333 333 329 341
319 319 319 319 319 319 319 320 320 318 319 319 319 319 320 320 320 321 323 325 326 327 331 346 349 352 352 351 347 350 349 348 346 343 340 324 325 336 334 337 337 338 338 335 336 334 333 334 338
319 319 319 321 320 319 318 319 321 319 319 318 318 319 319 320 320 321 322 323 326 330 330 337 348 351 352 352 351 350 349 347 347 340 342 333 329 325 325 334 337 339 338 334 336 335 334 334 337
319 319 320 320 320 319 318 319 320 319 319 319 319 319 319 319 320 320 321 323 324 325 333 341 346 349 351 353 352 351 350 349 345 346 343 336 329 324 325 335 334 333 338 339 336 335 328 335 339
319 319 318 318 319 319 318 319 319 319 319 319 319 319 319 319 319 319 321 322 323 324 327 342 349 351 352 353 353 351 351 349 348 347 346 345 342 325 325 332 334 330 329 337 330 335 335 335 336
318 319 319 319 319 319 319 320 320 320 319 320 320 319 319 319 319 320 320 320 321 323 324 321 340 351 352 354 354 352 352 351 348 347 347 346 346 343 332 330 337 334 336 333 335 337 332 337 336
318 318 319 319 320 319 320 320 321 322 321 321 321 320 320 320 319 319 320 319 320 322 324 326 324 341 351 352 353 352 351 351 351 349 347 347 349 347 336 325 330 335 331 332 334 330 332 330 338
319 319 319 320 320 320 320 321 322 322 322 321 320 320 320 319 319 319 319 320 320 321 323 325 325 326 344 342 351 352 351 351 351 351 349 347 348 347 341 328 333 343 341 333 324 324 325 326 338
319 319 319 319 319 321 322 323 323 323 323 322 321 321 320 320 320 319 319 320 320 320 320 321 324 328 327 347 345 350 350 352 351 351 349 349 348 346 345 341 344 339 346 341 340 331 330 332 337
319 319 320 321 321 322 323 323 323 323 322 322 322 320 320 319 319 319 319 319 320 320 320 323 323 324 330 329 343 347 348 347 347 349 348 348 349 346 345 346 346 340 343 342 343 344 333 334 330
319 319 320 321 322 323 323 324 323 322 321 320 320 320 319 318 318 319 320 320 320 321 321 321 322 322 323 331 332 344 347 347 346 347 346 346 346 339 329 346 346 344 344 345 341 340 333 330 334
320 322 325 325 325 324 323 321 321 320 319 320 321 319 319 320 320 321 320 321 322 321 322 322 323 324 323 324 332 335 343 345 347 346 347 346 347 347 340 339 342 339 339 339 337 335 335 333 339
321 323 324 325 324 323 322 320 319 319 319 319 319 319 318 318 318 319 319 320 320 321 321 322 322 324 326 324 324 333 336 342 343 345 345 344 345 346 348 347 343 332 328 337 341 338 343 344 341
320 322 321 322 321 320 319 318 319 319 321 321 319 317 318 317 317 317 318 318 318 319 320 321 322 323 325 327 324 329 336 341 342 344 343 344 343 346 346 345 339 337 343 339 345 344 344 343 342
319 318 319 320 322 322 318 317 316 318 318 317 318 316 316 315 315 315 315 316 317 318 318 319 320 322 324 327 326 326 336 341 342 343 343 344 344 346 346 341 340 345 346 347 345 345 343 342 342
320 320 318 319 320 322 320 317 318 317 317 317 317 315 316 316 316 316 315 315 315 317 317 317 318 321 322 325 327 327 331 339 341 341 343 342 343 346 342 346 346 347 346 344 343 343 343 343 342
317 317 316 319 320 320 320 320 318 318 317 316 316 315 316 316 317 316 315 315 315 315 316 316 317 319 322 323 326 327 331 338 340 343 342 340 341 344 342 345 341 341 341 342 342 343 342 341 342

GFSSGP_850_thetae_084.txt.gz
Theta_e
323 324 326 327 329 331 332 335 336 337 339 336 333 334 336 334 346 356 352 350 354 343 333 335 335 339 345 344 338 338 340 337 336 336 334 329 325 327 331 328 326 325 324 322 321 320 324 327 328
323 324 325 326 329 330 332 334 336 338 334 333 332 332 333 337 349 350 352 350 355 344 335 334 334 340 344 343 338 340 342 340 338 338 336 328 324 325 329 329 326 325 323 320 319 321 325 329 328
322 323 325 328 329 332 333 334 335 336 333 333 333 333 335 348 348 354 353 350 357 349 335 334 335 341 344 343 342 341 344 343 340 340 339 329 325 324 325 327 326 324 321 320 320 324 327 327 327
321 323 325 327 331 331 332 334 332 335 332 332 333 334 347 350 350 351 354 350 356 353 341 334 336 341 344 344 344 343 344 345 342 340 341 331 326 324 324 324 322 321 320 321 321 325 327 326 326
319 323 326 328 329 331 333 333 330 331 332 332 332 336 346 349 351 350 350 349 354 354 352 338 336 341 344 345 344 344 344 345 344 341 342 336 327 325 323 322 321 321 321 322 323 325 325 324 323
320 323 326 329 329 330 332 333 332 329 330 330 330 332 335 340 352 347 347 350 351 352 352 336 337 341 344 345 344 344 344 345 345 343 343 340 331 327 323 321 321 320 321 322 323 323 323 322 321
321 325 326 327 329 331 331 332 331 330 330 330 329 331 331 331 341 351 348 348 348 350 355 349 336 342 344 344 343 342 343 344 345 344 343 343 335 328 325 321 320 320 321 321 321 321 321 321 320
319 324 325 326 328 329 331 332 331 330 330 329 328 329 330 328 332 347 349 348 347 348 354 353 337 342 343 342 340 339 338 341 345 345 343 344 339 332 327 322 320 320 320 320 320 320 320 320 320
318 321 324 325 327 328 329 331 331 330 328 329 328 327 327 327 328 339 350 349 347 348 350 352 337 342 342 340 338 337 337 340 344 346 345 344 342 336 329 323 320 319 319 319 319 319 319 319 319
320 321 320 322 324 326 327 328 328 327 326 328 329 329 326 327 326 330 343 349 348 347 348 351 349 343 344 348 338 337 338 341 344 346 345 345 343 338 331 325 320 319 319 319 319 319 319 319 319
319 321 321 321 321 322 324 324 324 324 325 326 329 329 328 328 326 328 329 339 347 346 346 349 349 348 346 347 346 339 337 342 343 344 344 344 343 342 338 329 321 320 319 319 319 319 319 319 321
319 320 321 322 322 322 323 323 323 322 323 323 323 323 324 323 324 324 325 326 329 344 346 346 349 349 346 345 347 344 339 337 337 342 339 337 340 341 343 334 329 320 320 319 319 319 319 319 323
319 320 320 320 321 322 321 322 321 320 320 320 320 320 320 321 321 321 322 324 326 327 339 347 349 350 349 345 348 346 346 341 340 337 338 338 337 339 342 337 336 327 320 320 320 321 321 327 325
320 320 320 320 320 320 320 320 320 319 319 319 319 319 319 319 319 320 321 322 325 326 329 344 347 350 350 348 348 348 347 344 345 342 340 334 330 336 339 335 338 336 325 323 322 325 333 333 327
320 320 321 320 320 320 320 320 320 319 319 319 320 320 320 320 320 320 321 322 324 326 327 335 348 348 350 351 346 350 347 346 346 344 341 339 330 333 331 333 333 337 333 335 335 330 332 331 326
320 320 320 321 320 320 320 320 321 321 320 319 320 319 320 320 321 321 321 321 323 325 330 329 344 349 349 350 350 350 349 347 347 346 340 340 326 337 338 324 328 328 337 335 337 336 335 332 326
319 319 319 320 321 321 320 320 320 321 320 320 319 319 319 319 320 320 321 322 324 325 326 329 333 348 350 351 351 350 351 349 349 348 345 340 329 330 323 336 328 332 338 338 336 336 335 332 325
319 319 320 320 321 321 319 319 320 319 319 320 320 319 319 319 319 320 320 321 322 323 324 325 335 347 352 351 351 352 350 350 349 349 347 344 338 336 329 339 332 332 336 339 338 336 332 325 331
319 319 320 320 320 320 319 320 320 321 320 320 320 320 321 319 319 319 319 319 320 322 323 323 324 348 348 349 354 353 351 350 350 350 351 348 345 341 335 337 336 337 334 337 338 334 332 330 330
320 319 320 320 320 320 320 320 321 321 322 321 322 322 321 321 320 319 320 320 320 320 320 322 322 324 347 351 348 353 351 350 349 350 349 350 347 345 342 339 332 336 326 327 327 329 330 331 334
319 320 320 319 320 321 321 321 321 321 322 322 322 322 321 321 320 320 320 320 320 320 322 323 323 322 326 351 348 348 348 348 350 352 350 346 346 346 346 344 337 324 324 323 334 335 337 335 331
319 320 319 320 320 320 321 322 323 323 323 323 323 322 322 322 321 320 321 322 323 322 321 321 321 323 325 327 347 348 349 348 346 351 351 350 351 350 350 346 336 329 331 331 337 340 342 339 331
319 320 320 320 321 322 322 323 324 324 324 324 324 322 321 320 320 319 320 321 322 322 321 321 322 324 325 323 324 336 345 349 346 344 349 352 350 350 349 347 343 332 336 336 334 339 335 334 335
320 320 320 321 322 323 323 324 324 324 322 322 322 321 320 320 321 321 321 321 322 323 323 322 323 323 323 325 329 325 327 340 347 345 342 344 346 348 349 348 346 339 339 333 337 344 343 340 335
321 321 322 324 327 327 325 325 326 322 321 321 321 320 319 319 320 320 320 320 321 321 321 322 323 323 323 322 324 328 332 327 338 346 342 341 343 346 351 348 347 343 337 337 337 345 342 344 341
322 323 325 328 327 325 323 324 322 321 321 320 320 320 319 319 320 319 319 319 319 319 319 319 320 321 323 324 323 324 325 332 329 334 344 342 342 341 341 348 345 345 343 343 342 343 342 341 341
321 322 322 323 323 324 322 321 321 320 322 322 321 320 318 318 319 317 316 316 317 317 319 319 319 319 320 322 323 324 327 326 335 334 337 340 344 342 341 338 342 344 346 345 344 345 345 342 336
320 321 321 321 325 324 322 320 319 319 319 318 318 317 316 316 316 318 318 317 316 316 316 318 318 319 319 319 322 323 326 327 327 337 337 340 341 343 345 345 337 345 347 347 347 345 342 343 340
320 321 320 321 322 323 321 320 321 319 319 318 317 316 316 317 317 317 317 317 317 316 316 315 316 316 317 318 320 322 323 328 326 331 335 340 339 342 346 342 344 337 347 348 345 342 343 342 340
320 319 320 324 323 324 326 323 320 320 318 318 317 318 317 318 318 317 316 316 316 316 316 316 316 316 316 317 318 320 321 325 329 329 334 336 338 340 342 345 345 345 342 344 340 340 342 338 337

GFSSGP_850_thetae_087.txt.gz
Theta_e
322 323 324 324 324 323 326 328 329 331 332 333 332 332 337 349 351 355 353 352 350 336 335 336 332 339 343 343 337 337 334 334 334 333 329 325 326 326 326 324 323 323 323 322 321 323 327 327 326
321 323 324 325 323 323 326 328 330 330 333 333 332 332 339 354 351 354 353 354 351 331 334 337 334 339 342 342 338 338 336 336 336 334 328 324 327 325 324 324 323 323 322 321 322 326 327 326 325
318 321 322 321 322 325 327 327 328 331 333 333 333 333 348 350 353 350 351 354 351 334 331 336 337 341 342 341 338 340 339 337 337 335 328 323 325 327 325 324 323 322 321 321 323 325 326 326 325
317 321 322 321 323 324 326 328 329 330 332 333 332 348 351 349 352 353 352 353 353 338 332 334 339 342 342 341 339 342 342 340 338 338 330 324 323 324 325 325 323 322 321 321 324 326 325 325 323
316 319 319 321 322 324 326 328 329 328 332 331 333 345 351 350 350 353 352 353 352 346 333 333 338 343 343 342 340 341 343 343 339 339 336 326 324 323 323 323 322 322 322 322 324 325 324 324 323
316 319 318 322 323 324 326 327 330 331 330 329 331 332 335 351 347 349 352 352 352 350 334 335 338 342 343 343 342 342 343 344 342 340 340 330 324 323 322 322 322 321 322 323 324 324 323 323 322
314 315 319 319 322 324 326 328 329 331 329 328 330 330 330 336 350 347 350 351 351 351 338 337 339 343 344 343 343 343 342 344 344 341 341 338 328 325 323 322 321 321 322 322 323 323 322 322 321
315 313 317 321 322 323 324 330 331 332 331 330 328 328 328 328 336 351 348 349 349 350 348 342 334 341 344 344 344 343 342 343 344 344 341 342 336 328 325 322 321 320 321 321 321 321 321 320 320
315 314 315 317 321 323 324 328 330 331 331 330 329 328 327 326 327 338 350 348 349 348 349 349 335 338 343 344 344 343 342 342 343 345 343 342 341 334 328 324 321 320 320 321 321 320 320 320 320
313 313 315 316 318 320 321 324 329 330 330 328 328 329 329 328 327 328 341 349 348 353 354 350 347 333 343 344 343 341 340 340 343 345 345 343 343 339 332 326 322 320 320 320 320 320 320 320 319
314 314 315 318 319 319 319 322 328 329 328 328 328 327 328 327 329 325 324 328 346 349 353 352 348 339 338 342 340 338 336 336 340 343 345 344 344 343 338 332 324 320 320 321 320 320 320 320 319
313 315 316 317 319 319 319 322 322 324 326 326 324 324 325 325 327 328 325 325 325 327 335 345 348 345 336 339 341 338 336 335 336 339 345 345 344 343 339 333 326 321 321 321 321 320 320 320 319
313 315 317 318 319 320 321 320 320 322 322 321 320 320 321 325 322 321 321 325 326 324 331 333 338 349 346 347 345 346 341 336 334 333 333 338 341 341 339 333 327 323 321 321 322 321 320 320 320
316 316 317 318 319 319 319 319 320 320 320 320 319 319 319 320 320 320 320 320 323 323 329 341 346 342 340 337 346 345 346 345 339 335 330 326 329 332 335 335 330 324 322 322 322 321 321 320 321
319 317 317 317 318 318 319 317 317 319 319 319 318 319 319 319 319 319 320 320 322 321 322 334 338 339 334 334 335 347 335 345 346 339 335 329 322 325 330 333 332 326 323 324 321 321 321 323 326
317 317 316 316 317 318 318 316 318 320 319 319 318 318 320 320 320 320 321 321 322 322 327 337 340 341 340 332 337 347 347 347 347 342 343 339 333 324 321 330 330 325 326 326 325 325 326 323 327
316 315 316 316 317 317 316 316 318 319 320 318 318 318 319 319 320 320 320 320 321 323 325 325 336 348 346 338 348 347 348 349 347 347 346 344 341 334 325 327 335 328 325 325 326 327 334 331 329
314 316 315 317 318 318 316 316 317 320 320 319 319 319 319 319 319 319 319 320 320 322 324 322 324 332 348 350 352 351 348 347 348 347 347 346 345 341 337 336 342 337 333 334 330 325 331 333 332
318 317 317 318 319 318 316 317 317 318 319 318 319 319 319 319 319 319 319 319 319 319 321 323 323 323 338 348 349 349 351 350 349 349 349 349 347 346 341 338 341 342 337 338 339 336 334 336 334
319 318 317 318 319 318 318 319 319 318 318 320 320 320 320 320 319 319 319 319 319 319 319 319 319 319 320 333 348 346 347 349 350 349 349 349 349 348 344 341 335 341 340 338 340 339 335 334 330
317 318 317 318 318 318 318 318 318 319 320 321 321 321 321 321 322 320 320 322 322 322 322 322 320 321 321 320 325 343 346 344 345 346 348 348 348 348 349 346 340 335 335 337 337 335 329 333 327
316 317 319 319 318 317 318 317 318 319 319 319 320 320 320 320 320 320 320 320 321 323 322 323 325 327 326 325 325 327 337 337 342 342 344 347 348 349 348 347 345 343 339 338 335 332 329 329 330
318 319 319 319 317 318 319 318 318 318 320 321 319 320 321 321 321 321 321 321 322 322 323 323 323 323 325 328 332 329 324 327 336 337 341 341 342 343 347 347 346 346 344 340 336 332 331 328 333
320 319 318 318 317 318 319 319 320 321 321 321 319 320 319 320 320 320 321 321 321 321 321 322 321 322 323 322 322 323 327 331 332 329 328 336 340 343 342 344 346 347 344 343 337 332 335 337 339
320 319 317 318 320 322 325 327 324 322 321 321 318 319 319 319 319 319 319 318 316 316 320 319 319 319 319 320 322 323 323 322 322 328 332 332 331 338 341 341 345 345 336 342 340 337 340 339 338
322 322 326 331 325 324 323 325 324 321 320 320 320 320 319 319 319 319 319 317 316 317 317 317 318 318 318 318 318 320 322 323 323 323 321 325 332 329 337 339 339 338 329 329 341 340 340 335 335
321 320 320 321 321 322 321 321 320 321 320 320 320 320 319 318 318 319 318 317 317 316 316 316 316 316 316 318 318 318 319 321 322 323 326 327 327 335 330 336 338 339 336 328 330 341 341 346 344
320 319 320 320 323 323 321 320 318 317 317 316 315 315 316 316 317 317 317 317 317 317 317 316 316 316 316 316 317 317 318 319 323 322 322 328 329 328 335 335 335 337 337 337 336 338 342 344 345
319 319 319 320 321 320 320 318 318 318 317 317 315 316 317 317 317 316 316 316 316 315 315 315 315 316 316 316 316 316 317 318 318 319 319 322 327 329 332 336 340 337 336 337 333 334 338 342 340
320 320 320 324 324 322 319 319 317 316 316 315 315 315 314 313 313 313 313 313 312 312 312 312 312 313 314 314 315 315 315 316 316 317 318 317 320 326 329 331 338 338 337 338 335 329 335 341 341

GFSSGP_850_thetae_090.txt.gz
Theta_e
319 322 323 323 322 319 324 326 327 328 328 331 332 347 349 349 347 345 349 347 346 328 332 341 345 343 343 340 337 334 331 333 333 331 325 323 324 326 326 325 323 322 322 322 324 326 326 326 326
316 320 322 324 321 322 322 325 327 327 329 330 330 351 351 352 353 353 351 351 343 331 331 335 345 343 342 340 337 333 332 333 330 328 324 325 325 325 324 323 323 323 323 323 325 326 326 325 327
315 317 322 318 318 322 323 325 326 327 328 330 333 349 350 353 352 353 352 350 338 331 330 333 342 344 342 339 337 334 334 335 330 327 324 325 325 323 323 323 323 322 322 323 326 326 325 324 325
317 319 320 319 320 320 324 325 326 327 329 330 348 351 350 352 352 350 353 349 339 331 332 332 340 344 342 338 337 336 336 337 332 326 323 326 324 324 323 323 323 322 322 324 325 325 324 324 325
314 317 317 318 319 319 322 323 325 326 329 330 338 350 350 350 350 351 353 348 342 333 334 333 339 344 342 338 339 338 337 338 336 329 323 324 325 324 324 323 323 322 322 324 325 325 324 323 323
315 316 315 318 320 320 320 323 325 326 328 328 335 336 343 349 346 352 354 352 345 340 334 334 340 344 342 337 339 340 340 339 338 335 325 323 323 324 324 323 322 322 322 323 324 324 323 323 322
312 310 313 316 318 319 321 323 324 326 328 329 332 329 334 348 350 350 351 352 351 347 335 337 341 344 342 338 338 341 342 340 339 339 333 325 324 323 323 323 322 322 323 323 324 323 323 322 321
314 309 314 314 317 318 320 322 323 324 330 331 329 328 327 341 347 352 353 352 351 349 337 333 339 344 343 339 338 340 342 343 341 339 340 332 326 325 323 322 322 322 323 323 323 323 322 321 321
312 310 310 312 314 316 320 319 322 323 331 331 328 327 326 332 343 349 349 353 352 348 338 334 330 339 343 342 342 342 342 343 344 342 340 341 333 327 325 322 321 321 322 323 322 322 321 321 320
310 307 310 311 313 314 317 317 319 319 325 330 331 328 327 327 327 331 349 350 352 351 350 344 335 340 340 343 343 343 343 343 343 344 341 340 340 333 327 324 322 321 321 322 322 321 321 321 320
310 311 311 313 315 316 315 317 318 318 326 331 331 329 327 325 327 328 325 337 349 349 349 351 345 341 344 345 344 344 344 343 343 343 344 343 342 341 335 328 324 321 321 322 322 321 321 321 320
310 312 313 314 315 315 315 318 320 323 322 330 329 326 322 321 326 328 322 322 327 338 343 342 341 343 342 344 345 344 342 340 340 340 343 344 343 343 340 332 325 322 321 321 322 321 321 321 320
309 311 313 315 315 315 316 316 318 320 325 329 329 327 326 321 321 326 325 320 321 330 338 344 337 338 335 342 344 343 342 339 335 336 340 344 344 343 342 337 330 324 321 321 323 322 321 321 321
314 313 314 314 315 315 316 317 318 320 320 323 325 321 321 321 320 323 325 323 320 320 325 331 334 333 334 341 341 341 336 337 341 335 333 337 343 343 342 338 332 327 323 321 323 323 321 321 320
317 313 313 314 314 314 317 317 316 319 319 319 319 320 320 319 319 319 320 319 320 319 322 325 329 339 343 341 334 334 332 333 335 344 339 335 335 337 338 335 329 327 324 322 322 322 321 321 321
315 314 314 314 314 316 317 316 316 319 319 318 319 319 319 319 319 319 319 320 320 321 322 324 328 335 336 335 336 337 332 330 331 335 342 344 337 333 339 332 329 327 325 324 323 324 324 322 321
312 314 314 314 315 316 315 315 316 318 318 318 318 318 319 319 319 319 319 319 319 322 324 326 331 333 338 342 341 335 331 330 331 334 336 341 343 337 336 341 336 338 331 326 324 324 324 324 324
314 314 314 315 317 316 315 315 315 317 318 318 318 318 319 318 319 319 319 319 319 319 323 325 329 335 341 341 341 334 330 331 346 346 345 345 345 341 340 338 334 336 339 334 330 331 326 324 324
315 315 316 316 316 317 314 316 315 315 317 316 316 318 319 319 319 319 319 319 319 319 319 324 324 324 332 341 339 332 332 346 349 348 348 346 345 345 345 344 340 337 339 338 337 336 334 329 331
315 316 316 315 317 317 317 316 316 315 316 318 318 318 319 319 319 319 318 318 320 320 321 321 322 323 323 322 322 342 346 346 346 346 346 347 346 345 345 346 345 342 338 337 342 337 339 335 335
316 316 315 316 317 316 317 315 316 317 318 319 318 319 318 317 318 318 320 321 321 322 322 321 323 326 325 331 335 336 343 342 343 343 344 344 344 346 350 347 344 345 345 340 337 340 338 340 337
316 316 317 318 316 317 317 316 315 317 316 316 318 318 320 320 321 321 321 321 322 321 323 324 325 325 325 327 327 326 333 339 340 340 338 338 340 341 342 346 346 345 345 344 342 339 339 339 340
317 316 318 318 315 316 315 316 315 317 319 318 317 320 320 321 321 321 320 320 321 321 321 321 322 323 325 326 327 329 330 330 330 329 331 337 337 335 339 340 342 344 345 345 342 342 340 340 339
320 318 315 314 314 316 317 317 316 318 319 318 317 319 319 320 320 320 320 320 320 318 317 320 322 322 322 322 322 322 322 323 325 326 325 328 330 330 329 332 336 340 341 342 341 340 340 340 339
319 316 316 317 317 319 323 325 321 320 319 318 316 318 319 319 319 319 318 318 317 316 315 315 316 316 317 317 318 317 318 319 321 321 321 320 320 321 323 326 329 332 337 340 338 335 340 340 339
321 319 322 325 325 324 324 327 322 320 318 318 318 318 318 319 319 318 318 318 317 317 317 316 316 316 316 316 316 315 315 316 316 317 320 321 321 321 320 322 322 323 333 335 340 339 334 335 331
321 320 319 322 321 322 322 321 318 319 319 318 319 319 316 316 316 317 317 317 317 317 316 316 316 316 316 315 315 315 315 316 317 318 319 320 322 322 322 323 326 325 327 334 335 340 340 332 328
320 319 322 318 321 322 321 321 319 317 316 316 313 313 313 314 315 315 315 315 315 316 316 316 316 316 316 316 317 317 316 315 315 316 317 318 318 318 319 320 323 326 329 334 336 335 335 333 329
319 318 319 318 320 319 320 319 317 317 314 311 311 312 311 312 312 312 312 312 312 313 313 313 313 313 313 313 313 314 314 315 315 315 315 316 316 316 317 318 317 320 323 331 332 335 334 334 328
319 321 320 322 321 318 316 318 315 312 312 310 310 311 311 311 311 310 309 309 309 309 309 309 309 309 309 309 310 311 311 312 314 314 314 314 317 316 315 315 315 315 317 327 332 333 335 335 337

GFSSGP_850_thetae_093.txt.gz
Theta_e
316 320 321 323 320 319 324 325 326 327 328 329 328 328 344 347 346 342 351 338 334 333 335 343 345 342 339 338 336 334 333 333 333 331 327 324 324 326 326 327 322 321 321 322 324 325 325 325 326
313 317 321 323 320 321 322 323 326 326 326 327 328 335 350 351 353 351 349 341 336 331 334 342 345 343 340 337 335 333 333 333 332 330 323 322 324 326 327 324 322 322 322 324 325 325 325 327 335
313 316 321 317 316 321 322 324 324 324 326 328 331 346 349 352 353 349 348 347 341 333 339 344 344 343 340 336 334 332 332 332 331 327 322 323 325 326 325 322 323 323 323 325 326 325 325 327 334
317 316 319 318 319 318 322 322 323 323 325 328 329 349 350 351 350 351 350 350 337 334 337 344 344 343 340 335 334 331 332 330 327 323 323 323 325 325 323 323 323 322 323 325 325 325 324 324 326
316 318 316 317 317 318 320 321 323 322 324 325 336 349 349 351 352 350 351 347 334 335 337 342 345 344 340 334 335 332 334 332 327 323 324 324 324 323 323 323 322 322 322 324 325 324 324 324 324
313 314 314 316 318 319 318 321 322 322 323 325 335 333 342 350 351 350 351 345 336 334 337 341 345 344 340 334 335 334 336 336 331 324 324 324 323 323 323 323 322 321 321 324 324 324 323 323 323
310 309 311 315 316 317 319 321 320 321 322 323 328 329 341 347 351 353 351 345 338 336 336 339 344 344 340 334 336 336 336 337 335 328 323 325 326 326 325 324 322 321 321 323 324 323 323 323 322
313 306 311 312 313 314 318 320 321 321 322 323 328 327 330 344 352 354 350 344 340 339 340 340 343 343 341 334 337 338 338 338 338 337 327 323 324 325 325 324 322 321 322 323 323 323 323 322 321
312 308 307 309 312 313 316 315 319 320 320 321 326 329 327 335 350 354 352 347 342 343 341 341 343 344 342 337 335 339 341 340 338 338 338 331 325 324 323 323 322 322 322 322 323 323 322 322 321
307 304 307 308 311 312 314 315 316 317 318 318 327 329 330 326 348 350 352 352 350 347 340 339 341 344 343 339 336 337 339 341 341 340 338 339 335 326 324 323 322 321 321 322 322 322 322 321 321
308 307 309 310 313 314 313 313 315 315 315 317 321 327 329 324 333 347 346 348 349 350 341 339 334 340 343 342 339 339 340 341 342 342 343 341 340 339 331 326 323 321 321 321 322 322 321 321 321
309 309 310 311 312 314 312 315 315 316 318 319 322 326 327 323 321 325 332 335 348 351 350 349 347 339 338 342 342 342 342 342 342 342 342 343 342 341 339 332 325 322 321 322 322 322 322 321 321
309 309 311 312 312 313 313 313 314 316 317 318 321 327 328 329 329 329 323 328 330 342 349 348 349 343 336 337 337 339 341 342 342 341 339 339 341 343 342 340 333 325 322 322 323 323 322 321 321
314 313 313 313 312 312 312 313 314 316 319 318 322 328 329 329 329 329 324 320 323 321 328 336 335 335 335 333 338 337 334 338 338 335 332 334 338 337 343 342 340 333 326 322 322 323 323 322 321
315 312 311 311 312 310 313 312 314 318 319 319 320 324 326 327 325 325 318 318 319 320 320 321 334 340 336 338 337 339 337 335 332 331 333 334 333 336 335 342 342 340 336 330 323 321 323 323 322
314 313 313 312 313 313 314 313 314 318 319 318 318 319 319 319 324 326 319 319 319 321 321 320 324 331 336 336 338 335 339 336 335 334 332 332 335 340 337 337 335 341 341 338 331 324 321 321 322
311 313 313 313 313 315 313 313 314 318 316 317 318 318 318 318 318 321 319 319 319 320 322 322 323 331 333 333 335 341 340 338 336 338 333 331 331 338 341 338 336 335 335 338 337 332 327 322 321
313 313 313 314 314 314 313 312 314 316 316 316 317 317 318 318 319 319 319 319 319 319 319 322 327 330 332 336 338 341 340 337 337 334 332 332 341 341 342 343 341 340 338 335 334 338 336 331 329
314 314 314 315 315 315 313 312 312 313 316 316 317 318 318 317 318 318 318 317 318 320 322 325 325 333 337 339 341 340 340 340 339 331 331 331 338 344 344 344 344 342 340 339 337 334 336 339 334
314 314 314 313 314 313 314 315 313 313 315 316 317 318 318 317 317 317 318 318 319 319 322 325 325 325 323 325 332 341 340 342 338 333 332 342 344 342 341 339 337 340 342 343 342 339 337 338 338
315 315 315 314 315 315 315 314 314 316 317 318 319 319 319 319 318 317 319 319 319 319 320 320 321 322 326 331 335 334 335 339 340 342 343 345 343 342 342 339 336 341 343 344 344 342 341 339 339
316 316 316 316 315 315 315 315 314 315 315 316 316 317 318 318 318 318 320 322 323 324 325 325 326 325 325 330 333 335 341 342 343 345 345 344 344 342 338 337 338 337 334 335 341 342 341 339 340
315 317 316 316 314 315 315 314 314 314 317 317 316 319 321 321 321 321 322 322 322 322 322 322 322 323 325 326 327 326 326 326 326 327 330 332 334 336 337 337 336 334 335 337 339 339 342 340 340
319 317 314 313 312 314 315 315 315 318 318 318 317 319 320 320 320 319 319 319 317 316 315 315 315 318 319 320 321 322 323 323 323 324 324 325 326 326 326 328 327 328 329 332 333 334 336 339 339
317 315 317 316 316 316 321 321 318 319 317 316 315 317 318 318 317 317 318 317 317 316 316 316 316 316 316 316 316 316 316 316 316 316 317 319 318 317 318 320 320 320 320 322 323 328 331 333 338
320 317 319 321 322 321 322 324 322 318 316 318 315 315 316 316 315 316 316 316 316 316 317 318 318 317 316 316 316 316 316 315 315 315 314 313 314 315 316 317 318 318 320 321 323 326 327 330 331
320 318 317 320 321 318 320 321 316 318 317 313 313 313 312 312 313 313 313 313 314 314 314 314 315 315 314 314 314 315 316 316 316 316 316 317 317 316 316 318 319 320 320 321 323 325 328 333 334
319 318 320 317 322 323 320 320 317 317 312 311 309 310 311 312 311 311 311 311 311 312 312 312 312 312 313 313 313 312 313 313 314 314 315 315 316 317 318 317 317 318 318 318 319 321 323 329 333
320 317 316 318 318 320 320 319 315 312 311 310 309 310 311 310 309 309 309 309 309 309 310 311 311 311 311 311 310 310 311 311 311 311 312 313 314 315 316 318 318 316 315 315 316 316 318 324 328
318 319 317 317 323 315 313 319 312 309 309 309 310 310 309 308 308 307 307 308 309 310 311 311 311 310 311 310 310 310 310 310 309 309 308 310 311 312 314 316 318 317 316 315 314 314 315 318 326

GFSSGP_850_thetae_096.txt.gz
Theta_e
313 317 320 322 318 319 324 323 324 325 325 326 326 325 326 342 344 343 350 349 343 339 336 345 343 335 330 329 330 333 339 337 335 334 331 328 324 325 326 326 322 322 322 321 321 323 324 325 326
312 315 319 322 318 320 321 322 324 324 323 325 329 336 347 349 352 353 350 338 342 338 337 344 343 335 331 331 332 333 335 334 333 331 328 324 322 325 326 323 322 322 321 323 324 325 325 326 332
312 314 321 317 316 320 321 322 322 321 325 325 325 333 347 349 352 350 346 341 336 336 337 344 343 337 334 332 333 333 333 333 332 330 325 322 323 325 326 322 322 322 323 325 325 325 326 333 337
314 316 319 317 319 318 320 321 320 321 323 324 324 336 348 351 351 351 344 348 336 334 336 344 343 339 336 333 333 333 333 332 331 329 322 322 324 325 325 322 323 322 323 325 325 324 325 330 336
316 317 312 316 317 317 318 320 321 319 321 322 324 345 345 349 352 351 351 348 337 334 342 344 344 339 336 333 334 332 332 331 329 325 322 323 325 326 324 323 323 322 323 325 325 324 324 325 329
313 314 312 313 316 317 317 320 320 320 321 322 324 328 341 347 351 351 352 350 338 334 341 345 344 341 335 332 334 331 332 329 327 324 323 323 325 326 324 324 323 322 322 325 325 324 324 324 325
309 307 310 313 314 316 317 319 319 320 320 321 322 329 336 343 351 352 350 345 339 338 341 345 344 342 335 332 333 332 334 333 327 324 324 324 324 323 324 324 323 321 321 323 325 324 324 323 323
313 305 309 311 311 312 315 317 319 320 320 321 323 324 326 328 347 353 349 342 338 340 341 343 345 343 338 333 334 333 335 336 332 326 323 324 323 323 324 324 323 321 320 321 324 324 324 323 322
312 305 307 308 311 311 316 313 315 317 319 319 319 323 327 329 344 352 351 344 340 339 340 340 344 344 339 333 334 335 335 336 337 335 326 324 325 326 325 325 323 322 320 320 322 324 324 323 322
306 304 306 306 308 310 312 313 313 315 316 315 318 321 326 328 334 350 350 350 344 340 341 341 341 343 342 335 334 337 337 337 337 337 337 330 324 323 324 324 323 322 321 321 321 322 323 323 322
306 306 305 308 311 312 312 312 313 313 313 315 317 319 320 327 327 341 349 350 349 345 343 341 340 342 342 340 336 336 339 340 340 339 338 338 336 329 324 324 323 322 322 321 322 322 322 322 321
308 307 309 308 310 313 310 313 313 314 315 317 316 317 319 325 326 337 339 332 349 348 348 340 339 340 341 340 340 338 338 339 339 340 341 342 340 338 335 328 324 323 322 322 322 322 322 322 321
307 308 310 312 311 311 311 311 311 313 315 316 316 316 318 324 322 322 325 328 331 336 349 345 341 337 336 337 335 337 340 339 338 336 335 338 341 341 340 337 331 326 323 322 321 322 322 322 321
311 311 312 313 313 311 310 310 312 314 316 315 316 319 322 326 325 326 325 325 326 323 340 349 348 344 339 337 336 336 337 336 340 340 339 335 328 333 333 336 339 336 330 325 323 321 321 321 321
313 313 311 312 312 310 311 310 311 316 316 315 318 321 325 326 324 326 327 327 325 322 325 340 339 345 347 341 336 338 339 337 336 341 341 338 337 331 330 335 327 336 341 337 331 326 322 321 320
313 311 312 312 312 312 312 312 312 317 314 316 318 319 319 323 328 327 325 320 322 322 322 323 331 334 340 340 334 336 339 340 342 341 342 338 336 336 335 337 334 329 335 342 341 337 332 326 322
308 312 312 312 312 312 312 313 313 317 315 316 317 318 318 318 318 325 323 322 324 321 320 323 325 330 339 342 340 338 341 340 339 342 342 337 334 334 336 341 340 339 336 338 341 341 340 337 332
312 312 313 312 314 314 312 311 311 314 315 316 318 317 317 317 317 317 325 324 322 320 320 321 322 325 332 344 342 341 339 338 337 340 338 335 337 338 337 336 341 342 342 340 341 341 340 339 337
313 313 313 313 313 314 313 312 312 312 311 313 316 317 317 315 316 316 318 319 319 318 319 319 322 323 326 332 340 341 335 336 341 341 338 338 336 334 334 333 343 344 343 341 342 342 341 341 340
312 313 313 313 313 312 313 313 312 312 314 313 314 316 317 317 316 316 317 317 318 318 318 319 322 324 331 333 335 337 338 341 341 342 341 340 337 333 334 342 343 339 331 340 339 336 336 340 341
313 313 313 314 314 314 314 313 313 314 315 317 317 319 319 318 317 317 318 319 319 319 320 324 324 328 330 333 337 339 340 338 335 336 338 341 337 339 340 341 341 338 330 332 330 331 334 335 336
314 314 315 315 314 313 314 314 312 313 314 315 315 317 318 318 316 320 323 325 324 322 322 324 326 326 325 327 331 332 328 329 327 326 331 335 338 341 341 342 341 338 338 338 334 333 331 334 331
315 315 315 314 313 313 314 312 312 313 316 316 315 319 320 320 321 322 322 322 322 322 323 324 324 325 326 326 327 327 327 327 329 328 328 331 330 330 329 329 330 335 337 336 336 335 335 336 333
317 315 312 311 311 313 314 313 313 317 318 317 316 317 316 317 318 318 317 317 318 318 318 319 319 319 318 318 318 319 319 318 319 320 320 322 322 322 321 321 322 322 325 327 327 328 329 332 336
316 314 315 315 314 316 318 319 315 318 316 315 314 313 314 315 315 315 315 316 316 316 316 317 317 316 316 316 316 316 315 315 315 316 316 315 315 315 315 315 315 315 316 318 319 320 320 321 323
319 315 317 318 318 318 320 321 320 315 312 312 312 311 312 312 313 313 313 313 313 314 314 315 316 316 316 316 316 315 315 315 316 315 315 315 315 315 315 314 315 315 316 315 317 319 320 320 320
319 319 316 320 318 318 318 320 316 312 312 311 310 311 311 311 311 311 311 311 312 312 312 313 313 313 313 313 313 314 314 314 315 315 315 315 315 316 316 316 316 318 318 316 317 318 319 319 319
318 316 320 317 321 322 318 319 317 314 312 310 309 309 310 309 309 309 308 309 309 310 310 311 311 312 313 313 313 313 314 313 313 312 313 312 313 313 314 315 316 316 320 319 318 317 317 317 317
318 318 316 316 314 319 318 316 313 312 310 309 308 309 309 308 308 307 308 309 310 310 311 312 312 312 313 313 313 312 312 312 312 311 311 310 310 310 310 311 313 315 319 319 318 316 316 315 316
316 316 316 318 320 311 310 314 310 308 308 308 309 308 308 307 307 307 308 308 308 310 311 311 311 312 312 312 312 313 313 312 311 310 310 309 309 308 308 308 309 311 314 317 319 316 315 315 315

GFSSGP_850_thetae_099.txt.gz
Theta_e
312 314 320 322 325 326 328 328 327 328 327 326 326 327 334 336 342 350 351 350 350 344 342 340 343 347 344 337 339 342 344 344 342 340 338 332 326 326 326 324 332 335 331 326 323 322 323 324 325
311 314 319 322 324 326 327 326 328 325 325 324 326 327 336 349 354 354 352 350 349 342 338 341 345 344 337 336 340 341 342 341 338 336 333 329 323 325 326 323 326 327 323 321 322 324 324 325 326
311 315 321 324 325 323 325 325 325 323 324 324 325 327 347 352 352 350 350 342 347 340 338 342 343 337 332 333 337 340 339 337 335 332 330 326 323 325 326 322 322 322 322 323 324 324 325 330 333
313 317 318 323 322 323 323 324 323 324 324 323 323 333 339 347 352 352 344 342 343 339 340 344 342 334 330 332 334 336 335 334 332 330 327 323 324 325 326 322 322 322 323 324 324 325 330 335 336
314 315 319 320 320 321 321 321 322 323 323 323 322 326 326 343 350 351 346 348 340 339 341 344 341 334 332 331 333 333 333 333 331 330 325 322 324 326 326 322 322 322 324 325 324 325 329 335 334
315 316 315 315 317 319 320 320 321 321 321 321 321 324 328 343 351 351 352 345 340 338 340 343 342 336 333 332 333 333 333 332 331 329 323 323 325 326 325 322 323 322 323 325 325 324 325 327 332
315 316 314 315 316 316 317 318 319 318 319 319 320 323 329 339 352 352 351 350 341 339 339 344 344 338 334 332 333 333 331 331 327 325 323 324 325 326 325 323 324 322 322 325 325 324 324 325 325
312 314 314 315 314 313 315 316 317 316 316 319 320 326 328 329 346 352 348 346 341 339 342 345 344 341 336 332 333 332 332 333 327 325 325 325 325 325 325 324 323 322 321 322 325 325 324 324 324
312 313 313 312 313 313 314 316 315 316 316 316 317 319 322 328 335 352 350 343 340 340 342 344 345 343 339 333 333 333 333 334 333 329 324 325 326 325 324 324 323 322 321 320 322 324 325 324 324
312 312 312 312 313 313 313 313 313 313 314 315 316 317 320 325 331 349 351 345 341 340 340 341 344 344 341 336 333 334 334 335 336 335 329 323 325 325 324 324 324 324 322 320 320 323 324 324 323
310 312 311 312 311 312 312 312 312 313 314 314 316 318 318 331 333 341 351 350 345 341 341 341 341 344 343 338 334 335 336 336 337 337 336 332 324 324 325 325 325 324 323 322 321 321 322 323 323
310 310 310 310 310 312 312 312 313 313 315 315 316 316 316 317 325 339 332 334 334 347 345 342 342 342 343 342 340 337 336 337 338 339 339 337 335 329 325 324 324 323 323 322 322 321 322 322 322
310 312 311 311 311 312 312 313 314 313 314 316 315 316 316 317 321 333 346 335 334 328 336 348 344 341 343 342 341 338 337 337 337 338 339 340 339 338 334 327 325 324 323 323 322 322 321 321 321
313 313 314 314 313 311 313 314 312 316 316 316 315 316 318 318 324 325 326 326 326 326 326 335 349 342 340 341 341 340 338 337 337 337 339 339 339 341 341 340 338 334 331 328 323 322 322 321 320
313 315 316 316 315 315 313 315 315 317 316 316 316 317 319 324 324 324 324 325 325 325 326 327 335 348 344 340 341 340 340 337 336 338 339 339 339 340 340 340 340 341 340 339 338 334 328 325 324
316 315 317 317 315 313 314 318 318 317 315 316 317 318 318 319 324 324 326 327 326 326 325 323 322 330 342 347 342 342 341 339 338 338 339 338 341 341 341 341 340 340 339 340 341 341 341 340 338
315 317 316 317 315 315 315 318 319 318 316 317 318 318 318 319 318 324 326 327 325 325 325 325 323 320 323 335 346 345 342 340 340 341 341 338 330 341 341 340 338 339 339 339 340 341 341 342 342
316 316 316 317 317 317 318 318 319 317 316 317 318 318 318 318 318 317 323 325 324 322 324 325 325 320 322 326 335 343 346 344 341 340 341 342 343 343 337 337 336 337 337 340 340 341 341 340 340
315 316 316 317 317 317 319 318 319 318 317 317 316 317 317 316 317 317 317 323 322 323 325 323 323 319 319 323 331 340 345 344 342 342 340 339 341 342 337 336 336 338 340 339 340 340 339 337 335
315 316 317 317 317 317 319 319 318 318 318 318 316 317 317 316 316 316 315 319 325 323 321 320 320 321 324 326 330 340 340 342 341 340 338 342 342 340 342 339 337 342 344 340 337 334 334 330 331
316 317 317 317 317 318 318 319 319 318 318 320 319 318 318 317 318 317 316 316 318 319 320 325 327 331 334 335 335 336 337 339 341 342 343 341 341 341 339 340 343 344 342 340 337 332 329 327 324
317 317 317 318 319 320 317 319 320 318 320 322 321 321 320 320 324 324 323 321 321 323 327 329 329 329 328 329 335 338 339 337 337 336 334 333 333 333 334 336 337 339 338 334 331 331 335 333 328
318 318 318 319 320 319 318 319 319 320 322 323 321 319 318 319 319 321 322 322 323 324 324 324 324 325 325 325 326 326 325 324 324 324 325 324 324 323 323 324 324 325 325 325 325 329 332 334 335
318 317 316 317 318 320 319 319 319 320 322 322 319 316 315 315 315 316 317 318 318 318 318 319 320 320 320 320 320 320 321 321 321 321 322 322 323 321 320 320 318 317 319 321 322 324 328 328 329
319 320 320 320 320 320 321 320 320 322 320 322 318 315 314 314 314 314 315 315 315 315 315 316 316 316 316 316 315 315 315 315 315 315 315 315 315 315 315 315 315 315 315 316 318 319 321 322 323
321 321 321 321 321 320 323 324 324 318 317 317 315 314 313 312 312 312 312 312 313 313 314 314 315 315 316 316 316 316 316 315 315 315 315 315 315 315 315 315 315 315 316 316 317 320 319 318 319
321 322 319 323 322 324 322 323 318 317 316 314 313 313 312 311 311 310 309 310 311 312 312 313 313 314 314 314 315 315 315 315 315 315 314 314 314 314 315 315 315 315 315 316 318 327 326 320 319
321 319 323 322 324 324 322 323 322 320 318 315 315 313 311 310 310 309 309 309 310 310 311 311 311 312 312 312 312 312 312 312 312 312 313 313 313 312 312 312 312 313 313 314 315 319 326 325 324
321 322 321 322 322 324 323 321 318 321 318 316 314 311 310 309 308 308 308 308 309 310 311 312 312 313 313 313 314 314 315 314 314 314 314 314 313 313 313 313 312 311 310 311 313 314 322 325 324
320 322 323 324 325 323 322 322 314 315 315 314 312 310 309 309 309 308 307 306 307 309 310 310 311 312 312 312 312 312 312 311 310 310 309 309 309 309 308 307 307 308 309 311 312 315 319 323 323

GFSSGP_850_thetae_102.txt.gz
Theta_e
312 314 319 323 327 330 334 335 332 334 332 330 330 332 333 337 346 352 358 358 355 355 354 347 348 348 347 344 340 344 345 345 344 342 341 337 328 328 325 326 336 334 334 333 331 323 322 324 325
316 316 320 324 325 331 333 333 332 331 329 328 329 331 337 347 353 354 357 356 356 357 353 348 347 344 346 342 339 344 345 345 344 342 340 334 328 327 325 328 336 335 333 328 323 322 324 325 325
312 316 320 323 325 327 331 331 331 329 327 327 329 332 344 351 355 357 359 355 356 357 348 344 343 345 345 336 341 344 345 344 342 340 338 331 327 327 326 326 333 329 323 321 323 324 325 325 328
315 317 319 323 323 325 325 328 329 328 327 327 327 333 334 340 355 359 355 353 356 355 353 338 344 345 338 335 340 343 343 341 339 338 334 329 325 327 326 323 323 322 321 323 324 325 327 330 333
316 318 320 321 321 322 325 325 326 327 326 327 325 328 329 353 358 359 355 354 354 353 353 343 344 339 333 334 339 341 341 338 336 333 331 326 325 326 326 322 322 322 323 324 324 326 332 335 335
316 318 318 319 320 321 322 322 323 323 323 323 323 325 330 347 358 359 357 354 352 352 353 344 342 335 331 332 335 337 335 334 332 331 329 324 325 326 326 322 323 323 324 325 324 325 332 335 335
317 319 318 319 319 319 319 319 319 319 319 320 320 323 328 336 356 359 358 355 353 352 352 348 341 335 332 332 334 334 334 333 331 330 328 323 325 327 327 323 323 323 324 325 325 325 326 329 333
315 318 318 318 318 318 318 318 317 317 318 317 319 323 331 335 350 358 357 356 353 351 351 351 349 337 333 332 333 334 333 332 330 327 325 323 324 327 329 325 324 323 322 324 325 325 324 325 325
314 317 317 317 317 318 317 317 316 316 316 317 319 322 323 333 347 357 356 354 351 350 351 351 351 347 344 343 332 333 333 332 330 326 324 324 325 325 326 325 324 323 322 321 323 325 325 324 324
315 316 317 318 317 317 316 316 315 315 316 316 316 316 319 331 341 350 355 354 351 350 351 351 353 350 346 344 342 333 332 333 333 331 325 324 330 332 337 332 325 324 323 321 320 322 324 325 329
314 316 317 316 315 315 315 315 315 316 316 316 316 317 320 321 333 342 351 354 352 352 351 349 350 351 348 345 345 341 341 338 335 336 333 328 338 340 334 339 324 325 325 323 322 320 321 324 332
314 315 315 314 313 315 316 316 317 316 316 315 315 316 320 320 321 332 345 349 354 353 352 344 341 344 346 346 345 344 345 345 345 343 337 339 337 341 341 339 339 328 336 327 332 333 325 328 328
313 315 314 314 316 316 317 317 318 317 317 316 316 317 319 320 321 322 338 343 345 347 351 347 344 343 343 344 346 346 345 345 346 346 346 344 345 344 340 339 338 337 337 336 336 335 334 330 322
315 314 317 317 318 317 318 319 318 319 318 317 318 319 320 321 322 329 340 341 341 342 348 350 347 347 344 346 344 342 343 345 347 346 346 343 345 346 346 345 345 344 341 339 338 337 337 336 334
317 318 318 318 318 319 319 320 319 319 318 319 319 319 321 323 324 329 334 333 333 332 332 334 349 345 334 345 346 348 347 341 337 342 339 344 340 341 341 347 347 347 347 347 344 344 342 337 338
318 319 320 320 319 318 319 320 321 320 319 320 320 320 321 323 325 326 326 327 330 327 330 335 334 341 327 337 348 351 350 347 346 342 338 336 336 337 338 342 346 345 346 346 346 346 346 346 345
319 319 319 320 319 319 319 321 321 320 320 320 320 321 321 322 324 326 326 326 329 330 329 327 325 327 325 334 346 348 351 349 348 348 343 340 338 332 330 332 343 343 342 343 344 345 345 344 345
318 319 319 319 319 320 320 321 321 320 320 320 320 320 321 321 322 322 325 325 327 330 326 323 324 326 326 324 343 341 350 348 350 348 345 344 342 337 330 333 341 341 338 344 345 343 346 345 345
318 319 319 319 320 320 320 321 321 321 321 321 321 320 321 321 322 322 322 325 329 331 328 325 324 327 326 324 321 341 344 348 348 348 345 342 345 345 342 340 342 339 336 336 336 337 342 346 343
318 318 318 318 319 320 321 321 321 321 322 323 322 321 321 322 321 323 322 325 327 330 324 324 322 325 325 324 320 321 342 346 346 348 348 344 342 344 344 341 343 340 339 335 341 341 341 340 339
318 318 318 317 320 320 321 322 322 322 322 324 324 322 323 322 325 325 326 328 330 333 326 324 322 322 324 325 328 331 336 339 340 346 345 345 344 343 343 343 344 341 341 342 343 342 337 337 336
318 317 317 317 319 321 322 321 323 322 323 325 325 325 324 325 327 327 326 326 326 325 324 324 326 329 332 335 340 343 344 345 345 345 343 342 340 343 344 344 342 340 340 341 340 340 338 335 337
318 317 320 320 321 322 322 321 322 322 322 326 326 325 326 326 324 323 322 322 322 323 325 325 326 326 328 332 334 335 331 330 329 327 327 325 325 324 331 337 338 336 331 331 332 336 337 337 337
319 320 321 321 321 323 322 322 321 322 323 326 324 323 322 322 321 321 320 320 319 319 319 319 319 320 320 321 321 321 321 321 320 320 319 321 322 323 320 319 320 330 336 338 338 338 337 336 338
320 322 323 321 321 321 321 322 322 324 324 325 325 322 321 321 320 320 319 318 318 317 317 317 315 315 315 315 315 315 315 315 315 315 316 316 318 319 320 316 315 316 317 319 328 333 333 334 335
321 322 321 323 321 320 323 322 322 325 323 324 322 321 320 320 319 317 317 316 316 316 316 315 315 315 316 316 316 316 316 316 316 316 316 316 315 315 315 315 315 315 315 316 319 324 328 330 330
321 323 322 323 324 325 324 324 324 323 324 322 321 320 319 318 317 316 316 316 315 315 314 314 314 314 315 315 315 315 315 315 315 315 315 314 315 315 315 315 315 314 314 315 317 321 323 325 328
322 322 323 323 325 327 323 324 324 325 324 323 321 320 318 317 316 315 315 314 314 314 314 312 312 312 312 312 313 313 313 314 314 314 315 315 315 315 315 315 315 315 315 316 316 317 319 321 323
322 322 322 323 326 327 326 325 323 325 325 323 322 319 318 316 315 314 314 313 313 313 313 313 313 312 313 313 313 314 314 314 314 314 313 312 311 311 311 311 311 312 313 314 316 316 317 319 322
323 322 323 326 325 325 325 324 320 323 324 322 320 317 316 315 314 314 313 312 312 312 312 312 312 312 312 312 311 311 311 311 310 310 310 310 309 309 309 309 309 309 310 311 311 312 315 317 318

GFSSGP_850_thetae_105.txt.gz
Theta_e
312 316 319 321 328 333 336 337 338 337 336 333 333 334 336 336 345 360 359 359 356 360 349 348 348 348 347 345 346 346 345 345 343 339 338 332 326 329 326 327 334 327 327 330 331 325 322 324 325
321 318 319 322 328 333 335 335 337 336 334 332 332 333 336 350 353 354 359 359 357 361 355 345 346 349 347 345 342 345 345 345 343 341 338 333 327 329 325 330 334 333 333 332 328 322 323 325 327
313 318 321 324 327 333 334 335 336 335 331 331 332 332 341 349 353 357 361 357 358 361 358 347 346 346 345 345 338 343 345 345 343 342 339 332 328 328 325 331 335 334 331 326 323 323 325 325 327
317 317 320 324 328 330 332 333 332 333 331 330 330 333 338 343 353 359 355 356 359 360 357 345 344 344 346 339 335 342 345 345 343 341 339 332 328 328 325 328 333 329 323 322 323 324 325 327 331
318 319 321 322 324 327 329 328 329 332 330 330 330 330 332 345 356 359 357 356 357 357 357 344 342 346 343 333 338 343 344 344 342 341 337 332 329 329 327 324 325 323 322 323 324 325 328 330 334
318 319 321 322 323 324 326 325 326 328 327 327 326 326 328 340 354 359 357 356 355 353 356 343 345 345 337 334 340 342 343 342 340 338 335 330 327 329 328 323 323 322 323 324 324 327 333 335 335
320 321 320 322 322 323 325 323 324 324 324 323 323 324 327 336 354 357 358 356 354 353 354 349 344 340 334 335 338 342 342 340 337 333 331 329 324 327 328 324 323 322 323 324 324 325 331 333 334
318 321 321 322 321 322 323 321 321 321 322 321 321 323 325 338 350 356 357 357 355 354 353 351 349 338 333 335 337 337 337 335 334 332 330 326 323 325 327 324 323 323 322 325 325 324 325 327 329
317 320 320 321 322 322 322 320 320 319 319 319 320 321 327 331 344 353 355 356 355 354 353 351 350 347 344 345 335 335 334 333 332 330 328 325 325 324 326 326 323 324 323 322 324 325 324 324 324
318 318 320 322 322 321 321 319 320 319 319 318 318 318 321 323 339 350 353 352 353 353 353 352 352 349 346 345 344 333 334 333 332 329 326 325 340 341 341 336 326 324 324 322 322 323 325 325 327
317 318 320 320 319 318 319 319 318 318 319 319 319 319 319 320 333 341 347 353 352 352 353 353 354 351 347 345 348 343 344 343 340 342 341 327 341 342 340 342 335 325 324 323 322 322 322 323 331
317 318 318 319 318 317 318 317 319 319 319 318 318 318 319 321 326 335 343 352 350 352 354 354 355 353 352 347 347 347 345 346 346 346 347 344 342 342 342 340 343 339 339 332 337 336 330 329 330
318 318 318 317 317 317 318 319 319 319 318 318 318 318 318 321 324 326 338 347 348 355 356 355 355 354 354 351 348 348 346 347 347 348 348 348 346 343 343 341 340 339 340 339 340 338 337 336 335
317 316 317 318 318 318 319 319 319 319 319 319 319 318 319 320 323 325 329 344 346 350 347 347 349 348 347 348 347 347 347 348 348 348 348 349 348 348 346 343 341 340 338 338 338 338 338 339 338
317 318 319 318 320 320 320 320 321 320 321 320 319 319 320 320 323 325 330 344 341 345 346 348 352 350 333 352 347 348 350 349 350 349 348 350 348 349 348 349 348 348 346 344 343 342 343 342 339
319 319 320 321 321 320 320 321 322 321 321 321 321 321 320 322 323 326 334 340 336 332 338 345 344 351 331 351 349 348 350 350 350 349 349 349 349 348 349 348 348 347 348 349 347 347 346 345 344
319 319 320 320 322 321 321 321 324 322 321 322 322 322 321 323 325 327 331 334 332 332 333 338 336 340 349 350 345 346 345 347 348 348 350 349 344 347 347 346 345 343 343 346 349 347 346 345 344
319 319 320 321 322 321 321 321 323 322 322 322 322 322 322 322 324 326 327 327 327 330 333 333 338 336 334 343 336 340 345 335 342 344 342 350 344 345 345 340 334 330 329 337 342 344 343 347 346
320 320 320 321 322 322 322 322 323 323 322 322 322 322 322 323 322 324 324 325 326 331 334 338 338 336 329 334 334 334 336 335 333 332 341 343 343 347 345 335 334 334 330 328 337 339 336 342 340
320 320 321 321 320 321 322 322 323 324 323 323 324 323 322 322 324 325 324 325 328 333 337 341 336 323 324 333 332 331 327 330 328 328 328 341 343 346 345 345 341 338 330 329 337 339 335 337 339
320 320 321 320 320 321 320 321 323 323 323 324 324 323 323 322 324 327 327 329 333 338 340 342 337 326 328 331 328 325 322 322 324 323 346 346 345 346 347 346 345 344 341 334 329 337 337 336 328
321 320 319 319 320 321 321 321 323 324 323 325 326 325 325 324 327 330 331 333 335 335 335 335 332 324 323 322 331 339 342 343 341 342 343 343 343 344 344 342 339 339 334 324 327 337 338 342 339
320 320 319 319 319 320 321 323 323 324 324 326 327 326 327 328 329 329 328 329 329 329 330 328 328 328 327 326 333 338 340 335 335 335 334 332 333 328 328 336 340 341 339 339 333 330 334 335 337
319 319 319 320 321 321 321 324 324 325 325 326 327 327 328 327 327 326 325 325 325 325 326 327 324 324 325 326 326 326 326 322 322 324 321 323 326 326 326 327 327 325 334 339 340 338 337 335 336
320 320 322 323 323 322 321 322 324 324 324 328 327 326 326 325 325 324 324 323 323 323 323 323 324 323 319 318 317 316 316 316 317 317 320 319 321 322 322 322 322 323 322 319 320 330 337 337 337
320 322 323 326 325 323 323 324 322 323 325 325 326 325 325 325 324 323 322 322 321 322 321 322 322 323 322 320 319 318 316 321 320 321 318 316 317 318 319 318 317 317 319 319 319 322 322 325 329
322 323 322 323 326 330 325 324 327 326 324 326 326 325 325 324 323 322 321 321 320 320 321 321 321 321 320 319 318 318 318 315 315 315 315 318 317 318 317 317 315 316 318 318 319 320 320 321 322
322 323 325 325 330 330 328 328 327 326 326 326 326 325 324 323 321 320 320 320 319 319 319 319 319 319 319 318 319 318 317 317 316 315 316 317 317 317 316 316 316 316 316 317 318 318 319 319 319
322 325 326 328 326 329 328 328 326 327 326 326 325 324 323 321 320 320 318 318 317 317 317 318 318 317 317 317 317 317 317 317 317 316 316 316 315 315 314 314 314 314 314 314 314 315 315 317 318
324 323 327 328 328 328 328 329 324 325 326 325 325 323 322 321 319 318 318 317 317 316 316 316 316 316 316 316 316 316 316 316 315 315 314 314 313 312 312 311 311 310 310 310 310 311 311 312 313

GFSSGP_850_thetae_108.txt.gz
Theta_e
313 314 317 320 325 330 334 336 336 337 339 337 335 335 336 336 354 366 359 358 359 356 339 341 343 349 348 347 345 345 344 344 340 338 335 328 325 327 325 328 327 325 327 330 329 324 323 324 325
313 322 321 321 325 331 334 334 335 336 335 334 333 334 335 355 353 362 362 357 361 359 343 343 344 345 346 345 345 345 345 345 340 338 335 328 327 326 325 333 327 327 328 330 328 323 323 325 328
312 321 320 322 324 329 332 334 335 335 333 333 333 333 335 351 354 360 359 358 362 361 345 344 345 346 345 345 342 343 345 345 342 340 337 329 327 327 326 334 332 331 330 329 325 322 324 325 329
316 319 320 322 326 328 329 333 334 335 333 332 332 332 340 346 353 358 356 358 362 361 351 346 345 347 345 345 339 340 344 345 343 341 337 330 327 328 326 333 333 331 327 324 322 323 325 326 331
319 319 320 321 323 326 329 331 332 332 333 332 331 331 336 348 354 357 357 358 361 359 357 346 345 345 345 342 335 339 344 345 343 341 338 331 326 327 326 329 334 328 323 322 324 324 325 328 333
318 319 320 320 322 324 326 327 328 329 331 331 330 329 329 347 350 358 357 358 359 359 358 346 343 344 345 335 336 341 344 345 342 340 336 331 327 328 327 324 325 323 322 323 324 326 328 330 332
319 320 319 320 322 323 325 325 327 327 328 328 327 326 326 332 353 354 357 357 356 357 359 341 341 345 340 333 337 342 344 344 341 339 336 331 325 326 327 324 323 323 323 324 324 327 332 334 333
318 320 320 321 321 322 324 324 324 324 325 325 324 323 324 345 349 353 356 356 355 355 357 340 343 344 336 335 339 342 342 342 340 338 335 332 327 326 327 326 323 323 323 324 324 324 328 331 332
318 319 320 320 321 322 324 323 322 322 321 321 322 321 328 337 343 349 352 354 354 355 355 352 349 341 335 335 338 341 341 340 338 336 334 332 327 325 327 327 323 323 323 323 325 324 324 325 326
319 319 319 321 322 323 323 322 321 321 320 320 321 321 322 326 334 342 349 350 355 354 354 352 350 345 345 343 335 337 337 336 335 334 332 329 326 325 327 327 326 323 324 323 323 324 325 324 324
318 320 320 320 321 321 321 320 320 321 320 320 320 320 320 320 324 338 344 345 355 354 353 352 350 347 345 346 343 334 335 334 333 332 331 328 329 342 340 342 336 328 324 324 323 322 322 323 324
318 319 319 319 319 320 319 319 319 319 320 320 320 320 320 320 320 325 337 341 353 350 354 352 351 348 347 348 346 342 344 341 337 334 337 338 338 342 343 342 342 337 326 324 324 324 325 324 322
318 318 318 319 319 319 318 318 318 319 320 320 319 319 319 319 320 326 333 337 352 352 352 345 337 347 349 351 349 347 346 346 345 346 346 342 338 342 342 342 342 344 342 334 336 334 337 337 337
318 318 318 318 319 319 319 318 319 319 320 319 319 319 319 319 319 325 326 335 351 352 345 342 340 346 349 350 348 349 347 347 347 348 347 346 345 344 344 343 343 341 343 341 340 339 338 338 337
318 318 319 319 318 319 319 320 320 320 320 321 321 320 320 319 320 323 325 328 350 348 342 337 334 345 345 348 348 344 347 347 348 346 349 350 349 345 347 347 344 340 338 339 339 341 342 339 339
318 319 318 319 320 318 320 320 322 321 321 321 321 320 320 320 321 321 324 330 345 350 350 347 339 331 336 330 332 338 344 347 347 350 350 349 349 349 346 347 347 348 345 344 346 343 343 342 340
319 319 319 319 321 321 320 320 322 322 322 322 322 322 322 321 321 322 326 342 338 338 338 346 350 349 338 341 341 343 347 344 341 333 333 346 348 347 347 344 343 345 348 345 341 343 339 344 346
320 320 320 320 321 321 321 321 322 323 323 323 323 323 323 322 324 325 329 339 336 332 333 341 349 345 344 341 346 342 344 345 328 325 333 341 336 339 335 338 335 344 337 335 334 334 337 343 343
320 321 321 320 321 322 322 322 322 323 323 323 323 323 323 323 324 326 329 336 333 333 334 340 338 338 338 347 343 342 341 335 335 329 334 337 340 339 336 332 329 329 336 335 341 340 333 336 338
319 319 321 321 321 323 323 322 323 323 324 323 323 323 323 323 324 326 327 327 332 337 337 337 339 339 338 336 338 336 336 335 332 334 334 330 342 344 342 342 343 340 338 335 337 338 333 334 335
319 319 320 322 321 321 321 322 323 323 323 324 324 325 324 323 326 326 326 326 335 340 342 341 340 334 335 337 334 332 330 327 325 332 338 343 339 346 347 344 343 345 341 335 329 326 322 325 325
319 319 320 321 322 321 322 322 324 323 324 324 324 325 324 324 327 327 329 334 341 342 343 345 342 336 330 333 330 332 336 336 334 335 334 336 338 337 340 342 341 340 337 332 324 326 326 324 324
320 321 321 321 321 321 320 322 322 323 324 325 327 325 324 329 331 332 334 337 335 334 334 336 334 331 327 326 324 326 335 338 340 336 333 335 335 332 329 328 336 338 339 338 339 333 332 330 330
320 321 321 321 320 321 320 321 322 324 325 325 327 326 326 331 330 330 331 330 330 330 330 328 327 327 328 330 332 332 333 333 328 328 325 321 323 326 325 324 325 322 325 335 338 338 338 336 332
321 321 320 321 322 321 321 321 322 325 326 326 327 329 330 329 328 327 327 327 326 327 327 327 326 324 323 321 321 320 318 316 319 318 320 319 318 318 320 322 322 322 321 319 318 322 331 336 337
321 322 321 323 323 322 323 324 323 326 327 326 327 328 328 327 327 326 325 325 325 325 324 325 325 325 323 319 317 316 316 317 319 319 320 318 315 317 319 318 318 318 318 318 319 319 318 317 319
321 321 322 324 326 331 328 324 325 325 328 328 326 326 326 326 325 324 324 323 323 323 323 323 323 323 321 320 318 320 318 316 316 316 315 317 318 317 318 318 317 317 317 316 316 317 318 319 319
322 322 323 324 329 331 330 328 326 326 329 328 328 327 326 325 324 323 323 322 322 322 322 321 321 321 321 320 319 318 316 316 316 315 316 317 317 317 316 316 315 315 315 314 314 314 315 317 318
322 323 324 327 327 332 332 331 329 329 328 329 327 326 326 324 323 322 322 321 320 320 320 320 319 319 319 318 318 317 316 316 317 317 317 317 316 315 314 313 313 312 312 312 311 311 312 312 313
321 323 325 331 329 329 329 332 328 328 328 327 326 326 324 323 322 321 320 319 319 318 318 318 317 317 317 317 317 317 317 317 317 316 316 315 314 312 312 311 310 308 308 308 308 307 307 307 308

GFSSGP_850_thetae_111.txt.gz
Theta_e
313 312 317 319 318 321 325 328 329 332 332 334 334 333 338 359 358 364 359 358 356 339 334 341 346 345 345 346 344 344 344 341 339 335 328 324 326 324 324 323 324 327 329 326 324 323 323 324 324
312 314 322 322 317 320 324 328 329 331 333 333 333 333 347 364 361 361 357 359 358 352 334 339 346 346 346 346 343 344 344 343 340 336 329 324 326 324 328 326 324 326 327 327 324 323 324 324 324
312 318 322 314 315 319 323 327 329 332 333 333 333 333 343 357 360 359 356 359 360 355 335 337 346 347 345 344 342 344 344 344 340 337 331 324 325 324 330 327 327 328 328 326 323 323 324 325 326
312 316 320 315 316 318 322 324 327 328 332 332 332 333 345 350 358 357 356 360 361 358 339 338 344 346 345 344 342 343 344 344 341 338 333 326 325 324 330 330 331 330 328 326 323 323 324 325 328
317 318 314 314 316 318 321 324 326 327 330 331 331 331 350 353 356 356 359 360 360 357 343 340 343 344 345 343 341 341 344 344 342 339 334 328 325 325 326 333 332 329 325 323 323 324 324 326 328
316 318 313 313 315 317 319 323 325 325 326 331 330 330 347 344 348 353 360 360 360 356 344 342 344 345 345 343 339 339 344 345 342 339 335 329 324 326 324 328 332 327 323 322 323 324 324 326 328
316 313 312 314 316 317 318 322 323 324 324 329 326 325 342 351 350 354 356 359 359 358 345 344 344 345 345 342 335 338 343 344 342 340 337 332 326 325 326 324 326 324 322 323 324 325 325 327 328
318 312 314 315 315 315 318 322 323 323 324 325 325 322 331 354 354 356 356 358 358 357 355 353 344 344 345 336 336 340 343 344 342 340 338 334 330 328 328 326 324 323 322 323 324 327 330 331 331
317 313 313 314 316 317 319 318 322 322 321 321 321 329 339 346 347 351 355 356 357 355 356 353 340 343 342 334 338 341 343 343 341 340 338 334 331 327 328 327 324 323 322 323 324 324 327 331 331
314 312 314 315 315 315 318 319 320 320 320 320 320 321 324 332 338 342 348 353 356 356 357 352 333 342 338 335 339 342 343 343 341 339 336 334 331 326 325 327 327 323 323 322 323 324 324 324 326
315 314 314 317 318 318 317 318 319 319 318 320 320 320 320 321 325 331 340 344 354 356 354 347 344 342 337 333 336 338 339 339 337 335 333 330 328 325 330 328 328 327 324 324 323 323 324 324 324
313 315 316 317 318 318 315 318 317 318 318 319 319 320 320 320 319 321 330 337 354 354 352 350 347 343 347 347 341 335 335 335 334 332 331 330 327 326 337 342 335 337 335 328 324 324 323 322 322
314 314 316 317 318 318 318 317 317 317 318 319 319 319 319 319 319 319 322 330 351 354 350 349 346 343 344 348 346 346 341 337 342 336 336 341 338 332 342 344 342 341 343 342 337 325 327 326 334
316 315 316 317 317 317 316 316 317 318 318 319 319 319 319 319 319 319 319 335 349 352 351 348 340 340 335 337 342 347 345 346 346 346 346 346 346 341 341 344 342 342 345 343 342 340 339 338 336
317 315 315 316 316 315 317 315 315 318 318 319 320 319 319 319 319 318 319 328 341 351 349 346 342 338 333 348 349 347 348 347 348 348 349 349 349 348 342 344 344 343 342 342 341 339 344 340 341
314 314 314 314 315 316 316 314 317 319 319 319 320 320 320 320 319 319 323 327 349 343 338 339 336 341 340 345 347 348 348 348 348 348 347 347 348 347 346 345 345 344 342 340 342 342 339 340 341
313 313 313 314 315 316 315 315 317 320 320 320 320 321 320 320 319 320 321 334 347 337 332 333 334 339 340 340 340 338 347 345 346 342 340 341 343 343 344 337 334 340 342 340 339 338 339 339 338
313 313 314 317 316 317 317 315 315 319 321 320 321 321 321 321 321 320 321 333 339 335 332 334 337 332 330 332 333 339 344 343 339 326 334 334 334 331 337 333 337 335 335 334 332 330 335 335 336
314 315 316 318 319 318 317 318 318 319 321 321 322 322 322 323 322 322 329 339 337 337 341 345 345 344 342 342 342 345 344 343 343 330 330 329 328 329 332 334 335 332 335 330 329 338 336 337 334
315 314 315 317 319 317 317 320 319 320 320 322 322 322 322 323 323 327 339 338 339 343 346 346 344 345 340 343 343 340 344 343 340 339 338 339 335 333 336 334 331 336 334 335 335 335 331 328 328
315 314 315 317 319 319 320 320 322 322 322 321 323 322 323 324 324 332 337 340 340 340 341 343 342 341 342 344 345 342 340 337 336 334 331 336 339 336 335 336 336 342 344 336 333 333 322 323 321
315 316 317 318 319 320 319 317 320 321 320 320 323 324 324 324 331 340 340 338 337 338 338 338 341 342 341 339 340 337 333 330 329 326 333 337 337 331 330 335 338 340 338 334 332 330 327 325 322
318 318 317 317 318 320 319 317 317 320 320 319 322 324 324 327 335 339 339 340 341 343 343 342 340 338 337 340 341 337 337 338 335 335 335 334 331 329 326 327 326 326 329 334 334 331 331 330 328
319 318 317 317 317 318 318 318 316 319 320 319 321 325 330 332 335 335 334 333 332 331 331 331 332 330 327 329 329 330 331 330 329 328 327 324 322 324 325 325 324 324 325 325 327 332 333 332 331
318 316 317 320 318 317 317 318 317 321 326 321 321 330 330 331 331 330 329 327 327 326 325 325 325 324 325 327 328 325 325 322 320 318 317 318 318 317 316 316 317 320 320 319 319 319 319 322 325
318 317 317 319 319 318 319 319 317 319 325 326 329 328 328 328 327 326 326 327 326 327 326 325 324 323 320 318 317 316 316 316 316 316 316 316 315 315 316 316 316 316 316 316 316 316 316 316 316
319 318 317 319 326 327 325 323 320 324 326 327 327 327 327 326 326 325 325 325 324 324 324 324 323 322 319 317 316 316 316 315 315 314 314 314 315 315 316 316 316 315 315 315 314 314 315 315 315
318 318 319 318 326 327 328 330 331 327 326 326 326 326 327 326 325 324 324 323 323 323 323 322 320 319 319 318 317 316 315 314 314 314 315 316 316 316 316 315 314 313 313 312 311 311 311 311 312
318 320 319 321 323 323 326 328 329 328 326 325 324 326 324 324 323 322 322 321 321 320 319 320 319 318 318 318 317 316 315 315 315 316 316 316 315 315 314 312 310 309 308 308 307 307 307 307 307
318 318 323 324 326 326 326 329 328 326 326 325 326 325 324 323 323 322 321 320 320 319 318 318 317 317 317 317 316 316 316 316 316 316 315 314 313 312 311 309 308 308 308 308 307 307 307 307 307

GFSSGP_850_thetae_114.txt.gz
Theta_e
314 311 313 320 317 317 322 325 326 328 329 332 333 346 359 358 354 353 356 357 354 338 336 343 344 342 342 343 341 342 341 338 333 327 322 326 326 326 324 323 328 329 327 325 325 323 324 324 324
312 311 321 321 315 317 319 323 325 326 329 331 336 355 359 362 358 358 357 357 352 339 332 342 344 343 343 343 342 343 342 340 335 328 323 325 323 324 322 324 327 328 327 325 323 323 324 324 323
311 311 322 316 311 316 319 323 324 327 330 329 332 344 358 361 359 358 357 355 349 339 332 337 344 344 344 344 343 343 343 341 338 330 324 325 323 325 326 323 326 326 327 325 323 324 324 323 324
311 316 318 314 314 315 319 321 323 324 325 327 331 344 351 358 354 354 348 356 353 345 334 337 345 345 345 344 343 343 343 342 339 333 326 324 323 327 328 325 325 326 327 325 322 323 324 325 326
315 317 313 313 313 314 316 318 320 321 323 326 328 339 354 357 351 347 348 353 358 348 338 339 345 346 345 344 343 343 344 343 340 335 330 324 324 325 330 328 329 329 328 325 322 323 324 326 326
315 314 310 312 313 314 314 317 317 319 321 323 328 348 353 355 342 345 348 357 360 357 341 341 344 345 345 344 343 343 343 344 340 338 333 327 325 325 329 331 330 328 325 322 322 323 324 325 327
313 308 310 310 313 313 316 318 317 318 320 322 327 334 352 357 352 345 353 359 360 358 349 340 343 344 345 343 341 341 343 344 341 339 336 330 326 327 326 328 332 329 323 322 323 323 324 326 328
316 309 312 311 312 312 315 318 320 320 323 325 324 321 350 355 356 356 357 357 358 356 346 340 342 344 344 344 340 339 343 344 343 340 338 334 329 327 328 326 325 326 323 322 323 325 324 325 328
315 310 309 311 313 314 316 315 319 320 320 320 324 333 345 355 356 358 360 359 359 358 346 342 340 342 343 343 336 338 342 344 343 340 339 336 332 327 327 327 326 324 323 322 323 324 328 330 330
312 310 311 310 312 313 315 316 317 318 319 319 321 347 352 350 355 355 358 358 358 357 355 352 344 343 343 339 333 338 342 344 343 341 339 336 333 330 326 328 328 325 323 322 322 324 324 326 328
312 313 312 313 315 316 315 315 317 317 316 319 319 320 332 335 337 341 341 356 354 357 357 356 349 344 344 335 334 338 340 342 342 340 337 334 331 328 325 326 328 328 325 324 323 322 323 324 324
312 313 314 315 316 315 314 317 316 317 318 318 319 319 319 319 322 322 323 336 349 353 354 351 344 342 339 336 334 335 336 336 335 334 333 331 330 327 324 328 331 331 331 335 336 327 324 323 322
312 313 315 315 315 316 315 314 314 317 318 318 318 319 319 319 319 319 321 335 348 350 353 345 342 341 336 338 336 335 339 337 334 334 333 331 332 332 326 335 340 339 340 341 343 343 336 329 331
315 315 315 315 314 314 314 315 314 316 318 318 318 319 319 319 319 318 319 334 348 349 349 348 345 340 339 341 343 343 344 339 336 343 338 343 344 337 336 340 340 342 341 344 343 344 342 342 341
315 314 314 313 313 311 314 313 314 316 317 318 318 319 319 319 319 319 319 323 332 348 348 347 343 341 336 338 335 339 345 342 346 346 347 346 347 343 341 343 345 344 343 343 342 340 339 338 340
313 313 314 314 312 314 313 314 314 317 317 317 317 319 319 319 319 319 319 320 339 346 347 345 343 340 339 335 340 343 346 345 346 345 342 343 346 346 345 344 342 343 343 343 342 341 340 339 336
310 313 310 312 311 313 312 314 314 317 317 317 317 318 319 319 319 319 319 321 340 347 344 337 334 335 337 338 344 345 349 348 348 347 345 341 341 344 344 342 343 342 340 340 340 340 337 336 333
314 310 312 312 314 312 313 313 313 316 316 317 319 319 319 320 320 320 319 328 347 340 337 332 333 336 335 338 344 346 347 349 347 344 342 338 343 343 336 331 335 334 334 337 337 335 333 332 332
313 312 312 313 313 315 313 314 314 315 314 316 318 319 320 320 321 321 320 339 339 337 335 332 333 335 338 341 344 345 344 343 341 340 336 335 336 331 329 329 333 333 334 334 335 332 331 334 334
313 312 312 312 314 314 316 316 315 315 315 318 320 318 320 321 321 321 325 344 339 335 335 334 335 332 334 333 335 337 342 335 339 341 333 335 334 329 330 332 332 332 332 333 334 334 332 332 330
313 312 312 312 314 315 316 315 317 317 319 320 322 320 320 322 322 331 338 344 340 341 341 338 336 339 339 336 333 333 342 341 342 339 339 335 334 335 331 330 330 332 333 336 336 335 333 332 322
313 313 314 314 314 314 316 316 316 319 319 319 321 321 324 329 338 340 343 346 344 339 340 343 343 343 339 341 340 342 342 343 341 339 339 338 336 335 335 334 334 338 339 337 334 334 330 325 324
314 315 315 315 313 315 316 315 314 316 319 319 320 322 339 338 341 341 342 345 344 342 342 342 340 339 340 339 340 338 336 335 336 336 334 332 332 331 329 328 327 327 327 328 334 334 333 332 329
317 317 316 315 313 315 315 316 315 316 317 318 321 331 338 338 341 341 340 341 342 341 340 340 340 338 340 340 340 338 337 337 336 332 327 325 325 325 325 325 325 324 323 324 324 325 326 329 331
318 317 316 315 315 316 315 315 315 316 317 321 329 333 333 336 337 336 335 333 331 332 333 334 335 332 332 336 335 335 333 330 327 323 319 320 320 318 317 316 317 317 318 318 318 319 319 319 320
319 318 314 317 318 316 316 316 315 316 324 323 330 330 332 333 331 329 328 326 325 324 324 324 324 325 324 325 323 321 320 319 318 317 316 315 315 314 314 314 314 315 315 315 316 316 316 316 316
321 320 316 317 323 320 320 324 320 323 325 326 326 327 326 326 328 328 327 327 325 325 324 323 321 320 318 317 317 317 316 316 315 314 313 313 313 314 315 315 315 315 314 313 312 311 311 310 311
320 317 317 316 324 323 324 328 327 326 326 326 325 325 325 325 325 325 324 324 324 323 323 322 319 318 318 317 317 315 314 314 313 313 314 314 314 315 315 314 312 310 309 308 308 308 308 307 307
320 319 317 316 319 320 322 322 326 325 325 324 324 325 324 324 324 324 323 323 322 321 320 319 318 318 318 317 316 315 315 315 315 314 315 315 314 314 313 311 309 308 309 308 308 307 307 307 307
323 322 318 320 324 319 320 321 326 325 325 324 323 323 322 322 323 322 322 320 319 319 319 318 317 317 316 316 316 316 316 315 314 315 314 314 313 311 310 310 309 309 309 309 308 307 307 307 307

GFSSGP_850_thetae_117.txt.gz
Theta_e
314 313 312 318 316 316 321 323 323 327 328 329 329 337 346 353 351 347 350 346 350 336 339 342 342 341 341 341 339 338 335 330 324 323 322 323 326 327 326 322 328 328 327 325 324 322 323 323 322
312 311 318 318 314 317 319 320 324 324 327 327 329 357 357 359 358 355 354 353 353 337 338 341 341 341 341 342 341 340 338 334 327 322 323 325 325 325 322 326 329 327 324 324 324 323 324 324 323
310 311 321 315 311 317 318 320 323 325 325 323 326 343 359 359 357 355 356 356 352 337 337 343 341 341 342 342 341 341 339 337 330 323 324 323 324 323 322 327 329 327 326 323 323 323 324 323 323
311 313 318 313 313 314 318 321 319 318 321 322 325 342 354 356 355 355 356 354 348 337 339 344 343 342 343 342 341 342 341 339 334 327 323 323 324 325 323 325 327 327 327 324 322 323 323 324 325
312 315 313 314 315 313 315 317 318 317 318 321 321 331 351 358 355 352 353 354 346 338 337 344 344 343 343 343 341 342 342 339 337 331 324 324 324 328 325 325 325 327 327 324 322 323 325 327 327
314 312 309 312 312 314 313 316 316 316 318 319 320 330 351 357 350 343 346 352 344 344 337 343 344 344 344 343 342 342 343 341 339 334 328 324 324 328 329 329 329 328 327 324 322 323 325 328 328
311 307 309 310 311 313 314 316 316 316 316 316 319 345 350 354 351 342 348 353 353 347 339 343 345 345 345 344 343 342 343 343 339 337 333 327 325 325 330 332 332 330 326 322 322 323 324 326 328
313 309 311 309 312 312 314 316 317 316 317 319 324 340 353 350 347 351 356 356 353 349 343 343 346 346 345 344 343 342 342 343 341 338 337 332 327 327 326 327 329 329 324 321 322 323 323 325 327
314 310 309 311 311 312 314 314 317 318 317 319 326 334 339 352 352 357 358 358 356 352 347 343 343 343 344 344 342 340 342 343 342 338 338 336 331 327 327 327 326 325 323 322 323 324 326 325 327
311 307 309 309 311 311 313 314 315 315 315 318 332 346 352 355 355 357 359 359 357 354 347 344 343 343 343 344 342 338 340 342 343 341 339 336 333 331 326 327 328 325 323 322 322 323 324 327 329
311 311 310 312 314 315 312 313 316 314 313 317 318 344 354 355 357 356 358 360 356 356 348 344 342 343 344 343 341 335 337 340 341 340 337 336 334 331 328 324 325 327 325 323 323 322 323 323 324
310 310 313 313 315 314 313 315 314 315 316 317 318 318 325 341 353 354 353 356 358 356 354 349 347 342 342 343 336 335 337 339 340 339 337 335 332 330 327 324 324 325 327 328 337 335 330 326 324
310 311 313 314 314 315 315 312 313 314 317 317 317 318 318 319 320 328 340 343 349 351 353 353 351 347 340 340 334 334 334 337 338 338 337 334 332 330 328 325 333 335 335 341 343 343 341 336 331
312 313 312 313 314 314 312 313 313 315 316 317 317 317 318 318 318 319 322 332 343 348 351 351 350 348 343 342 336 335 336 334 336 336 335 334 332 337 330 333 337 340 340 342 343 343 342 341 340
314 312 312 311 313 311 314 311 311 314 316 316 317 317 318 318 318 318 319 320 324 338 345 347 349 345 342 339 337 337 336 336 340 335 337 335 344 341 340 340 342 342 342 342 343 342 341 339 339
312 312 314 312 311 311 312 313 312 315 315 315 317 317 317 318 318 318 318 321 329 330 333 345 345 345 341 338 338 340 344 344 340 342 343 345 345 344 343 342 342 341 343 342 340 341 342 340 339
311 311 310 313 310 312 310 313 313 315 315 314 316 317 317 317 318 318 318 319 323 322 336 344 343 343 341 338 340 341 340 343 343 345 343 340 344 344 341 344 344 344 342 341 342 342 340 339 337
313 309 312 311 311 310 311 309 311 315 313 313 315 317 317 318 318 319 319 319 323 327 340 345 343 342 341 341 341 339 341 343 344 342 342 341 338 339 339 338 335 333 337 335 337 336 337 334 331
313 312 311 310 312 312 311 311 311 312 313 312 315 316 316 318 319 319 319 319 324 337 345 346 341 341 341 340 339 342 343 342 341 339 340 340 338 338 340 334 331 333 335 334 333 333 334 333 333
313 312 310 311 313 311 312 312 313 313 313 314 315 316 317 317 318 319 319 322 329 343 342 342 340 337 337 334 341 343 343 341 337 337 338 333 337 334 332 328 330 333 333 328 330 332 334 334 333
314 314 311 311 313 313 314 313 313 314 314 316 316 317 317 317 317 319 320 324 340 343 339 336 336 336 336 337 341 342 341 339 337 340 341 334 334 330 324 328 328 328 330 330 331 334 335 334 332
315 312 312 312 312 311 313 312 313 313 315 315 317 318 319 318 320 323 322 332 345 340 337 334 333 334 339 338 337 340 338 337 337 339 339 338 336 330 333 334 333 332 332 334 334 334 333 332 329
314 313 312 312 312 312 313 313 313 314 317 317 316 329 332 330 325 332 334 339 343 337 336 335 336 336 337 337 337 333 334 339 339 340 340 338 334 334 332 330 329 329 328 327 328 331 333 332 330
314 313 313 313 310 312 311 313 314 314 315 316 326 337 337 338 339 341 344 343 339 338 336 336 339 340 340 337 337 339 340 340 339 337 335 333 331 330 328 327 326 325 324 324 323 323 325 326 327
315 314 313 314 312 314 311 313 313 315 316 319 333 334 335 336 337 339 340 340 341 340 339 338 337 337 338 337 337 337 336 335 334 332 329 326 324 323 322 321 319 318 317 317 317 317 317 317 318
314 313 313 316 315 314 314 315 314 314 319 322 334 333 333 335 339 336 337 335 334 333 333 335 336 337 337 336 336 334 333 330 325 322 320 318 317 316 315 314 314 314 315 315 315 315 315 315 314
317 317 313 315 321 315 315 318 322 323 325 330 330 331 329 329 330 329 328 327 325 326 325 327 327 326 324 323 322 321 320 318 317 315 314 313 314 314 314 314 314 314 313 312 311 310 309 309 308
319 316 317 315 321 320 322 324 320 326 325 327 328 326 326 326 326 325 325 324 324 323 321 320 319 319 318 318 317 316 315 314 313 313 313 314 314 314 314 313 312 311 310 309 309 309 309 308 308
321 321 319 316 318 320 324 324 325 324 323 324 323 323 324 325 326 325 324 323 322 321 320 319 318 318 317 316 315 314 313 313 313 313 313 314 313 313 312 311 311 310 309 309 309 309 308 308 307
321 319 319 317 319 318 320 321 323 322 321 321 322 322 322 324 325 324 322 321 320 319 318 318 317 317 316 316 315 315 315 314 314 314 314 313 312 311 311 311 309 309 309 308 308 307 307 307 307

GFSSGP_850_thetae_120.txt.gz
Theta_e
311 314 312 316 315 315 320 323 322 325 327 327 327 336 343 350 351 347 352 337 339 335 340 343 343 340 340 338 335 333 329 324 323 326 327 325 325 328 328 322 326 327 325 325 324 322 322 322 322
313 312 314 317 313 317 318 319 324 323 326 325 325 337 352 355 357 354 346 343 342 334 339 342 342 340 340 339 337 335 331 326 323 324 322 325 327 327 323 326 329 327 326 325 322 323 323 322 323
311 311 319 313 310 316 319 318 321 323 324 322 322 330 352 354 356 353 351 350 349 338 341 342 341 340 340 339 339 338 335 329 323 322 324 325 325 324 322 328 328 325 323 324 323 323 324 323 323
310 312 317 313 313 313 318 320 317 317 319 321 322 322 343 354 355 354 355 353 352 338 340 343 341 341 340 340 339 338 337 333 326 322 325 324 325 322 324 328 328 326 325 322 323 324 323 323 323
312 314 311 313 314 313 314 316 317 316 316 317 319 319 339 334 355 355 355 355 351 339 340 343 341 341 341 341 341 340 338 336 330 324 324 323 324 323 324 327 327 327 326 323 322 323 323 325 326
312 311 309 311 312 313 313 316 316 316 316 317 317 319 322 323 336 354 354 353 348 338 340 343 342 342 342 341 341 341 340 338 335 329 324 324 325 327 324 325 326 327 327 324 322 323 325 326 327
309 306 308 309 311 312 314 315 315 316 315 316 318 330 339 336 355 351 354 353 346 339 340 343 342 342 342 341 341 341 342 339 338 334 327 324 324 329 327 328 329 328 326 323 322 323 325 327 327
311 307 308 307 310 311 313 315 316 316 316 317 319 330 345 342 354 350 352 351 343 340 341 344 344 343 342 342 341 341 342 341 338 337 333 328 325 324 328 331 330 327 324 321 322 322 324 325 328
313 308 308 309 309 311 313 314 315 316 316 317 321 328 342 350 354 348 351 345 341 341 341 344 345 344 344 343 342 342 342 342 340 338 337 333 328 324 325 325 325 326 323 322 323 323 323 324 327
309 306 307 309 309 310 312 313 314 315 314 316 328 354 349 352 353 351 353 348 346 347 343 343 344 345 344 344 343 342 341 342 342 340 339 336 332 329 324 325 326 324 323 322 322 323 325 325 326
310 308 307 310 313 313 311 312 313 314 313 316 315 347 357 354 353 354 356 355 354 351 349 346 343 344 344 344 343 341 339 340 342 342 340 337 334 331 329 325 324 326 324 323 322 322 323 323 324
310 308 310 312 313 314 311 314 313 313 315 317 316 315 344 354 353 354 356 357 355 354 351 347 343 341 342 342 342 342 335 335 339 341 340 338 335 332 329 326 324 326 327 326 324 327 326 324 323
309 310 311 312 313 314 313 311 312 313 316 316 316 316 316 347 352 350 354 356 356 355 354 351 345 341 340 340 340 341 333 335 338 339 338 337 334 333 330 327 326 324 326 331 340 341 340 337 329
311 311 311 312 312 312 311 311 312 313 315 315 316 316 316 318 336 350 352 353 354 356 353 350 350 350 345 341 338 338 332 336 338 339 341 337 335 335 332 328 334 338 335 339 341 342 341 340 338
312 312 311 310 310 309 311 311 310 313 314 315 315 315 316 316 318 319 321 325 328 333 341 348 350 351 349 341 339 335 334 336 339 339 338 337 334 339 336 330 339 340 340 340 342 339 341 341 340
310 311 313 310 310 311 311 310 312 314 315 314 315 316 316 316 317 318 318 319 319 321 329 342 349 352 348 343 340 338 335 336 336 338 337 337 335 342 338 338 340 342 341 342 342 340 340 339 340
310 310 310 313 309 311 310 312 312 315 314 314 315 316 316 317 316 317 318 318 319 319 323 332 347 347 347 344 340 337 337 338 340 341 338 340 340 341 342 340 342 342 342 342 341 339 341 338 337
312 310 310 311 310 311 310 308 310 313 313 313 315 316 316 317 317 316 317 318 319 322 324 331 343 348 345 340 338 337 338 344 344 342 343 340 340 344 342 337 337 335 338 339 335 337 336 335 335
312 310 311 310 310 310 311 311 310 311 310 311 312 314 315 316 317 317 317 317 320 325 324 331 339 347 343 341 340 341 341 339 343 342 342 340 341 335 335 336 338 334 334 336 334 334 332 332 333
313 311 311 311 311 310 311 310 310 311 311 312 314 314 315 317 317 316 317 318 318 322 324 332 341 345 344 342 340 341 339 341 341 340 334 332 328 331 327 334 336 333 333 334 331 330 331 332 332
314 313 310 311 312 311 313 311 312 312 313 315 315 317 317 317 317 317 317 319 319 320 326 335 343 344 342 342 341 339 341 341 338 335 335 334 334 335 335 332 332 330 329 330 331 331 332 333 332
315 313 312 311 311 310 311 310 310 311 312 313 314 315 317 318 317 316 317 319 319 323 334 342 343 343 341 340 335 343 341 340 338 336 336 337 334 334 332 332 332 332 331 331 333 334 333 332 332
314 313 313 311 310 311 311 311 309 313 314 313 313 317 316 317 318 320 322 322 323 332 341 342 342 339 339 334 336 340 340 338 338 338 339 338 337 336 331 332 331 330 330 330 330 328 325 325 328
314 313 311 310 309 311 310 310 309 312 315 315 333 333 333 333 334 331 329 326 329 342 344 342 338 336 338 337 338 337 335 334 337 337 338 337 335 332 329 329 328 326 324 323 322 322 321 321 323
312 310 310 311 311 312 309 310 310 312 313 313 331 333 332 333 332 333 334 335 341 342 340 338 337 336 337 335 333 335 337 337 338 337 335 332 330 328 327 325 322 320 318 317 316 315 315 315 315
315 311 311 314 313 312 310 311 313 312 320 322 333 331 329 330 330 333 336 340 340 338 336 334 333 335 336 333 334 335 336 334 332 330 328 326 324 321 318 316 314 313 313 314 314 313 313 312 311
314 313 311 313 316 313 312 315 319 325 329 330 329 330 329 329 331 333 336 338 334 333 333 328 330 332 328 330 332 332 327 326 325 322 320 317 315 314 313 313 313 313 313 313 312 311 310 309 309
315 314 315 312 319 317 318 319 316 326 329 329 329 329 327 326 328 330 331 329 326 329 329 327 328 327 325 321 321 321 318 316 315 314 313 313 313 313 313 312 312 312 312 311 309 309 309 308 308
319 316 315 314 314 317 322 320 325 322 325 329 328 326 324 324 324 324 324 324 323 322 321 324 322 320 318 316 315 314 314 313 313 313 312 312 312 312 312 312 312 311 309 309 309 308 308 307 307
318 317 314 317 316 315 315 317 322 322 320 321 324 323 323 323 322 322 322 321 320 319 319 318 317 316 316 315 314 314 313 313 313 312 312 313 313 312 311 311 311 310 310 309 308 307 307 309 309

GFSSGP_850_thetae_123.txt.gz
Theta_e
311 312 314 314 321 323 330 332 327 330 330 327 325 330 340 347 353 351 351 340 338 337 339 343 343 340 335 331 331 329 327 327 329 331 331 329 326 328 325 325 326 332 335 334 332 330 326 324 322
312 313 312 317 321 327 330 327 330 331 330 326 325 329 350 349 358 353 348 336 338 335 339 343 343 339 335 334 333 330 327 323 325 327 327 325 326 328 323 326 326 326 326 324 322 322 322 322 322
313 311 318 319 318 326 330 326 327 328 324 324 323 326 330 355 356 354 344 342 339 337 340 343 342 339 337 336 335 333 328 323 324 324 323 325 327 326 323 328 328 327 326 324 322 323 322 323 323
310 314 316 319 319 318 322 327 322 322 320 320 322 324 324 347 356 354 345 348 341 338 341 343 341 339 337 338 337 335 332 325 322 322 325 326 326 323 325 329 326 324 324 324 323 324 323 323 323
310 313 317 318 318 317 316 319 319 321 319 320 319 322 327 337 347 353 353 350 347 339 342 343 341 339 339 339 339 337 335 330 323 323 324 325 324 322 327 329 327 326 324 323 323 323 323 323 325
313 313 315 315 316 316 317 317 318 319 319 318 318 319 321 321 328 352 355 346 351 340 343 343 341 339 339 339 339 339 338 334 328 323 324 324 324 323 326 327 327 326 326 322 323 323 323 325 326
312 315 314 314 314 315 315 315 317 318 318 318 318 320 329 331 335 350 353 354 352 341 342 343 342 340 339 338 339 339 338 337 332 326 323 323 325 325 324 325 326 327 326 324 322 323 325 326 327
312 315 314 313 314 314 315 315 316 316 317 316 317 322 327 342 349 354 351 354 350 342 342 343 342 341 339 338 339 340 339 338 336 332 327 323 323 327 326 327 328 327 325 323 322 323 325 328 328
311 313 313 313 313 314 314 315 315 315 316 316 321 332 334 334 351 352 353 354 348 342 342 343 342 342 341 339 339 340 340 339 338 337 333 328 324 323 324 328 329 327 324 322 321 322 323 324 328
314 314 314 314 314 315 314 315 316 316 316 317 319 353 351 348 354 351 352 352 346 340 341 343 343 343 342 341 340 340 341 341 339 339 337 333 329 325 324 324 324 324 324 322 322 323 323 323 326
314 315 313 312 313 313 314 314 314 315 316 317 317 326 355 354 355 352 351 349 346 342 341 343 344 344 343 343 342 342 341 341 341 340 339 336 333 330 327 324 325 325 324 323 322 323 324 325 326
314 313 313 313 313 314 314 314 314 315 315 315 315 316 319 356 354 352 350 348 348 347 346 343 343 343 344 344 344 343 342 340 341 341 340 338 335 332 330 328 324 325 326 323 323 322 323 323 323
313 314 312 313 313 313 313 314 315 314 315 315 315 316 316 320 356 355 353 353 352 352 351 347 345 343 344 344 344 343 342 339 340 342 341 339 337 334 331 328 325 323 325 326 325 325 329 329 328
315 314 314 313 313 313 313 314 313 314 314 314 315 315 316 316 345 354 354 355 355 354 353 350 347 344 343 342 342 343 342 339 337 340 341 340 338 336 333 330 326 327 325 328 332 341 339 341 340
313 315 314 314 314 314 312 314 314 313 314 314 315 315 315 316 317 350 344 345 350 351 354 354 349 346 343 342 342 342 342 339 337 340 342 341 339 337 333 333 328 337 340 338 340 340 340 341 341
315 315 317 317 314 313 313 317 315 314 314 314 314 315 315 316 316 321 339 341 345 349 335 348 346 348 347 347 345 343 342 337 338 341 342 342 340 337 336 335 331 340 342 342 338 339 340 340 340
315 315 316 316 316 316 314 317 317 315 313 314 315 315 316 316 316 317 318 319 321 319 321 329 344 348 349 349 347 344 339 337 339 341 342 341 340 338 340 338 339 341 340 339 341 339 338 340 340
315 315 314 316 315 316 316 316 315 315 315 316 316 316 316 316 316 316 317 318 318 319 319 323 335 346 350 351 347 343 339 337 340 340 341 340 339 339 343 342 339 332 327 335 334 337 335 339 336
315 315 315 315 316 317 318 318 316 317 315 316 316 316 316 316 316 316 316 317 317 319 320 321 330 339 348 350 347 342 340 340 343 344 342 341 341 341 338 337 334 331 326 328 334 335 333 334 332
315 315 315 315 315 316 317 318 318 317 318 316 317 317 316 316 315 316 316 316 316 317 320 322 328 338 342 346 346 341 339 341 341 339 338 337 337 335 329 326 327 329 329 330 332 334 332 331 331
317 316 315 315 314 315 315 317 316 316 316 315 316 317 317 317 317 316 316 317 317 317 321 323 327 336 340 345 343 340 341 341 340 340 336 327 326 325 324 324 327 326 329 333 333 333 332 332 333
318 317 315 315 316 316 315 317 318 317 317 318 317 317 317 317 318 318 317 317 317 318 323 332 338 340 340 340 342 341 341 340 340 335 331 330 333 333 333 333 330 330 333 332 332 332 333 334 331
318 316 316 314 315 315 315 316 318 317 318 318 319 319 318 317 317 317 318 318 321 324 330 335 340 340 341 341 341 341 340 339 336 334 333 336 335 336 334 332 331 333 334 333 332 329 326 324 324
317 316 316 315 315 316 317 316 317 317 318 319 322 326 327 326 323 327 331 323 324 326 329 334 340 341 341 340 338 335 337 335 336 335 336 336 335 334 332 331 330 328 327 325 323 322 320 319 318
317 316 316 316 316 316 317 316 318 317 318 319 325 331 334 335 333 332 333 330 331 330 333 340 340 337 338 337 335 336 335 333 333 336 335 334 333 331 329 328 327 324 321 318 316 314 314 314 314
317 317 316 316 316 316 314 317 317 317 317 323 331 332 331 332 333 333 330 333 335 339 341 340 337 336 334 333 331 328 331 335 335 334 331 329 327 325 322 319 316 314 313 313 313 313 312 312 311
318 316 315 317 316 316 315 316 317 320 327 333 331 330 330 329 330 330 331 333 335 339 336 331 332 332 327 324 324 328 329 331 328 327 325 322 319 317 314 313 313 313 312 312 312 311 311 310 309
318 317 316 318 318 317 317 318 319 326 330 332 331 330 327 327 328 330 332 333 336 334 330 325 325 324 324 324 327 328 329 325 320 317 316 314 313 313 313 312 312 312 312 312 312 312 311 310 309
320 318 316 317 320 320 322 319 326 326 330 332 331 328 326 325 327 328 327 329 331 331 329 328 328 328 327 326 321 319 316 314 314 313 313 312 312 312 312 312 312 312 312 312 311 311 310 308 309
320 319 317 321 321 320 322 326 327 327 331 331 328 326 325 324 324 324 322 322 322 322 326 324 320 317 316 315 314 314 313 313 313 312 312 312 312 312 312 312 312 312 312 311 311 310 309 309 309

GFSSGP_850_thetae_126.txt.gz
Theta_e
312 312 313 318 326 330 334 335 336 335 334 333 331 333 339 347 351 358 357 349 350 354 342 343 344 342 337 332 333 337 340 342 343 342 338 333 330 329 322 324 328 334 332 331 331 331 331 325 324
315 314 317 321 327 334 334 335 335 335 333 332 332 331 340 348 351 358 354 349 351 350 339 342 344 341 336 331 330 330 330 334 335 334 333 330 327 328 322 325 329 335 334 333 331 329 326 322 322
312 313 319 323 328 333 336 335 333 334 333 331 331 329 331 343 356 358 354 349 352 349 339 342 343 339 335 331 330 328 326 324 326 328 329 326 327 326 323 325 326 328 328 324 322 322 322 322 323
314 316 318 322 328 330 332 334 331 331 329 327 328 329 328 337 354 359 351 352 354 354 352 343 342 338 335 333 331 330 326 323 324 324 324 325 327 325 324 326 327 326 325 322 323 323 322 323 323
313 316 319 320 322 326 325 326 328 329 329 327 326 329 327 345 352 356 352 354 354 353 354 344 341 337 335 335 334 332 328 323 322 322 324 325 326 323 326 328 326 324 324 323 323 324 323 323 323
315 316 318 319 321 322 324 323 323 325 326 325 323 325 326 338 350 357 354 354 354 352 354 343 340 337 335 336 336 335 331 326 322 324 324 324 324 322 326 328 326 326 324 323 323 324 323 323 325
317 318 317 319 320 321 322 320 321 323 324 325 323 324 327 340 350 357 356 356 355 353 353 344 340 337 335 336 337 337 335 331 325 323 323 323 323 322 324 326 326 326 326 323 322 323 323 324 326
316 318 319 319 319 319 321 319 319 319 320 320 320 323 326 339 353 355 357 357 356 354 353 350 345 338 336 336 337 338 338 336 332 326 323 323 324 324 323 324 324 325 326 325 322 323 324 326 327
316 318 319 321 319 319 318 319 318 318 319 319 319 321 328 347 354 355 358 358 356 353 352 351 349 343 343 341 338 337 338 338 336 331 326 324 325 327 326 326 327 327 326 324 323 322 323 326 328
318 321 321 321 321 320 320 318 318 318 318 319 323 337 352 349 351 355 357 357 356 353 353 351 352 348 345 345 340 337 337 337 337 335 331 327 340 338 341 339 331 330 328 324 321 322 322 324 333
319 322 323 321 319 318 319 318 317 318 319 320 321 334 355 353 352 355 356 355 355 353 353 352 353 351 347 347 345 344 344 343 339 338 336 340 343 342 340 342 330 328 326 328 324 322 324 333 333
320 320 320 321 318 317 318 318 318 317 318 318 320 319 321 356 353 355 356 355 354 354 354 352 353 351 349 348 348 347 346 346 346 346 343 345 344 344 342 341 340 340 339 337 337 335 335 338 338
320 319 319 318 318 317 317 318 318 318 317 317 317 318 320 322 356 356 355 353 353 354 353 344 351 346 346 349 349 348 349 348 347 347 346 346 345 345 343 342 340 340 338 339 338 336 338 336 336
319 319 319 318 318 318 319 319 317 318 317 317 317 318 319 322 341 356 354 354 354 355 351 349 349 344 344 350 352 350 350 349 348 347 347 345 346 346 344 343 342 340 340 340 340 339 340 342 342
317 318 319 320 319 319 318 319 319 318 317 317 317 317 319 321 323 356 356 356 357 357 355 351 347 348 344 349 350 352 352 351 349 348 346 344 343 346 343 344 343 341 343 340 335 340 343 344 344
318 318 320 320 319 319 319 320 321 320 318 318 318 317 318 319 320 339 352 354 356 358 358 357 353 348 345 350 352 349 351 350 350 349 348 344 342 343 344 345 344 342 342 341 340 340 341 341 338
318 320 319 319 320 319 319 319 321 319 320 320 320 318 318 319 320 321 336 351 354 358 360 358 355 352 347 351 349 346 351 350 349 349 349 348 346 346 344 344 342 335 340 341 337 337 335 334 330
320 319 320 321 320 319 320 319 321 320 320 320 321 320 318 319 320 320 323 334 347 354 357 354 342 353 355 355 350 348 352 351 350 347 347 346 345 343 342 340 339 339 333 330 328 325 324 328 330
321 321 321 320 320 320 321 321 320 321 320 320 320 320 319 319 319 319 321 326 334 344 349 330 327 351 353 355 350 351 351 349 346 343 341 339 340 339 338 339 337 333 330 326 326 328 325 333 335
319 320 320 320 319 319 320 321 321 321 321 320 320 320 320 319 320 320 321 324 331 334 335 325 325 337 351 351 350 350 348 347 343 344 343 342 339 337 337 337 334 330 327 326 321 322 330 335 333
320 321 320 320 319 319 320 321 322 322 321 320 320 320 320 319 320 320 320 321 326 331 332 343 338 332 348 354 351 349 346 345 344 345 341 339 335 331 334 332 330 327 322 320 322 322 333 335 337
320 319 320 319 319 320 319 321 321 322 322 322 321 321 320 320 319 320 323 323 326 330 338 345 343 335 351 352 347 346 347 345 344 343 340 331 326 325 324 324 324 326 323 324 324 334 334 335 336
320 319 320 319 319 320 320 320 322 322 321 322 322 320 320 320 320 320 323 326 329 334 342 342 335 345 348 352 346 346 345 345 343 339 335 326 330 332 332 331 332 330 326 333 334 335 330 325 322
319 319 319 320 319 320 320 320 321 323 323 322 323 321 321 320 320 320 322 331 339 340 338 339 339 345 342 344 344 345 344 342 340 338 332 331 334 334 334 333 333 334 333 331 327 323 320 317 315
318 321 323 323 322 320 320 321 322 323 322 323 323 321 320 320 321 322 335 337 333 336 342 340 341 338 341 342 341 340 338 335 336 335 334 333 334 335 334 332 330 327 325 321 318 315 313 313 313
320 321 323 323 322 320 321 320 322 321 320 321 322 322 326 332 330 334 335 332 333 336 338 338 340 342 341 337 335 333 331 329 329 330 332 331 331 330 327 324 321 317 315 313 313 313 312 312 312
319 322 320 320 321 322 320 320 321 320 320 326 328 332 336 333 333 333 333 334 335 335 336 335 334 334 333 332 331 330 327 324 324 330 329 328 327 323 318 316 314 313 313 312 312 315 313 312 314
319 321 321 319 322 321 321 322 322 322 325 332 334 334 332 332 332 332 333 334 335 335 335 331 329 327 325 324 324 324 324 324 325 327 327 324 318 315 313 313 312 312 312 312 312 314 315 313 315
322 322 319 319 321 322 322 322 325 323 326 332 334 330 330 329 329 330 331 332 333 332 330 329 327 325 326 325 323 324 325 327 325 320 316 314 313 313 314 312 313 314 313 313 313 312 314 315 315
319 321 320 321 322 321 322 323 330 325 328 333 330 330 327 326 328 329 331 332 331 329 328 327 326 325 325 326 326 324 323 316 314 314 313 313 313 315 314 314 315 314 314 313 313 314 314 315 314